Date StartTime U_cm/s V_cm/s W_cm/s Ustd_cm/s Vstd_cm/s Wstd_cm/s Uvar_(cm/s)^2 Vvar_(cm/s)^2 Wvar_(cm/s)^2 KE_(m/s)^2 TurbulentKE_(m/s)^2 HorizWindSpeed_cm/s FrictionSpeec_cm/s DragCoef SpeedOfSound_m/s SonicTemperature_C Pressure_mb 
11/22/2014  00:00:00     -227.751     -137.560        5.547      123.490       96.337       45.226    15249.711     9280.789     2045.356        4.869        1.329      266.070       54.007        0.041      337.912       10.203      860.067
11/22/2014  00:01:00     -238.596      -70.898        0.183      118.620      103.040       56.172    14070.663    10617.300     3155.273        4.489        1.392      248.907       66.932        0.072      338.030       10.401      860.062
11/22/2014  00:02:00     -166.688     -135.625       -2.781      139.788       82.276       56.466    19540.674     6769.354     3188.365        3.784        1.475      214.893       71.137        0.110      338.299       10.855      859.999
11/22/2014  00:03:00      -78.330     -149.779       12.021       67.200      117.537       49.852     4515.891    13814.845     2485.269        2.476        1.041      169.024       43.836        0.067      338.465       11.132      859.915
11/22/2014  00:04:00     -102.752     -124.553        4.261       53.395      113.758       38.446     2851.004    12940.809     1478.111        2.168        0.863      161.467       35.206        0.048      338.489       11.174      859.923
11/22/2014  00:05:00     -132.067      -52.156       -0.244       55.125       36.840       29.896     3038.775     1357.218      893.791        1.272        0.264      141.993       28.443        0.040      338.400       11.026      859.987
11/22/2014  00:06:00     -188.076      -65.693       -8.285       47.912       41.465       25.707     2295.588     1719.360      660.830        2.222        0.234      199.219       20.987        0.011      338.330       10.905      860.046
11/22/2014  00:07:00     -142.652      -12.468      -13.078       44.728       29.734       24.812     2000.638      884.112      615.614        1.209        0.175      143.196       25.563        0.032      338.370       10.976      860.055
11/22/2014  00:08:00      -79.136      -17.221        3.590       45.579       38.336       25.039     2077.476     1469.646      626.935        0.537        0.209       80.988       27.256        0.113      338.670       11.479      860.022
11/22/2014  00:09:00      -92.421      -45.832       -4.907       42.424       20.136       20.010     1799.837      405.444      400.393        0.664        0.130      103.161       18.540        0.032      338.378       10.989      860.039
11/22/2014  00:10:00     -118.413      -52.460      -18.907       19.699       20.430       16.638      388.037      417.394      276.839        0.911        0.054      129.514       11.841        0.008      338.322       10.894      860.061
11/22/2014  00:11:00      -69.614      -42.657      -12.174       25.182       22.897       14.959      634.122      524.283      223.772        0.410        0.069       81.644       10.836        0.018      338.256       10.783      860.024
11/22/2014  00:12:00       -9.557        5.061       15.528       24.237       17.415       22.868      587.444      303.267      522.963        0.089        0.071       10.814       17.162        2.519      338.216       10.718      859.944
11/22/2014  00:13:00       -9.991        8.153       19.158       31.493       15.519       13.028      991.824      240.825      169.723        0.097        0.070       12.895       15.786        1.499      338.241       10.758      859.915
11/22/2014  00:14:00       33.255       46.912       39.271       40.150       20.166       19.199     1612.047      406.669      368.590        0.362        0.119       57.503       23.854        0.172      338.206       10.699      859.919
11/22/2014  00:15:00       72.167       35.137       -2.244       28.237       23.224       15.901      797.339      539.356      252.857        0.402        0.079       80.266       13.784        0.029      338.229       10.738      859.925
11/22/2014  00:16:00       27.276       18.398       12.526       28.801       18.012       17.974      829.500      324.448      323.064        0.136        0.074       32.901       10.117        0.095      338.252       10.777      859.990
11/22/2014  00:17:00        6.792       44.961       60.496       25.776       33.300       27.046      664.400     1108.899      731.475        0.412        0.125       45.471       25.391        0.312      338.305       10.867      860.050
11/22/2014  00:18:00        9.364       92.992      107.038       38.987       49.918       30.162     1519.965     2491.789      909.761        1.256        0.246       93.462       32.963        0.124      338.367       10.969      860.002
11/22/2014  00:19:00       14.956      107.381      105.529       28.799       31.097       24.421      829.409      967.048      596.376        1.264        0.120      108.418       18.687        0.030      338.326       10.903      859.931
11/22/2014  00:20:00       21.950       84.322      106.457       38.483       41.590       24.369     1480.931     1729.746      593.847        1.136        0.190       87.132       23.500        0.073      338.284       10.830      859.896
11/22/2014  00:21:00       33.376       59.892       97.674       42.481       61.315       34.298     1804.645     3759.490     1176.331        1.049        0.337       68.564       34.310        0.250      338.221       10.727      859.882
11/22/2014  00:22:00       88.694       66.589       38.717       39.636       34.588       38.614     1570.985     1196.339     1491.019        0.903        0.213      110.909       27.731        0.063      338.183       10.662      859.907
11/22/2014  00:23:00      105.885       62.448       14.097       30.191       33.700       30.507      911.472     1135.683      930.659        0.914        0.149      122.929       19.744        0.026      338.153       10.611      859.929
11/22/2014  00:24:00       18.592       73.970       -9.390       40.261       36.115       18.779     1620.913     1304.270      352.640        0.459        0.164       76.270       22.029        0.083      338.075       10.481      859.990
11/22/2014  00:25:00       11.214      153.399      -28.407       21.422       19.753       12.365      458.892      390.165      152.898        1.273        0.050      153.808        8.041        0.003      338.044       10.429      859.992
11/22/2014  00:26:00       35.971      115.608      -22.562       33.243       52.354       21.626     1105.089     2740.892      467.694        0.974        0.216      121.074       18.663        0.024      337.976       10.315      859.957
11/22/2014  00:27:00       25.778       55.290       -3.098       27.935       27.178       17.708      780.368      738.623      313.572        0.278        0.092       61.004       10.008        0.027      337.973       10.309      859.954
11/22/2014  00:28:00       75.608       63.008        2.407       28.843       22.549       25.643      831.910      508.457      657.560        0.584        0.100       98.420       16.314        0.027      338.015       10.380      859.952
11/22/2014  00:29:00       57.696       83.403       58.869       66.593       34.671       40.511     4434.622     1202.046     1641.133        1.051        0.364      101.415       45.516        0.201      337.992       10.341      859.972
11/22/2014  00:30:00       42.016       48.690       56.987       40.446       40.276       30.195     1635.854     1622.134      911.726        0.578        0.208       64.312       28.579        0.197      337.891       10.171      860.004
11/22/2014  00:31:00       98.900       52.551       21.160       24.272       29.123       23.886      589.108      848.170      570.541        0.750        0.100      111.994       10.002        0.008      337.826       10.061      860.010
11/22/2014  00:32:00       50.142       41.510       42.188       26.539       24.835       25.246      704.319      616.771      637.350        0.399        0.098       65.095       14.571        0.050      337.839       10.084      860.003
11/22/2014  00:33:00       61.534       84.573       78.374       42.716       45.695       39.472     1824.619     2088.067     1558.050        1.128        0.274      104.590       34.996        0.112      337.890       10.170      860.006
11/22/2014  00:34:00      127.302      118.092       72.545       87.046       45.347       49.758     7576.950     2056.381     2475.840        2.376        0.605      173.642       49.541        0.081      337.906       10.195      859.992
11/22/2014  00:35:00      115.490      120.294       97.835       94.839       79.740       63.229     8994.514     6358.520     3997.960        2.836        0.968      166.759       51.902        0.097      338.031       10.404      859.940
11/22/2014  00:36:00       26.130       20.263       49.749       41.652       41.811       37.980     1734.863     1748.163     1442.454        0.425        0.246       33.067       34.619        1.096      338.026       10.398      859.989
11/22/2014  00:37:00       54.618       18.856       49.788       63.042       35.750       25.846     3974.355     1278.041      668.014        0.587        0.296       57.781       28.300        0.240      338.132       10.575      860.001
11/22/2014  00:38:00        8.921       53.781       88.789       41.283       60.137       42.127     1704.306     3616.479     1774.716        0.897        0.355       54.516       45.453        0.695      338.104       10.529      859.957
11/22/2014  00:39:00      101.328      -77.346       27.811      102.439      125.804       68.358    10493.659    15826.573     4672.770        2.400        1.550      127.474       91.117        0.511      337.964       10.292      859.917
11/22/2014  00:40:00      119.300      -55.272       32.989      115.198      139.088      102.454    13270.605    19345.346    10496.866        3.074        2.156      131.482      122.638        0.870      337.871       10.135      859.924
11/22/2014  00:41:00       56.604       90.729      106.432       56.769       64.251       41.972     3222.702     4128.181     1761.627        1.594        0.456      106.938       39.975        0.140      337.882       10.155      859.920
11/22/2014  00:42:00      109.645      -65.979       25.294       63.540       76.019       51.727     4037.325     5778.956     2675.720        1.475        0.625      127.966       57.384        0.201      337.973       10.307      859.897
11/22/2014  00:43:00        1.544      -74.670        6.081       46.041       57.459       37.873     2119.786     3301.549     1434.389        0.623        0.343       74.686       34.528        0.214      338.039       10.420      859.943
11/22/2014  00:44:00      -47.721      -67.387       -7.157       74.881       55.744       40.363     5607.223     3107.417     1629.202        0.860        0.517       82.573       35.306        0.183      338.120       10.555      860.009
11/22/2014  00:45:00       71.608      -94.195        3.944       45.221       62.944       37.157     2044.972     3961.927     1380.632        1.070        0.369      118.323       32.315        0.075      338.305       10.868      860.025
11/22/2014  00:46:00       28.558       63.454       88.782       40.894       85.572       51.601     1672.288     7322.609     2662.682        1.219        0.583       69.584       60.864        0.765      338.239       10.754      859.922
11/22/2014  00:47:00       54.218       96.943       90.086       49.282       49.910       47.246     2428.677     2491.019     2232.185        1.380        0.358      111.074       42.122        0.144      338.229       10.738      859.790
11/22/2014  00:48:00       -1.626      -37.392       32.586       30.200       50.322       33.204      912.034     2532.328     1102.507        0.350        0.227       37.427       32.317        0.746      338.340       10.925      859.770
11/22/2014  00:49:00       18.456      -30.697        9.448       24.903       44.599       20.608      620.163     1989.113      424.671        0.220        0.152       35.818        4.755        0.018      338.389       11.005      859.751
11/22/2014  00:50:00        0.961      -16.733        5.365       18.723       12.929       10.442      350.566      167.167      109.040        0.047        0.031       16.761        8.933        0.284      338.367       10.971      859.758
11/22/2014  00:51:00      -98.442      -55.294       -0.301       53.518       31.895       26.541     2864.148     1017.290      704.445        0.867        0.229      112.908       17.575        0.024      338.289       10.838      859.826
11/22/2014  00:52:00     -178.003     -102.988      -15.231      118.801       91.778       41.164    14113.771     8423.206     1694.472        3.337        1.212      205.649       48.698        0.056      338.265       10.796      859.931
11/22/2014  00:53:00     -233.965     -106.345       -3.814       92.574       93.598       47.616     8569.947     8760.596     2267.259        4.283        0.980      257.000       45.791        0.032      338.123       10.558      859.966
11/22/2014  00:54:00     -238.351      -57.277       -8.950      123.821       81.140       51.262    15331.608     6583.716     2627.789        4.235        1.227      245.136       51.951        0.045      338.117       10.548      859.992
11/22/2014  00:55:00     -222.770      -85.873      -16.890       66.546       62.780       40.798     4428.327     3941.306     1664.485        3.366        0.502      238.748       33.505        0.020      338.213       10.707      860.022
11/22/2014  00:56:00     -221.502      -20.685      -29.249       35.697       27.496       22.243     1274.283      756.043      494.734        2.644        0.126      222.466       14.884        0.004      338.387       11.002      860.011
11/22/2014  00:57:00     -227.822      -76.476      -30.670       85.283       85.000       39.716     7273.121     7225.011     1577.389        3.738        0.804      240.315       32.469        0.018      338.870       11.811      859.945
11/22/2014  00:58:00      -71.582     -111.435      -11.479       41.609       49.839       32.266     1731.287     2483.910     1041.072        1.146        0.263      132.445       10.070        0.006      339.238       12.434      859.875
11/22/2014  00:59:00      -44.500        9.883       36.596       51.007       72.205       64.556     2601.684     5213.596     4167.473        0.770        0.599       45.584       47.645        1.092      339.009       12.050      859.788
11/22/2014  01:00:00      102.939      100.042       75.354       86.880       50.274       54.288     7548.084     2527.482     2947.206        1.965        0.651      143.544       46.657        0.106      338.703       11.533      859.746
11/22/2014  01:01:00       31.311       81.535       99.058       53.938       64.408       38.539     2909.285     4148.389     1485.247        1.299        0.427       87.340       33.503        0.147      338.808       11.712      859.767
11/22/2014  01:02:00       45.106       15.843       70.484       58.133       84.074       46.420     3379.445     7068.430     2154.840        0.993        0.630       47.807       55.831        1.364      338.761       11.633      859.710
11/22/2014  01:03:00       -7.253      -97.353       22.772       42.958       43.516       28.903     1845.417     1893.626      835.409        0.731        0.229       97.622        9.331        0.009      338.735       11.589      859.723
11/22/2014  01:04:00       14.340      -25.049       10.983       77.953       40.801       28.522     6076.673     1664.712      813.522        0.475        0.428       28.864       25.418        0.775      338.725       11.570      859.778
11/22/2014  01:05:00     -151.686      -27.082      -12.636       48.608       51.201       26.405     2362.700     2621.500      697.213        1.479        0.284      154.085       24.804        0.026      339.006       12.044      859.872
11/22/2014  01:06:00     -159.119      -46.457      -12.682       61.969       52.871       34.358     3840.104     2795.338     1180.459        1.773        0.391      165.762       26.961        0.026      338.672       11.482      859.922
11/22/2014  01:07:00      -30.636       -6.671        7.102       43.678       43.456       25.847     1907.788     1888.402      668.063        0.275        0.223       31.354       24.593        0.615      338.513       11.215      859.922
11/22/2014  01:08:00      -44.754      102.487      -19.082       43.175       52.968       27.375     1864.083     2805.626      749.417        0.914        0.271      111.833       24.651        0.049      338.611       11.381      859.882
11/22/2014  01:09:00       -6.265      153.849      -10.606       42.305       35.347       29.412     1789.692     1249.426      865.075        1.386        0.195      153.976       24.774        0.026      338.565       11.302      859.815
11/22/2014  01:10:00       30.701       68.782        1.167       43.922       57.982       37.765     1929.122     3361.865     1426.189        0.619        0.336       75.323       34.451        0.209      338.333       10.913      859.777
11/22/2014  01:11:00       61.008       27.297       10.217       32.138       26.453       20.662     1032.855      699.741      426.929        0.337        0.108       66.837       11.562        0.030      338.303       10.864      859.738
11/22/2014  01:12:00      114.193       56.644        0.896       61.112       44.169       35.545     3734.670     1950.902     1263.464        1.160        0.347      127.470       12.499        0.010      338.259       10.787      859.690
11/22/2014  01:13:00       97.134       59.870       12.977       61.163       42.901       44.390     3740.869     1840.521     1970.450        1.037        0.378      114.103       25.436        0.050      338.265       10.798      859.653
11/22/2014  01:14:00       32.189       70.568      -11.730       47.755       64.348       31.222     2280.504     4140.625      974.783        0.677        0.370       77.562       29.721        0.147      338.316       10.883      859.684
11/22/2014  01:15:00      -68.935       43.825       -7.906       53.698       41.607       23.985     2883.481     1731.139      575.292        0.596        0.259       81.686       22.805        0.078      338.553       11.283      859.719
11/22/2014  01:16:00      -62.925       12.628      -15.748       39.590       32.825       23.180     1567.396     1077.455      537.321        0.377        0.159       64.180       14.557        0.051      338.556       11.288      859.714
11/22/2014  01:17:00       -3.469      -43.065      -11.662       28.978       25.593       14.118      839.706      655.001      199.311        0.185        0.085       43.205        9.462        0.048      338.434       11.082      859.682
11/22/2014  01:18:00       23.352       37.310       41.539       28.132       38.434       44.185      791.415     1477.162     1952.328        0.394        0.211       44.015       36.779        0.698      338.423       11.065      859.583
11/22/2014  01:19:00       49.495      -34.181       36.331       59.903       86.658       60.463     3588.388     7509.667     3655.782        0.984        0.738       60.151       65.259        1.177      338.320       10.891      859.499
11/22/2014  01:20:00       56.873      -49.526       27.869       58.886       97.108       72.115     3467.568     9429.920     5200.515        1.228        0.905       75.415       77.145        1.046      338.312       10.876      859.517
11/22/2014  01:21:00       76.894      -83.595       -4.287       37.003       60.211       30.147     1369.230     3625.408      908.848        0.941        0.295      113.582       23.385        0.042      338.483       11.166      859.565
11/22/2014  01:22:00       -6.941      -11.545        6.268       22.602       34.488       16.819      510.837     1189.404      282.878        0.110        0.099       13.470       10.872        0.651      338.476       11.154      859.588
11/22/2014  01:23:00       14.094      -23.731        6.568       14.475       22.131       19.448      209.539      489.794      378.217        0.094        0.054       27.601       12.823        0.216      338.537       11.257      859.607
11/22/2014  01:24:00      -26.610       30.661      -13.470       15.982       23.723       12.750      255.415      562.792      162.553        0.141        0.049       40.598       13.439        0.110      338.529       11.243      859.651
11/22/2014  01:25:00      -87.552      -12.272       -2.384       40.952       37.575       23.663     1677.043     1411.863      559.950        0.573        0.182       88.408       19.828        0.050      338.835       11.756      859.694
11/22/2014  01:26:00      -66.606        8.202       -7.633       52.819       40.386       28.549     2789.800     1631.011      815.059        0.490        0.262       67.109       29.480        0.193      338.933       11.920      859.726
11/22/2014  01:27:00      -58.409        1.422        4.172       60.283       24.266       21.746     3634.059      588.848      472.908        0.406        0.235       58.426       31.455        0.290      338.600       11.361      859.705
11/22/2014  01:28:00       16.805       38.239       -4.134       34.025       19.797       15.747     1157.693      391.909      247.958        0.178        0.090       41.769        8.980        0.046      338.539       11.260      859.637
11/22/2014  01:29:00       24.530       75.469       76.016       50.269       35.939       46.640     2526.998     1291.626     2175.284        0.903        0.300       79.355       43.418        0.299      338.539       11.261      859.533
11/22/2014  01:30:00       49.108      -52.640       41.239       65.227      102.753       74.619     4254.553    10558.125     5568.065        1.363        1.019       71.990       83.654        1.350      338.452       11.112      859.505
11/22/2014  01:31:00       47.745      -45.942       13.222       48.777       62.970       51.143     2379.242     3965.273     2615.601        0.676        0.448       66.259       51.096        0.595      338.339       10.923      859.517
11/22/2014  01:32:00        4.599       15.128       51.627       23.131       26.748       15.538      535.035      715.461      241.425        0.220        0.075       15.812       13.106        0.687      338.359       10.956      859.523
11/22/2014  01:33:00       11.978       16.916       28.289       27.099       24.324       25.132      734.358      591.636      631.625        0.159        0.098       20.727       26.498        1.634      338.397       11.020      859.549
11/22/2014  01:34:00       42.750      -50.648       -0.735       18.423       29.948       10.909      339.421      896.854      119.011        0.287        0.068       66.278       11.392        0.030      338.571       11.314      859.554
11/22/2014  01:35:00       47.867      -62.362      -14.165       30.936       46.051       26.087      957.024     2120.721      680.533        0.507        0.188       78.615       20.443        0.068      338.541       11.263      859.517
11/22/2014  01:36:00       12.134        8.738       42.004       24.462       25.381       18.248      598.380      644.204      332.982        0.178        0.079       14.953        9.737        0.424      338.388       11.004      859.466
11/22/2014  01:37:00       -3.320       47.957       64.892       26.571       39.455       29.254      705.994     1556.676      855.800        0.482        0.156       48.072       17.231        0.128      338.466       11.137      859.430
11/22/2014  01:38:00       -2.732       29.449       75.289       24.317       54.297       37.366      591.338     2948.189     1396.217        0.574        0.247       29.576       40.764        1.900      338.590       11.344      859.411
11/22/2014  01:39:00       16.439      -21.906       40.085       42.466       53.206       38.668     1803.397     2830.863     1495.218        0.424        0.306       27.388       37.551        1.880      338.642       11.431      859.426
11/22/2014  01:40:00       73.984     -149.962      -10.861       63.375       62.246       46.161     4016.362     3874.614     2130.834        1.905        0.501      167.220       43.318        0.067      338.817       11.725      859.444
11/22/2014  01:41:00       75.167      -94.539        1.947       56.049       63.405       39.642     3141.494     4020.177     1571.492        1.166        0.437      120.779       47.306        0.153      338.814       11.721      859.430
11/22/2014  01:42:00       10.325       -2.720       50.519       24.094       50.182       25.310      580.506     2518.226      640.578        0.320        0.187       10.677       21.926        4.217      338.730       11.580      859.378
11/22/2014  01:43:00      -10.791        9.398       38.099       29.308       32.845       32.236      858.970     1078.780     1039.148        0.232        0.149       14.310       20.650        2.082      338.581       11.330      859.358
11/22/2014  01:44:00       37.422      -57.873        8.718       46.383       50.146       31.799     2151.418     2514.579     1011.155        0.525        0.284       68.918       32.667        0.225      338.584       11.333      859.368
11/22/2014  01:45:00       81.895      -85.577      -11.397       39.037       40.310       23.952     1523.894     1624.879      573.693        0.894        0.186      118.449       21.543        0.033      338.677       11.490      859.375
11/22/2014  01:46:00      -19.320      -66.017       -5.869       39.846       44.972       27.995     1587.692     2022.444      783.698        0.458        0.220       68.786       18.442        0.072      338.684       11.503      859.358
11/22/2014  01:47:00      -21.250       12.436       29.345       26.800       23.172       14.584      718.248      536.924      212.704        0.147        0.073       24.621        8.802        0.128      338.700       11.530      859.278
11/22/2014  01:48:00       -8.913        4.707       29.812       21.190       24.025       12.508      449.034      577.209      156.457        0.109        0.059       10.079       11.239        1.244      338.744       11.603      859.274
11/22/2014  01:49:00     -143.747       32.768      -16.190       93.348       64.296       31.812     8713.832     4133.981     1011.985        1.793        0.693      147.435       38.411        0.068      338.736       11.589      859.279
11/22/2014  01:50:00     -156.719      -73.342      -13.178       64.437       62.540       27.428     4152.069     3911.276      752.286        1.946        0.441      173.031       20.948        0.015      338.488       11.174      859.264
11/22/2014  01:51:00      -84.274       79.286      -10.543       38.272       31.608       23.385     1464.775      999.069      546.846        0.825        0.151      115.708       26.920        0.054      338.462       11.130      859.275
11/22/2014  01:52:00      -73.285        6.822        1.279       58.829       45.826       25.797     3460.820     2100.035      665.480        0.582        0.311       73.602       27.881        0.143      338.503       11.200      859.363
11/22/2014  01:53:00      -66.082       -8.107      -13.703       58.689       35.113       15.514     3444.450     1232.899      240.677        0.477        0.246       66.578       19.133        0.083      338.469       11.142      859.348
11/22/2014  01:54:00     -107.080      -59.827       -7.644       44.426       37.593       24.969     1973.642     1413.216      623.446        0.956        0.201      122.660       21.925        0.032      338.293       10.846      859.370
11/22/2014  01:55:00       -2.297      -10.606       12.886       32.861       25.716       18.613     1079.876      661.327      346.452        0.119        0.104       10.852       16.430        2.292      338.382       10.996      859.306
11/22/2014  01:56:00       13.033      -14.370        3.425       24.829       30.208       11.499      616.493      912.502      132.234        0.102        0.083       19.400       14.140        0.531      338.347       10.938      859.271
11/22/2014  01:57:00       57.092       21.265       15.784       24.910       25.702       13.378      620.495      660.608      178.973        0.271        0.073       60.923       16.381        0.072      338.333       10.913      859.219
11/22/2014  01:58:00       30.142       23.845       13.257       33.924       23.729       11.060     1150.856      563.081      122.332        0.174        0.092       38.433       10.025        0.068      338.360       10.958      859.166
11/22/2014  01:59:00       26.606      -16.440       36.992       54.908       86.667       57.316     3014.941     7511.124     3285.167        0.808        0.691       31.276       71.525        5.230      338.420       11.059      859.240
11/22/2014  02:00:00       50.897      -18.077       40.011       57.868       80.537       49.076     3348.652     6486.195     2408.411        0.838        0.612       54.011       58.050        1.155      338.551       11.279      859.250
11/22/2014  02:01:00       98.410     -112.315        4.941       73.443       99.158       52.467     5393.860     9832.345     2752.780        2.015        0.899      149.329       59.719        0.160      338.801       11.698      859.210
11/22/2014  02:02:00       59.545       32.353       73.594       71.761       60.530       48.087     5149.624     3663.854     2312.327        1.056        0.556       67.767       50.172        0.548      338.759       11.628      859.189
11/22/2014  02:03:00       -3.438       28.790       73.134       28.054       50.642       32.234      787.028     2564.637     1039.009        0.529        0.220       28.994       32.361        1.246      338.673       11.484      859.204
11/22/2014  02:04:00        3.572      -47.289       44.919       60.149       93.832       53.090     3617.957     8804.364     2818.536        0.975        0.762       47.424       59.300        1.564      338.753       11.618      859.233
11/22/2014  02:05:00      -23.657      -60.083        7.034       50.336       49.007       35.047     2533.697     2401.656     1228.296        0.519        0.308       64.572       24.054        0.139      338.874       11.822      859.234
11/22/2014  02:06:00       -3.141       52.125       94.730       36.913       57.653       49.795     1362.543     3323.867     2479.586        0.943        0.358       52.219       38.772        0.551      338.669       11.477      859.142
11/22/2014  02:07:00       99.439      -33.748       54.247       79.809      112.823       71.050     6369.462    12728.917     5048.054        1.905        1.207      105.010       77.266        0.541      338.566       11.305      859.062
11/22/2014  02:08:00       36.600      115.578      129.403       65.739       60.266       53.239     4321.678     3632.022     2834.361        2.111        0.539      121.234       45.278        0.139      338.424       11.063      858.991
11/22/2014  02:09:00      142.606       62.152       51.797       81.333       83.917       61.538     6615.014     7042.038     3786.929        2.216        0.872      155.561       56.157        0.130      338.098       10.516      858.962
11/22/2014  02:10:00       94.942       40.632       22.741       55.272       53.014       38.074     3054.977     2810.522     1449.635        0.925        0.366      103.271       24.608        0.057      337.890       10.169      859.001
11/22/2014  02:11:00       64.898       58.117        3.857       38.085       38.547       33.235     1450.463     1485.893     1104.583        0.582        0.202       87.116       22.285        0.065      337.779        9.984      858.992
11/22/2014  02:12:00       62.931       43.367       15.042       45.479       38.908       27.441     2068.344     1513.800      753.012        0.520        0.217       76.426       15.049        0.039      337.724        9.890      858.886
11/22/2014  02:13:00       36.616      105.836      -19.121       39.564       62.515       29.465     1565.286     3908.068      868.187        0.962        0.317      111.991       30.298        0.073      337.695        9.844      858.864
11/22/2014  02:14:00       11.989       84.869      -12.045       32.016       49.984       25.271     1025.028     2498.441      638.607        0.583        0.208       85.712       25.080        0.086      337.647        9.763      858.912
11/22/2014  02:15:00      -24.723       13.132       -4.151       55.417       40.914       27.751     3071.050     1673.971      770.124        0.316        0.276       27.994       26.803        0.917      337.764        9.959      859.038
11/22/2014  02:16:00      -42.700       51.981      -13.392       24.240       33.772       18.369      587.597     1140.530      337.413        0.338        0.103       67.271       13.627        0.041      337.785        9.993      859.098
11/22/2014  02:17:00       30.322      173.136      -32.173       36.004       39.439       22.709     1296.253     1555.456      515.700        1.765        0.168      175.772       16.895        0.009      337.711        9.866      858.991
11/22/2014  02:18:00      -25.848      106.126      -24.243       38.835       31.510       19.521     1508.139      992.898      381.082        0.770        0.144      109.229       19.492        0.032      337.900       10.186      859.103
11/22/2014  02:19:00        1.184       84.264        2.427       45.565       28.926       18.622     2076.193      836.691      346.769        0.518        0.163       84.272       11.441        0.018      337.834       10.074      859.178
11/22/2014  02:20:00       56.034       66.119        0.468       46.690       36.041       29.250     2179.982     1298.923      855.544        0.592        0.217       86.669       23.040        0.071      337.708        9.864      859.098
11/22/2014  02:21:00      131.524       66.402        5.691       32.068       28.247       29.061     1028.339      797.904      844.524        1.220        0.134      147.336       23.460        0.025      337.692        9.838      859.152
11/22/2014  02:22:00      120.481       77.806        7.856       42.949       30.180       26.618     1844.618      910.815      708.522        1.205        0.173      143.420       15.062        0.011      337.681        9.819      859.149
11/22/2014  02:23:00       14.249       41.548      -14.700       35.261       39.438       25.159     1243.333     1555.350      632.985        0.279        0.172       43.924       21.533        0.240      337.689        9.833      859.204
11/22/2014  02:24:00      -14.742        5.940      -13.284       29.753       31.197       14.550      885.222      973.228      211.717        0.125        0.104       15.894       14.611        0.845      337.782        9.989      859.236
11/22/2014  02:25:00       22.711       20.505       10.012       28.118       21.810       14.928      790.650      475.690      222.838        0.126        0.074       30.598        7.626        0.062      337.733        9.906      859.164
11/22/2014  02:26:00       51.128       46.042        7.964       29.066       17.215       20.852      844.852      296.358      434.825        0.319        0.079       68.804       11.809        0.029      337.715        9.875      859.090
11/22/2014  02:27:00       34.043       29.280        2.607       16.628       14.627       12.817      276.480      213.945      164.277        0.134        0.033       44.903       10.620        0.056      337.735        9.910      859.124
11/22/2014  02:28:00       59.045       40.731       10.026       19.021       28.312       19.923      361.788      801.556      396.930        0.340        0.078       71.731       12.530        0.031      337.864       10.126      859.103
11/22/2014  02:29:00      133.782      110.426       17.869       28.346       30.757       30.945      803.491      946.009      957.623        1.656        0.135      173.469       12.536        0.005      337.827       10.064      858.983
11/22/2014  02:30:00       60.027       34.488       16.487       74.873       44.246       44.264     5605.904     1957.729     1959.293        0.729        0.476       69.229       32.263        0.217      337.984       10.328      859.061
11/22/2014  02:31:00      158.620       99.946       62.446       51.817       46.122       52.782     2685.029     2127.198     2785.955        2.332        0.380      187.482       41.884        0.050      337.851       10.102      859.049
11/22/2014  02:32:00      113.790      128.502      107.110      105.161       91.544       75.632    11058.844     8380.240     5720.247        3.304        1.258      171.642       68.757        0.160      337.902       10.187      858.796
11/22/2014  02:33:00       73.570       27.839       29.679       83.557       55.188       46.419     6981.739     3045.738     2154.752        0.962        0.609       78.661       32.883        0.175      337.817       10.046      858.769
11/22/2014  02:34:00       62.090       75.793       83.714       71.227       65.264       49.472     5073.333     4259.416     2447.463        1.419        0.589       97.978       41.298        0.178      337.903       10.190      858.713
11/22/2014  02:35:00       45.240       46.533       25.890       45.939       45.610       46.629     2110.373     2080.276     2174.288        0.562        0.318       64.900       24.988        0.148      337.979       10.320      858.679
11/22/2014  02:36:00      -92.430       99.112      -26.477       88.541       47.452       31.818     7839.479     2251.708     1012.400        1.508        0.555      135.523       40.074        0.087      337.950       10.269      858.744
11/22/2014  02:37:00     -136.169       93.944      -30.147       36.994       38.195       23.984     1368.569     1458.888      575.219        1.584        0.170      165.431       20.812        0.016      337.952       10.272      858.675
11/22/2014  02:38:00     -102.274       93.605      -28.303       39.582       41.179       24.208     1566.764     1695.731      586.029        1.193        0.192      138.643       13.054        0.009      337.999       10.351      858.552
11/22/2014  02:39:00       58.608       71.401      -11.768       80.741       29.581       31.115     6519.049      875.014      968.162        0.852        0.418       92.374       31.490        0.116      338.205       10.698      858.663
11/22/2014  02:40:00       32.705       58.999       79.504       50.414       44.826       33.712     2541.620     2009.358     1136.485        0.828        0.284       67.457       28.603        0.180      338.300       10.857      858.631
11/22/2014  02:41:00       23.507      -19.113       29.902       32.305       49.067       37.029     1043.638     2407.548     1371.164        0.332        0.241       30.297       36.340        1.439      338.476       11.154      858.679
11/22/2014  02:42:00       -0.732       54.677       80.641       23.188       33.354       19.934      537.673     1112.518      397.361        0.577        0.102       54.682       19.668        0.129      338.338       10.922      858.658
11/22/2014  02:43:00        6.028       23.148       42.195       26.850       41.306       34.269      720.935     1706.153     1174.395        0.298        0.180       23.920       27.581        1.329      338.327       10.903      858.643
11/22/2014  02:44:00      -30.697       29.521       -2.112       37.627       68.378       26.881     1415.791     4675.600      722.586        0.431        0.341       42.589       35.930        0.712      338.061       10.459      858.680
11/22/2014  02:45:00     -141.747       11.020      -20.892       41.921       57.902       26.722     1757.339     3352.678      714.057        1.324        0.291      142.175       20.508        0.021      338.283       10.829      858.862
11/22/2014  02:46:00     -103.144      -57.269        0.269       76.956       51.423       33.491     5922.185     2644.317     1121.674        1.180        0.484      117.976       45.273        0.147      337.864       10.125      858.953
11/22/2014  02:47:00       65.692       99.131       16.278       62.288       54.704       40.701     3879.790     2992.523     1656.549        1.147        0.426      118.922       40.681        0.117      337.998       10.352      858.731
11/22/2014  02:48:00      103.342       62.575       10.102       77.971       39.377       38.304     6079.481     1550.579     1467.232        1.190        0.455      120.811       20.071        0.028      337.956       10.280      858.499
11/22/2014  02:49:00      -35.233       59.211      -19.503       72.438       73.714       18.423     5247.208     5433.740      339.399        0.807        0.551       68.901       15.366        0.050      337.977       10.316      858.628
11/22/2014  02:50:00      -59.453      -39.993        4.886       87.988       44.936       24.893     7741.909     2019.223      619.670        0.777        0.519       71.652       33.881        0.224      337.742        9.921      858.787
11/22/2014  02:51:00       39.315       91.539       75.591       60.554       45.605       54.566     3666.838     2079.860     2977.406        1.218        0.436       99.624       44.759        0.202      337.891       10.170      858.690
11/22/2014  02:52:00       73.361       37.994        6.278       70.094       45.542       32.828     4913.099     2074.072     1077.708        0.746        0.403       82.615       14.272        0.030      337.897       10.182      858.645
11/22/2014  02:53:00       27.543       73.325        2.460       36.335       51.350       32.548     1320.240     2636.788     1059.394        0.558        0.251       78.327       30.635        0.153      337.957       10.282      858.745
11/22/2014  02:54:00      116.333      104.492       -3.759       87.069       57.155       38.335     7580.960     3266.732     1469.556        1.839        0.616      156.371       29.610        0.036      337.952       10.272      858.673
11/22/2014  02:55:00      212.679      116.235        8.725       79.761       55.850       48.201     6361.799     3119.233     2323.353        3.531        0.590      242.369       41.086        0.029      337.831       10.067      858.470
11/22/2014  02:56:00      -33.186      -27.039       10.640       32.958       34.396       30.707     1086.231     1183.102      942.892        0.258        0.161       42.807       31.492        0.541      337.723        9.889      858.496
11/22/2014  02:57:00        5.745       31.905      -10.941       42.102       38.212       15.396     1772.570     1460.154      237.036        0.232        0.173       32.418       15.788        0.237      337.968       10.301      858.579
11/22/2014  02:58:00       89.309       63.597       19.337       29.772       27.953       23.544      886.367      781.376      554.300        0.731        0.111      109.639       18.269        0.028      337.980       10.320      858.471
11/22/2014  02:59:00      134.833       75.777       20.568       34.827       39.314       35.006     1212.890     1545.622     1225.396        1.416        0.199      154.668       24.824        0.026      338.200       10.690      858.593
11/22/2014  03:00:00       78.979      131.406       86.918       52.838       47.898       49.383     2791.895     2294.262     2438.658        1.929        0.376      153.314       43.279        0.080      338.026       10.397      858.449
11/22/2014  03:01:00       40.238      121.835      132.440       62.106       67.143       56.851     3857.095     4508.133     3232.061        2.280        0.580      128.308       51.087        0.159      338.031       10.406      858.163
11/22/2014  03:02:00       96.894      124.877      142.987       97.635       76.273       72.275     9532.564     5817.606     5223.604        3.300        1.029      158.059       72.724        0.212      338.077       10.481      858.076
11/22/2014  03:03:00      103.083      115.989      104.669       93.230       66.473       70.684     8691.782     4418.614     4996.250        2.657        0.905      155.176       64.882        0.175      338.022       10.390      857.810
11/22/2014  03:04:00      -77.975       61.177      -15.214      100.497       69.673       56.826    10099.560     4854.364     3229.250        1.411        0.909       99.109       60.571        0.374      338.139       10.588      857.778
11/22/2014  03:05:00     -103.809       56.974      -37.437       48.600       48.333       22.496     2361.977     2336.042      506.060        1.031        0.260      118.416       14.137        0.014      338.203       10.695      857.924
11/22/2014  03:06:00       96.657       89.816       12.507       87.751       41.038       40.222     7700.204     1684.133     1617.773        1.428        0.550      131.945       35.658        0.073      338.211       10.709      857.840
11/22/2014  03:07:00      122.727       62.801       20.963       79.849       64.927       46.049     6375.939     4215.496     2120.514        1.608        0.636      137.862       30.830        0.050      338.181       10.655      857.573
11/22/2014  03:08:00       66.537     -114.839       -4.084       80.549       58.783       39.321     6488.166     3455.409     1546.123        1.456        0.574      132.722       35.085        0.070      338.193       10.677      857.568
11/22/2014  03:09:00       36.283      -13.313       43.840       44.656       76.669       47.468     1994.191     5878.205     2253.225        0.677        0.506       38.648       55.941        2.095      338.219       10.721      857.605
11/22/2014  03:10:00        8.856       10.059       11.717       30.957       49.275       37.091      958.334     2428.013     1375.759        0.254        0.238       13.402       19.212        2.055      338.304       10.862      857.776
11/22/2014  03:11:00     -127.845       53.669      -32.204       62.090       36.230       21.817     3855.190     1312.582      475.960        1.295        0.282      138.653       28.689        0.043      338.502       11.196      857.771
11/22/2014  03:12:00      -29.511      125.610      -11.924       50.353       55.350       37.640     2535.386     3063.648     1416.741        1.190        0.351      129.030       30.435        0.056      338.351       10.942      857.788
11/22/2014  03:13:00       37.151      129.085       -4.678       45.053       72.209       48.765     2029.786     5214.164     2378.061        1.384        0.481      134.325       44.125        0.108      338.416       11.052      857.847
11/22/2014  03:14:00       62.929       90.043       -0.390       52.246       60.640       38.008     2729.618     3677.165     1444.624        0.996        0.393      109.854       35.377        0.104      338.401       11.027      857.914
11/22/2014  03:15:00       30.432       46.223       -0.504       46.543       43.973       30.023     2166.245     1933.619      901.351        0.403        0.250       55.341       22.204        0.161      338.383       10.997      857.883
11/22/2014  03:16:00      -47.909       82.123      -14.846       33.655       31.782       29.971     1132.678     1010.112      898.249        0.615        0.152       95.076       11.138        0.014      338.440       11.093      857.928
11/22/2014  03:17:00      -51.996       67.185      -14.466       31.584       57.295       25.527      997.521     3282.689      651.649        0.618        0.247       84.955       22.908        0.073      338.442       11.097      858.009
11/22/2014  03:18:00      -83.103      148.818      -23.037       61.497       86.482       34.050     3781.831     7479.140     1159.394        2.100        0.621      170.449       43.558        0.065      338.456       11.118      858.007
11/22/2014  03:19:00     -171.943       11.346      -28.319       73.587       67.697       34.906     5415.086     4582.944     1218.448        2.085        0.561      172.317       28.764        0.028      338.638       11.424      858.015
11/22/2014  03:20:00       -1.476      220.933      -34.479       46.545      108.714       37.317     2166.462    11818.812     1392.548        3.269        0.769      220.938       48.900        0.049      338.728       11.573      858.019
11/22/2014  03:21:00      -32.926      177.600      -18.412       58.443       56.045       33.818     3415.609     3141.009     1143.629        2.033        0.385      180.626       33.900        0.035      338.737       11.590      857.941
11/22/2014  03:22:00       85.386       60.334       16.451       62.458       38.437       36.578     3901.040     1477.378     1337.978        0.896        0.336      104.551       33.051        0.100      338.534       11.249      857.782
11/22/2014  03:23:00     -107.099      -30.951       -1.710      104.956       52.861       30.920    11015.726     2794.233      956.047        1.360        0.738      111.482       37.732        0.115      338.494       11.183      857.764
11/22/2014  03:24:00     -233.123      -21.651      -16.892       89.232       82.991       36.304     7962.330     6887.561     1317.975        3.563        0.808      234.126       37.768        0.026      338.694       11.518      857.736
11/22/2014  03:25:00     -239.237      -12.192       -9.484       94.887       81.201       47.671     9003.603     6593.596     2272.509        3.767        0.893      239.547       47.956        0.040      339.591       13.025      857.649
11/22/2014  03:26:00     -218.854     -117.213      -10.185      129.925       67.757       38.468    16880.623     4590.974     1479.789        4.234        1.148      248.266       43.047        0.030      339.546       12.950      857.749
11/22/2014  03:27:00      -33.732        7.304       39.559       94.020       88.900       56.933     8839.784     7903.220     3241.390        1.137        0.999       34.514       61.341        3.159      339.299       12.537      857.674
11/22/2014  03:28:00     -254.232      -72.638      -16.640      109.049       83.640       41.657    11891.671     6995.674     1735.315        4.540        1.031      264.405       26.967        0.010      339.644       13.115      857.726
11/22/2014  03:29:00     -311.276      -31.773      -30.845       92.944      130.793       49.612     8638.620    17106.776     2461.389        6.352        1.410      312.893       34.763        0.012      339.145       12.275      857.794
11/22/2014  03:30:00     -231.636      235.943      -52.960       84.890       87.284       48.650     7206.229     7618.538     2366.843        6.466        0.860      330.643       45.823        0.019      339.056       12.126      857.699
11/22/2014  03:31:00     -173.188       72.864      -25.603       50.422       95.482       47.369     2542.333     9116.835     2243.813        2.493        0.695      187.891       35.358        0.035      338.968       11.977      857.696
11/22/2014  03:32:00     -279.164      -51.921      -17.149       77.262       85.564       52.904     5969.403     7321.177     2798.784        4.850        0.804      283.952       43.578        0.024      339.171       12.319      857.813
11/22/2014  03:33:00     -238.263      -54.848       -7.370       77.689       61.955       37.728     6035.556     3838.425     1423.426        3.556        0.565      244.494       37.285        0.023      338.857       11.791      857.935
11/22/2014  03:34:00     -237.112      -45.647       -6.975      109.115       81.508       47.041    11906.099     6643.629     2212.863        3.955        1.038      241.466       51.730        0.046      338.996       12.025      857.904
11/22/2014  03:35:00     -289.255      -40.952      -23.696      114.707       93.420       56.691    13157.613     8727.361     3213.847        5.550        1.255      292.139       53.010        0.033      339.071       12.149      857.857
11/22/2014  03:36:00     -296.183      -80.562      -12.869      105.702      108.191       56.796    11172.903    11705.221     3225.777        6.024        1.305      306.944       56.741        0.034      339.446       12.781      857.809
11/22/2014  03:37:00     -333.587      -20.167      -41.032      100.617       70.985       46.760    10123.876     5038.911     2186.533        6.536        0.867      334.196       41.659        0.016      339.539       12.937      857.762
11/22/2014  03:38:00     -343.675      -86.267      -24.486       87.248      113.727       47.299     7612.176    12933.863     2237.214        7.446        1.139      354.337       35.141        0.010      339.392       12.689      857.788
11/22/2014  03:39:00     -353.036      -87.111      -26.216      147.682       98.389       74.802    21809.849     9680.397     5595.411        8.499        1.854      363.624       77.155        0.045      339.256       12.461      857.885
11/22/2014  03:40:00     -289.081     -134.569      -26.031      155.549      111.405       83.889    24195.420    12411.018     7037.395        7.299        2.182      318.868       79.771        0.063      339.217       12.397      857.944
11/22/2014  03:41:00     -293.449      -85.550       -6.647      150.459      136.875       80.108    22637.897    18734.868     6417.365        7.062        2.390      305.665       85.464        0.078      339.245       12.444      858.006
11/22/2014  03:42:00     -184.089     -161.542      -11.412      108.187       72.941       45.441    11704.495     5320.386     2064.900        3.960        0.954      244.918       50.992        0.043      339.254       12.459      857.961
11/22/2014  03:43:00      -69.966      -94.365       19.904       87.908       82.452       51.955     7727.876     6798.348     2699.299        1.571        0.861      117.473       56.676        0.233      339.276       12.498      857.846
11/22/2014  03:44:00      -85.258      -31.044        3.084       85.624       66.756       34.622     7331.398     4456.416     1198.709        1.061        0.649       90.734       35.384        0.152      339.269       12.486      857.788
11/22/2014  03:45:00     -239.550     -148.953      -15.619      100.087       80.987       44.509    10017.468     6558.974     1981.060        4.918        0.928      282.084       43.228        0.023      339.378       12.666      857.719
11/22/2014  03:46:00     -122.161     -141.223       -1.203       92.351       78.853       44.083     8528.656     6217.739     1943.271        2.578        0.834      186.728       45.641        0.060      339.326       12.579      857.605
11/22/2014  03:47:00     -125.856      -90.662        0.823       95.358       62.723       41.229     9093.109     3934.209     1699.796        1.939        0.736      155.110       47.078        0.092      339.362       12.640      857.526
11/22/2014  03:48:00     -182.881     -122.683       -3.335       90.241       61.435       46.357     8143.447     3774.270     2148.959        3.128        0.703      220.220       46.549        0.045      339.306       12.545      857.560
11/22/2014  03:49:00     -248.536     -186.760       -0.035      138.928      111.707       61.783    19301.081    12478.354     3817.096        6.612        1.780      310.885       62.699        0.041      339.289       12.518      857.558
11/22/2014  03:50:00     -256.488     -165.533       -9.444      126.397      129.250       59.123    15976.191    16705.593     3495.570        6.472        1.809      305.265       62.448        0.042      339.692       13.197      857.405
11/22/2014  03:51:00     -126.746     -140.921        2.764      106.727      129.549       50.199    11390.731    16782.983     2519.911        3.331        1.535      189.534       55.774        0.087      339.631       13.093      857.246
11/22/2014  03:52:00     -112.580     -117.011       -0.575       83.080       97.481       40.335     6902.294     9502.490     1626.896        2.220        0.902      162.376       43.688        0.072      339.551       12.959      857.194
11/22/2014  03:53:00     -144.083     -197.674        5.002       89.376       91.944       46.228     7987.997     8453.651     2137.040        3.922        0.929      244.612       47.709        0.038      339.732       13.264      857.197
11/22/2014  03:54:00     -191.282     -139.512       -7.276       88.679       77.279       42.276     7863.995     5972.018     1787.291        3.586        0.781      236.754       42.495        0.032      339.629       13.088      857.239
11/22/2014  03:55:00     -193.973      -82.562       -4.275       91.734       77.239       52.629     8415.145     5965.917     2769.779        3.080        0.858      210.813       51.026        0.059      339.601       13.042      857.316
11/22/2014  03:56:00     -222.507      -62.907        4.339      124.895      115.951       67.873    15598.672    13444.577     4606.776        4.356        1.683      231.229       66.603        0.083      339.708       13.223      857.406
11/22/2014  03:57:00     -230.680      -65.617       -3.361      155.525      121.752       67.121    24187.982    14823.614     4505.287        5.051        2.176      239.831       68.618        0.082      339.713       13.232      857.352
11/22/2014  03:58:00     -121.537      -64.526       22.624      101.388       66.822       50.973    10279.477     4465.123     2598.261        1.839        0.867      137.604       49.372        0.129      339.685       13.186      857.313
11/22/2014  03:59:00     -166.180     -115.799       -3.874       71.104       68.064       41.136     5055.804     4632.691     1692.156        2.621        0.569      202.547       33.462        0.027      339.706       13.220      857.338
11/22/2014  04:00:00     -201.474      -75.439       -2.854       64.381       75.560       38.209     4144.864     5709.318     1459.951        2.880        0.566      215.134       32.566        0.023      339.732       13.264      857.392
11/22/2014  04:01:00     -223.913      -58.281       -1.521       92.026       73.945       44.860     8468.728     5467.852     2012.392        3.474        0.797      231.374       44.834        0.038      339.721       13.245      857.477
11/22/2014  04:02:00     -190.135      -52.456       -8.137       88.694       64.138       44.716     7866.705     4113.691     1999.483        2.647        0.699      197.238       44.897        0.052      339.672       13.164      857.527
11/22/2014  04:03:00     -191.676      -22.630        3.998      101.296       67.147       53.837    10260.881     4508.727     2898.473        2.746        0.883      193.007       52.012        0.073      339.665       13.152      857.486
11/22/2014  04:04:00     -246.749      -98.752       -3.073       83.340       67.459       44.508     6945.604     4550.703     1980.950        4.206        0.674      265.776       41.490        0.024      339.568       12.987      857.457
11/22/2014  04:05:00     -162.696      -47.486       -3.464       85.676       59.854       42.936     7340.411     3582.499     1843.496        2.075        0.638      169.484       48.382        0.081      339.575       13.000      857.424
11/22/2014  04:06:00     -204.192       -0.097      -22.386       70.689       61.026       32.721     4996.870     3724.221     1070.653        2.599        0.490      204.192       31.379        0.024      339.886       13.524      857.418
11/22/2014  04:07:00     -200.057      -49.051       -9.006      101.739      100.722       45.248    10350.894    10145.007     2047.395        3.252        1.127      205.982       53.243        0.067      339.797       13.373      857.442
11/22/2014  04:08:00     -213.273     -147.488       -4.189      125.742       79.645       56.504    15811.051     6343.296     3192.703        4.630        1.267      259.303       61.719        0.057      339.597       13.036      857.513
11/22/2014  04:09:00     -103.014      -78.651       -6.143       91.457       58.091       40.406     8364.447     3374.530     1632.636        1.510        0.669      129.607       46.803        0.130      339.579       13.009      857.514
11/22/2014  04:10:00      -84.826      -23.011       11.326       74.560       77.442       45.136     5559.229     5997.310     2037.298        1.072        0.680       87.892       43.507        0.245      339.637       13.107      857.488
11/22/2014  04:11:00      -93.554      -30.683       -2.794       76.973       71.606       43.146     5924.767     5127.463     1861.536        1.131        0.646       98.457       41.698        0.179      339.718       13.243      857.472
11/22/2014  04:12:00      -80.734      -50.893        8.987       74.255       80.650       45.185     5513.879     6504.452     2041.670        1.162        0.703       95.437       49.435        0.268      339.559       12.976      857.454
11/22/2014  04:13:00     -232.063      -40.143      -11.680      104.601       69.376       40.729    10941.281     4813.098     1658.836        3.650        0.871      235.510       44.908        0.036      339.691       13.196      857.479
11/22/2014  04:14:00     -293.119      -37.025      -36.519       76.997       73.526       39.827     5928.477     5406.016     1586.208        5.077        0.646      295.448       42.366        0.021      339.739       13.275      857.524
11/22/2014  04:15:00     -307.822      -42.253      -38.227       83.015       68.153       39.810     6891.551     4644.784     1584.859        5.556        0.656      310.709       40.981        0.017      339.642       13.112      857.575
11/22/2014  04:16:00     -367.158      -47.877      -40.554       86.510       70.127       46.380     7484.018     4917.762     2151.081        7.664        0.728      370.266       41.100        0.012      339.620       13.074      857.580
11/22/2014  04:17:00     -239.665      -96.289      -11.977      111.355       75.047       63.963    12399.848     5631.988     4091.246        4.448        1.106      258.284       62.844        0.059      339.559       12.972      857.571
11/22/2014  04:18:00     -271.361      -43.175      -30.523       69.435       68.141       42.469     4821.259     4643.172     1803.654        4.385        0.563      274.774       27.456        0.010      339.658       13.138      857.584
11/22/2014  04:19:00     -180.984      -54.112       -5.840       67.480       73.292       40.409     4553.500     5371.768     1632.926        2.364        0.578      188.901       41.524        0.048      339.608       13.055      857.565
11/22/2014  04:20:00     -233.306      -22.681      -17.153       80.712       87.833       44.803     6514.446     7714.721     2007.300        3.574        0.812      234.405       31.546        0.018      339.691       13.194      857.528
11/22/2014  04:21:00     -231.543      -46.948      -10.023      110.556       83.484       54.284    12222.672     6969.629     2946.790        3.902        1.107      236.254       62.601        0.070      339.671       13.161      857.600
11/22/2014  04:22:00     -258.078      -57.714       -8.211       88.722      103.480       47.644     7871.605    10708.197     2269.951        4.542        1.042      264.453       39.720        0.023      339.692       13.196      857.624
11/22/2014  04:23:00     -135.641      -10.104        7.705       94.310       64.056       40.247     8894.287     4103.185     1619.783        1.659        0.731      136.017       47.059        0.120      339.624       13.085      857.612
11/22/2014  04:24:00     -114.451      -27.743       -0.447       59.606       55.033       27.090     3552.914     3028.665      733.876        1.059        0.366      117.765       25.322        0.046      339.586       13.019      857.589
11/22/2014  04:25:00      -67.773     -162.178        1.439       45.803       74.177       31.068     2097.908     5502.293      965.233        1.973        0.428      175.770       22.837        0.017      339.526       12.917      857.598
11/22/2014  04:26:00      -83.560      -58.560       -6.868       34.844       39.086       31.497     1214.113     1527.676      992.078        0.710        0.187      102.037       19.428        0.036      339.531       12.927      857.558
11/22/2014  04:27:00      -54.870      -58.483       -1.042       39.284       41.405       21.301     1543.196     1714.359      453.743        0.507        0.186       80.193       22.077        0.076      339.518       12.906      857.536
11/22/2014  04:28:00      -96.874     -125.359       13.113       94.878       84.872       54.883     9001.847     7203.196     3012.140        2.224        0.961      158.428       47.513        0.090      339.529       12.921      857.585
11/22/2014  04:29:00     -301.084     -188.661      -15.092      203.758      114.171       80.108    41517.394    13034.950     6417.280        9.371        3.048      355.309       78.216        0.048      339.557       12.969      857.569
11/22/2014  04:30:00     -214.726     -107.392        3.851      131.475       98.460       62.151    17285.762     9694.432     3862.803        4.424        1.542      240.084       70.606        0.086      339.561       12.976      857.551
11/22/2014  04:31:00     -104.284     -137.446       13.372       75.464       97.079       44.807     5694.891     9424.245     2007.711        2.353        0.856      172.530       40.266        0.054      339.613       13.064      857.516
11/22/2014  04:32:00     -223.982     -126.134      -14.047      133.551       78.954       48.162    17835.956     6233.670     2319.623        4.633        1.319      257.056       42.659        0.028      339.634       13.099      857.467
11/22/2014  04:33:00     -226.539     -153.143       10.167      219.981      191.148       87.255    48391.608    36537.735     7613.472        8.369        4.627      273.445      120.957        0.196      339.641       13.111      857.543
11/22/2014  04:34:00     -521.837     -223.464      -19.939      248.510      175.182      106.481    61757.407    30688.758    11338.112       21.320        5.189      567.671      106.821        0.035      339.708       13.224      857.550
11/22/2014  04:35:00     -293.573     -216.932      -21.722      178.825      160.465       74.644    31978.473    25748.978     5571.742        9.849        3.165      365.026       71.625        0.039      339.710       13.226      857.612
11/22/2014  04:36:00     -181.530     -165.734       12.578      180.344      148.164       87.022    32523.796    21952.577     7572.854        6.130        3.102      245.806       82.570        0.113      339.666       13.152      857.489
11/22/2014  04:37:00     -219.054     -143.740        4.552      118.779      105.324       73.323    14108.436    11093.092     5376.230        4.962        1.529      262.003       67.272        0.066      339.664       13.148      857.411
11/22/2014  04:38:00     -270.122      -98.148        0.377      168.036      123.331       75.249    28236.016    15210.479     5662.430        6.584        2.455      287.400       82.587        0.083      339.653       13.131      857.381
11/22/2014  04:39:00     -425.299     -133.700      -17.939      148.733      101.652       83.238    22121.603    10333.034     6928.582       11.922        1.969      445.820       83.568        0.035      339.619       13.074      857.391
11/22/2014  04:40:00     -423.780     -207.283      -10.665      189.555      177.656       70.266    35931.216    31561.729     4937.275       14.754        3.622      471.758       75.712        0.026      339.591       13.025      857.343
11/22/2014  04:41:00     -359.067     -133.486       -4.767      240.932      147.843       85.751    58047.998    21857.495     7353.199       11.700        4.363      383.077      104.940        0.075      339.585       13.018      857.193
11/22/2014  04:42:00     -249.482     -179.398        8.058      198.054      142.257       78.340    39225.482    20237.057     6137.138        8.003        3.280      307.286      100.807        0.108      339.527       12.919      857.028
11/22/2014  04:43:00     -414.967     -237.817       -4.532      264.862      164.659      104.719    70152.030    27112.457    10966.058       16.848        5.412      478.283      124.156        0.067      339.496       12.866      856.952
11/22/2014  04:44:00     -362.026     -232.736      -13.171      173.852      108.012       77.009    30224.393    11666.656     5930.438       11.660        2.391      430.382       79.226        0.034      339.487       12.850      857.051
11/22/2014  04:45:00     -274.134     -155.790       -5.347      142.838      137.825       90.979    20402.629    18995.660     8277.122        7.355        2.384      315.309       79.974        0.064      339.433       12.760      857.123
11/22/2014  04:46:00     -287.360     -136.269      -14.032      184.379      125.247       76.700    33995.724    15686.864     5882.829        7.844        2.778      318.033       90.035        0.080      339.432       12.758      857.193
11/22/2014  04:47:00     -256.903     -117.783       14.424      206.288      151.539       72.151    42554.759    22964.099     5205.773        7.539        3.536      282.616       88.147        0.097      339.472       12.826      857.111
11/22/2014  04:48:00     -349.322     -268.033       -3.187      187.977      167.072       95.170    35335.405    27913.085     9057.316       13.308        3.615      440.304      104.189        0.056      339.434       12.761      856.989
11/22/2014  04:49:00     -293.123     -209.967        1.926      182.106      136.905       79.935    33162.673    18743.107     6389.615        9.414        2.915      360.565       86.073        0.057      339.440       12.771      857.029
11/22/2014  04:50:00     -382.149     -210.662       -6.259      210.791      134.647       89.881    44432.801    18129.797     8078.590       13.053        3.532      436.367      106.127        0.059      339.397       12.699      857.060
11/22/2014  04:51:00     -253.080      -53.451       -2.439      157.451      127.526       70.135    24790.715    16262.858     4918.984        5.643        2.299      258.663       71.739        0.077      339.421       12.739      857.119
11/22/2014  04:52:00     -275.729     -145.808       33.032      241.801      166.711       96.038    58467.607    27792.449     9223.265        9.691        4.774      311.908      121.864        0.153      339.402       12.709      857.092
11/22/2014  04:53:00     -285.352     -212.219      -14.516      133.321      111.999       66.895    17774.440    12543.780     4474.976        8.073        1.740      355.617       60.019        0.028      339.458       12.802      857.072
11/22/2014  04:54:00     -220.808     -168.757       -5.382      157.786      132.478       75.863    24896.319    17550.424     5755.253        6.272        2.410      277.912       85.585        0.095      339.411       12.722      857.046
11/22/2014  04:55:00     -208.147      -85.267       -5.149      146.132       86.745       61.120    21354.699     7524.631     3735.640        4.161        1.631      224.935       58.235        0.067      339.406       12.713      856.929
11/22/2014  04:56:00     -226.669      -66.744       -7.061      112.063      116.609       52.996    12558.087    13597.591     2808.601        4.242        1.448      236.292       49.706        0.044      339.393       12.692      856.943
11/22/2014  04:57:00     -261.426      -85.015       -5.143      101.816      118.323       63.768    10366.423    14000.356     4066.343        5.201        1.422      274.902       47.561        0.030      339.441       12.773      857.012
11/22/2014  04:58:00     -194.652      -70.014       -6.501      150.222      100.352       60.661    22566.640    10070.480     3679.789        3.957        1.816      206.861       71.832        0.121      339.350       12.620      857.059
11/22/2014  04:59:00     -270.310     -151.411       -0.580      206.479      154.612      104.250    42633.488    23904.971    10868.094        8.668        3.870      309.827      112.343        0.131      339.421       12.741      856.994
11/22/2014  05:00:00     -352.851     -188.042      -21.866      178.755      151.305       79.564    31953.356    22893.071     6330.436       11.075        3.059      399.830       82.469        0.043      339.373       12.658      857.018
11/22/2014  05:01:00     -253.391     -137.929      -10.326      196.887      134.713       81.099    38764.363    18147.486     6577.061        7.340        3.174      288.498       81.221        0.079      339.361       12.639      857.127
11/22/2014  05:02:00     -365.342     -187.998      -15.969      188.664      168.047       88.197    35594.173    28239.855     7778.636       12.033        3.581      410.874       86.138        0.044      339.438       12.768      857.158
11/22/2014  05:03:00     -277.367     -143.100      -17.791      148.443      120.593       80.657    22035.372    14542.774     6505.522        7.040        2.154      312.106       76.756        0.060      339.430       12.754      857.160
11/22/2014  05:04:00     -340.925     -219.388      -15.742      192.820      164.040       99.613    37179.435    26909.181     9922.687       11.930        3.701      405.415       96.003        0.056      339.408       12.717      857.229
11/22/2014  05:05:00     -362.003     -253.980      -11.008      228.646      186.029      106.038    52278.844    34606.620    11243.967       14.688        4.906      442.213      119.557        0.073      339.476       12.831      857.291
11/22/2014  05:06:00     -291.702     -238.866       -9.254      174.153      153.171       91.452    30329.275    23461.503     8363.520       10.218        3.108      377.024       91.970        0.060      339.462       12.808      857.262
11/22/2014  05:07:00     -477.379     -174.085      -29.055      212.707      161.758       83.926    45244.106    26165.608     7043.575       16.873        3.923      508.130       87.874        0.030      339.450       12.789      857.256
11/22/2014  05:08:00     -407.448     -166.566      -18.769      196.455      185.121       77.683    38594.407    34269.675     6034.599       13.649        3.945      440.180       91.492        0.043      339.444       12.777      857.263
11/22/2014  05:09:00     -231.781     -155.338        5.763      178.292      113.724       79.502    31788.209    12933.090     6320.554        6.445        2.552      279.020       83.375        0.089      339.440       12.773      857.244
11/22/2014  05:10:00     -307.644     -221.530        3.578      189.291      163.154       80.826    35831.005    26619.222     6532.787       10.634        3.449      379.105       92.932        0.060      339.435       12.762      857.193
11/22/2014  05:11:00     -480.497     -256.153      -17.008      191.279      169.264       98.812    36587.697    28650.316     9763.897       18.588        3.750      544.511      100.673        0.034      339.456       12.799      857.121
11/22/2014  05:12:00     -466.666     -196.397      -22.175      257.851      156.355      108.390    66487.247    24447.032    11748.448       17.974        5.134      506.309      133.132        0.069      339.436       12.766      857.152
11/22/2014  05:13:00     -439.364     -302.960       -7.776      265.185      156.926      117.063    70323.297    24625.837    13703.807       19.675        5.433      533.690      135.378        0.064      339.496       12.865      857.206
11/22/2014  05:14:00     -420.958     -169.752      -31.369      172.448      170.816       87.810    29738.397    29178.163     7710.574       13.680        3.331      453.895       79.214        0.030      339.469       12.820      857.181
11/22/2014  05:15:00     -309.556     -130.929       17.647      177.605      137.802       74.590    31543.687    18989.464     5563.621        8.468        2.805      336.106       82.569        0.060      339.453       12.793      857.185
11/22/2014  05:16:00     -419.839     -199.573      -17.499      176.173      179.075       83.530    31036.908    32067.744     6977.330       14.323        3.504      464.859       88.285        0.036      339.494       12.862      857.174
11/22/2014  05:17:00     -426.982     -289.327       -6.767      286.779      213.269      102.431    82242.294    45483.788    10492.203       20.212        6.911      515.775      123.017        0.057      339.456       12.798      857.203
11/22/2014  05:18:00     -361.555     -197.028      -15.189      245.804      165.862       88.054    60419.418    27510.333     7753.503       13.271        4.784      411.755      116.860        0.081      339.483       12.845      857.231
11/22/2014  05:19:00     -337.336     -189.291       14.504      205.929      179.026      102.510    42406.735    32050.151    10508.384       11.738        4.248      386.816      116.199        0.090      339.485       12.847      857.218
11/22/2014  05:20:00     -218.994     -144.431        5.753      181.139      177.212       82.903    32811.329    31404.201     6872.979        6.996        3.554      262.333       86.971        0.110      339.440       12.772      857.203
11/22/2014  05:21:00     -200.529      -73.595       25.303      236.108      147.164       94.714    55747.216    21657.336     8970.835        6.630        4.319      213.607      124.838        0.342      339.423       12.743      857.161
11/22/2014  05:22:00     -461.777     -152.816      -14.947      198.471      169.455       90.751    39390.807    28714.886     8235.722       15.656        3.817      486.406       98.336        0.041      339.413       12.725      857.101
11/22/2014  05:23:00     -236.323     -113.182        6.658      172.193      129.826       74.692    29650.535    16854.693     5578.854        6.038        2.604      262.028       84.440        0.104      339.358       12.635      857.106
11/22/2014  05:24:00     -401.111     -176.861      -17.384      190.706      148.661       81.892    36368.772    22099.993     6706.277       12.881        3.259      438.372       83.809        0.037      339.374       12.659      857.105
11/22/2014  05:25:00     -360.064     -140.908      -17.198      216.316      154.657       83.592    46792.473    23918.886     6987.627       11.373        3.885      386.653       89.323        0.053      339.318       12.563      857.116
11/22/2014  05:26:00     -145.377      -90.025       19.805      197.010      133.658       90.073    38812.967    17864.458     8113.179        4.720        3.240      170.994      100.779        0.347      339.262       12.473      857.086
11/22/2014  05:27:00     -403.461     -258.548      -11.308      212.300      175.496       97.530    45071.357    30798.795     9512.082       15.755        4.269      479.195      103.895        0.047      339.273       12.490      857.104
11/22/2014  05:28:00     -269.231     -213.530       -2.719      159.459      139.075       81.935    25427.214    19341.779     6713.358        8.477        2.574      343.628       88.462        0.066      339.243       12.440      857.212
11/22/2014  05:29:00     -535.293      -25.092      -26.056      239.413      218.465       82.873    57318.498    47726.877     6867.949       19.986        5.596      535.881       92.714        0.030      339.286       12.512      856.989
11/22/2014  05:30:00     -363.695      -96.659       -5.086      230.958      155.770       83.844    53341.603    24264.166     7029.855       11.312        4.232      376.321       82.844        0.048      339.313       12.556      857.034
11/22/2014  05:31:00     -600.920     -184.121      -16.738      243.606      218.909      118.512    59343.867    47921.204    14045.061       25.827        6.066      628.495      109.799        0.031      339.309       12.549      857.198
11/22/2014  05:32:00     -560.936     -232.939      -41.533      232.685      231.783      113.278    54142.530    53723.201    12831.834       24.564        6.035      607.379      120.219        0.039      339.302       12.539      857.241
11/22/2014  05:33:00     -427.266     -283.817      -10.844      314.243      181.053      125.351    98748.905    32780.085    15712.928       20.520        7.362      512.940      153.152        0.089      339.229       12.415      857.350
11/22/2014  05:34:00     -352.183     -169.283       -8.215      168.285      109.717       82.437    28319.717    12037.773     6795.913        9.995        2.358      390.756       75.064        0.037      339.218       12.399      857.193
11/22/2014  05:35:00     -335.136     -171.342       -0.006      232.373      199.817      102.434    53997.107    39926.743    10492.775       12.302        5.221      376.396      112.505        0.089      339.179       12.333      857.162
11/22/2014  05:36:00     -276.691     -104.206       -6.357      238.254      157.840      111.653    56764.832    24913.454    12466.365        9.078        4.707      295.664      110.272        0.139      339.120       12.233      857.226
11/22/2014  05:37:00     -198.066      -75.864       15.347      168.375      135.443       88.479    28350.050    18344.735     7828.505        4.986        2.726      212.098       88.548        0.174      339.129       12.248      857.212
11/22/2014  05:38:00     -315.928     -159.674       -0.633      245.633      138.281       98.091    60335.751    19121.737     9621.831       10.718        4.454      353.986      103.992        0.086      339.058       12.130      857.215
11/22/2014  05:39:00     -332.974     -202.760       -4.970      224.691      167.977      100.261    50485.881    28216.212    10052.197       12.036        4.438      389.850      109.854        0.079      339.120       12.234      857.274
11/22/2014  05:40:00     -434.766     -186.118      -20.213      205.249      138.016       82.280    42126.998    19048.502     6769.996       14.599        3.397      472.928       84.855        0.032      339.061       12.134      857.335
11/22/2014  05:41:00     -380.352     -203.495      -15.912      248.083      178.890       91.012    61545.024    32001.614     8283.209       14.406        5.091      431.368      110.334        0.065      338.999       12.030      857.352
11/22/2014  05:42:00     -300.786     -233.604      -19.859      239.197      172.482      106.389    57215.171    29750.045    11318.516       12.184        4.914      380.845      101.334        0.071      339.010       12.049      857.296
11/22/2014  05:43:00     -319.260     -212.161       -9.992      237.182      201.113       90.847    56255.367    40446.268     8253.100       12.598        5.248      383.326      108.857        0.081      338.982       12.002      857.279
11/22/2014  05:44:00     -370.716     -174.004       -6.745      204.691      168.467       99.041    41898.527    28381.263     9809.063       12.390        4.004      409.521      117.497        0.082      338.952       11.951      857.252
11/22/2014  05:45:00     -320.161     -155.110       -5.537      163.666      144.408       75.279    26786.634    20853.789     5666.984        8.994        2.665      355.756       80.864        0.052      338.965       11.972      857.291
11/22/2014  05:46:00     -314.996     -122.077      -10.018      180.985      161.891       84.604    32755.601    26208.731     7157.763        9.016        3.306      337.825       84.375        0.062      338.928       11.910      857.303
11/22/2014  05:47:00     -351.264     -108.949       -3.396      219.484      158.370       92.160    48173.236    25080.973     8493.440       10.849        4.087      367.772      101.725        0.077      338.899       11.860      857.315
11/22/2014  05:48:00     -240.101     -154.146        7.139      189.660      119.268       88.224    35970.948    14224.878     7783.553        6.971        2.899      285.324       99.518        0.122      338.837       11.756      857.267
11/22/2014  05:49:00     -236.237     -164.429       10.555      201.076      136.496       85.380    40431.399    18631.269     7289.823        7.464        3.318      287.827      105.421        0.134      338.795       11.688      857.219
11/22/2014  05:50:00     -349.627     -231.208       -9.339      181.661      141.067       79.326    33000.739    19899.968     6292.644       11.748        2.960      419.161       89.922        0.046      338.794       11.684      857.128
11/22/2014  05:51:00     -440.122     -255.570      -32.972      198.958      151.871       82.548    39584.388    23064.867     6814.130       16.477        3.473      508.944       96.908        0.036      338.789       11.676      857.006
11/22/2014  05:52:00     -399.549     -216.246      -31.304      235.602      156.540       97.882    55508.246    24504.852     9580.844       14.847        4.480      454.315      120.582        0.070      338.850       11.779      856.922
11/22/2014  05:53:00     -261.861      -66.289       -9.009      179.585      151.618       84.185    32250.918    22987.895     7087.053        6.767        3.116      270.121       77.962        0.083      338.813       11.716      856.917
11/22/2014  05:54:00     -355.124     -156.742       12.346      231.220      185.173      109.048    53462.805    34289.026    11891.388       12.522        4.982      388.177      122.676        0.100      338.823       11.734      856.937
11/22/2014  05:55:00     -400.802     -250.108      -24.128      200.121      159.198       88.470    40048.476    25344.022     7826.980       14.848        3.661      472.437       91.702        0.038      338.809       11.710      857.011
11/22/2014  05:56:00     -394.409     -215.434        2.129      224.545      172.793       99.432    50420.237    29857.426     9886.801       14.605        4.508      449.411      115.067        0.066      338.819       11.727      856.934
11/22/2014  05:57:00     -394.518     -259.734      -21.423      205.182      198.826      102.429    42099.514    39531.588    10491.781       15.783        4.606      472.342      116.296        0.061      338.859       11.793      856.856
11/22/2014  05:58:00     -411.658      -99.619      -20.469      262.147      184.069       89.490    68721.087    33881.420     8008.542       14.519        5.531      423.540      110.468        0.068      338.881       11.831      856.782
11/22/2014  05:59:00     -399.016     -255.737        1.005      214.873      174.957      101.408    46170.484    30609.932    10283.560       15.582        4.353      473.936      101.822        0.046      338.863       11.799      856.786
11/22/2014  06:00:00     -388.604     -172.411        2.633      268.784      220.669      122.076    72244.753    48694.867    14902.664       15.827        6.792      425.133      138.765        0.107      338.875       11.821      856.729
11/22/2014  06:01:00     -513.324     -314.722      -21.890      268.290      192.909      113.978    71979.774    37213.818    12991.011       24.258        6.109      602.123      119.728        0.040      338.902       11.865      856.701
11/22/2014  06:02:00     -448.543     -190.752      -15.696      224.172      195.680      110.772    50253.196    38290.487    12270.361       16.930        5.041      487.419      130.016        0.071      338.896       11.854      856.711
11/22/2014  06:03:00     -519.861     -213.633       -2.673      228.034      227.520      104.601    51999.489    51765.446    10941.270       21.528        5.735      562.045      103.737        0.034      338.918       11.893      856.680
11/22/2014  06:04:00     -305.533     -128.477        3.941      293.372      224.788      124.151    86066.894    50529.775    15413.526       13.091        7.601      331.447      145.666        0.193      338.909       11.879      856.758
11/22/2014  06:05:00     -356.966     -229.319       -1.736      309.852      276.629      141.252    96008.229    76523.535    19952.195       18.621        9.624      424.278      166.003        0.153      338.932       11.917      856.770
11/22/2014  06:06:00     -434.691     -186.339      -22.317      259.747      172.989      114.712    67468.316    29925.278    13158.930       16.734        5.528      472.947      133.421        0.080      338.962       11.968      856.796
11/22/2014  06:07:00     -372.035     -163.171      -13.534      258.876      166.737       97.724    67016.542    27801.110     9549.911       13.477        5.218      406.245       98.664        0.059      338.971       11.982      856.785
11/22/2014  06:08:00     -412.864     -300.391      -12.306      230.410      165.421      110.012    53088.897    27364.159    12102.565       17.668        4.628      510.579      112.142        0.048      339.002       12.034      856.781
11/22/2014  06:09:00     -413.792     -244.594      -17.295      239.408      187.981      104.896    57316.157    35336.840    11003.241       16.748        5.183      480.677      110.178        0.053      339.022       12.070      856.835
11/22/2014  06:10:00     -375.070     -214.803      -18.312      192.325      193.682       89.083    36988.833    37512.681     7935.830       13.478        4.122      432.224      107.969        0.062      339.014       12.054      856.854
11/22/2014  06:11:00     -369.612     -197.114      -14.428      182.927      166.484       88.096    33462.302    27716.857     7760.969       12.229        3.447      418.887       94.967        0.051      338.967       11.976      856.821
11/22/2014  06:12:00     -619.392     -225.066      -31.136      254.158      220.730      108.515    64596.042    48721.554    11775.534       28.016        6.255      659.015      104.181        0.025      339.072       12.153      856.774
11/22/2014  06:13:00     -413.211     -281.489      -17.274      265.194      194.113      123.769    70327.977    37679.820    15318.874       18.678        6.166      499.979      148.369        0.088      339.020       12.064      856.781
11/22/2014  06:14:00     -450.054     -294.630       -5.876      267.369      202.203      116.599    71486.232    40885.955    13595.245       20.765        6.298      537.917      116.680        0.047      338.961       11.965      856.742
11/22/2014  06:15:00     -406.254     -144.017      -27.000      226.360      162.322      107.606    51238.659    26348.418    11578.977       13.782        4.458      431.026      123.024        0.081      338.974       11.988      856.788
11/22/2014  06:16:00     -547.513     -227.859      -15.723      291.337      204.498      111.688    84877.245    41819.517    12474.104       24.553        6.959      593.035      123.597        0.043      338.993       12.019      856.850
11/22/2014  06:17:00     -523.494     -242.413      -38.416      212.901      199.569      102.097    45327.024    39827.870    10423.858       21.491        4.779      576.897       75.801        0.017      339.021       12.067      856.801
11/22/2014  06:18:00     -380.594     -253.554       -0.386      249.640      213.561      104.199    62320.002    45608.462    10857.394       16.394        5.939      457.320      109.199        0.057      339.050       12.114      856.839
11/22/2014  06:19:00     -427.550     -271.972      -12.244      202.199      177.080      100.327    40884.348    31357.416    10065.479       16.960        4.115      506.723      116.763        0.053      339.009       12.046      856.874
11/22/2014  06:20:00     -413.413     -210.483      -11.549      260.901      164.939      103.042    68069.239    27204.889    10617.571       16.060        5.295      463.911      118.076        0.065      339.066       12.141      856.870
11/22/2014  06:21:00     -511.194     -369.291      -24.467      286.597      217.002      131.482    82137.869    47089.745    17287.450       27.237        7.326      630.630      127.833        0.041      339.265       12.476      856.855
11/22/2014  06:22:00     -335.535     -147.321        1.450      267.007      197.684      100.812    71292.596    39078.802    10163.027       12.739        6.027      366.452      120.642        0.108      339.211       12.385      856.856
11/22/2014  06:23:00     -457.015     -351.479      -22.584      277.929      240.538      123.925    77244.681    57858.689    15357.515       24.166        7.523      576.541      120.919        0.044      339.215       12.393      856.834
11/22/2014  06:24:00     -284.190     -169.383        5.328      222.560      170.170      103.932    49532.869    28957.677    10801.879        9.937        4.465      330.839      121.765        0.135      339.154       12.291      856.800
11/22/2014  06:25:00     -313.163     -242.293      -18.944      187.341      167.166       99.890    35096.582    27944.332     9978.033       11.506        3.651      395.951       98.812        0.062      339.120       12.233      856.739
11/22/2014  06:26:00     -474.617     -184.886       -3.864      331.201      233.063      117.745   109694.230    54318.500    13863.861       21.863        8.894      509.356      139.585        0.075      339.186       12.344      856.723
11/22/2014  06:27:00     -546.343     -216.581      -48.477      221.151      207.941       96.708    48907.955    43239.350     9352.501       22.460        5.075      587.706       90.500        0.024      339.211       12.387      856.672
11/22/2014  06:28:00     -455.743     -183.812      -18.115      213.689      162.654       97.045    45662.907    26456.190     9417.799       16.166        4.077      491.415      105.653        0.046      339.220       12.401      856.647
11/22/2014  06:29:00     -528.459     -247.924      -28.499      274.556      218.777      124.641    75380.730    47863.322    15535.284       24.014        6.939      583.725      120.682        0.043      339.297       12.529      856.625
11/22/2014  06:30:00     -459.873     -246.355      -15.774      317.662      261.027      134.398   100909.140    68135.214    18062.951       22.973        9.355      521.703      165.723        0.101      339.353       12.624      856.643
11/22/2014  06:31:00     -539.742     -188.717      -21.464      263.310      200.810      111.066    69332.053    40324.856    12335.593       22.467        6.100      571.782      122.711        0.046      339.324       12.577      856.646
11/22/2014  06:32:00     -459.836     -213.546      -30.793      210.955      211.799       94.372    44501.991    44858.932     8906.014       17.811        4.913      507.002       99.016        0.038      339.323       12.575      856.718
11/22/2014  06:33:00     -455.386     -244.356       10.822      338.229      212.092      123.010   114398.916    44983.122    15131.404       22.082        8.726      516.804      156.006        0.091      339.359       12.633      856.732
11/22/2014  06:34:00     -426.829     -224.418      -28.121      243.656      263.190      133.055    59368.456    69269.084    17703.728       18.981        7.317      482.230      133.979        0.077      339.513       12.894      856.722
11/22/2014  06:35:00     -336.115     -250.362      -20.082      219.684      167.083      111.820    48261.118    27916.783    12503.775       13.235        4.434      419.111      120.846        0.083      339.427       12.751      856.689
11/22/2014  06:36:00     -392.565     -188.333      -17.916      207.042      140.459       72.606    42866.583    19728.746     5271.638       12.887        3.393      435.404       85.021        0.038      339.381       12.673      856.667
11/22/2014  06:37:00     -364.389     -167.628        1.967      165.908      194.068       87.563    27525.541    37662.224     7667.353       11.685        3.643      401.096       82.185        0.042      339.343       12.608      856.652
11/22/2014  06:38:00     -351.299     -102.086      -12.438      241.531      144.316       71.077    58337.077    20827.227     5051.889       10.908        4.211      365.831       89.485        0.060      339.346       12.613      856.702
11/22/2014  06:39:00     -297.483     -132.798        7.400      171.064      134.795       73.313    29262.929    18169.717     5374.746        7.949        2.640      325.778       81.324        0.062      339.262       12.471      856.675
11/22/2014  06:40:00     -392.987     -188.475      -14.435      244.913      199.301      102.584    59982.284    39720.742    10523.454       15.018        5.511      435.846      111.300        0.065      339.274       12.491      856.616
11/22/2014  06:41:00     -441.838     -258.396      -10.729      251.738      180.558       97.557    63371.997    32601.112     9517.301       18.378        5.275      511.849       89.121        0.030      339.268       12.481      856.570
11/22/2014  06:42:00     -357.076     -158.392      -15.967      232.666      204.820      101.550    54133.563    41951.170    10312.420       12.960        5.320      390.629      111.680        0.082      339.297       12.530      856.548
11/22/2014  06:43:00     -362.923     -179.670       -5.402      243.752      193.362      110.739    59415.150    37388.875    12263.176       13.652        5.453      404.962      116.845        0.083      339.216       12.395      856.556
11/22/2014  06:44:00     -236.224     -144.072       28.544      216.945      183.709      101.023    47065.011    33749.061    10205.589        8.418        4.551      276.692      110.916        0.161      339.214       12.392      856.575
11/22/2014  06:45:00     -323.615     -203.392       -0.210      204.507      198.485      106.751    41823.134    39396.422    11395.849       11.934        4.631      382.224      106.630        0.078      339.222       12.405      856.572
11/22/2014  06:46:00     -463.447     -206.857      -30.430      234.611      203.373      100.239    55042.284    41360.684    10047.794       18.245        5.323      507.516      115.397        0.052      339.282       12.504      856.599
11/22/2014  06:47:00     -556.779     -140.350      -26.282      341.180      287.086      139.881   116403.844    82418.534    19566.823       27.435       10.919      574.195      177.613        0.096      339.423       12.744      856.631
11/22/2014  06:48:00     -548.445     -237.589      -27.350      297.937      274.891      127.642    88766.233    75565.027    16292.531       26.927        9.031      597.696      137.524        0.053      339.476       12.833      856.755
11/22/2014  06:49:00     -500.554     -267.728      -17.988      226.164      191.168       96.551    51150.339    36545.048     9322.075       20.977        4.851      567.656      116.494        0.042      339.387       12.682      856.862
11/22/2014  06:50:00     -466.868     -232.948        0.938      263.521      205.944      110.112    69443.185    42412.972    12124.574       19.808        6.199      521.757      130.339        0.062      339.377       12.665      856.881
11/22/2014  06:51:00     -423.434     -266.294      -13.774      258.103      204.507      108.258    66617.252    41823.261    11719.845       18.526        6.008      500.209       95.310        0.036      339.471       12.823      856.853
11/22/2014  06:52:00     -455.946      -17.946      -20.071      263.199      193.636      119.566    69273.963    37494.959    14296.009       16.481        6.053      456.299      121.947        0.071      339.593       13.029      856.818
11/22/2014  06:53:00     -336.872      -91.037       -4.252      192.878      166.255       81.771    37201.735    27640.594     6686.492        9.664        3.576      348.956       82.017        0.055      339.512       12.892      856.837
11/22/2014  06:54:00     -323.511     -153.281        7.660      224.924      150.015       97.079    50590.643    22504.615     9424.407       10.535        4.126      357.986      103.785        0.084      339.479       12.837      856.776
11/22/2014  06:55:00     -261.330      -75.574        3.903      212.241      150.047       92.776    45046.206    22514.222     8607.431        7.508        3.808      272.038       91.644        0.113      339.539       12.938      856.802
11/22/2014  06:56:00     -294.359     -117.001       14.631      303.301      257.817      127.775    91991.412    66469.702    16326.338       13.763        8.739      316.760      141.375        0.199      339.526       12.916      856.766
11/22/2014  06:57:00     -541.988     -250.450      -25.383      316.888      245.058      130.412   100417.819    60053.483    17007.216       26.726        8.874      597.056      150.292        0.063      339.586       13.020      856.770
11/22/2014  06:58:00     -297.525     -147.800       -7.272      270.483      208.866      105.830    73161.237    43625.166    11199.931       11.918        6.399      332.214      119.403        0.129      339.511       12.892      856.756
11/22/2014  06:59:00     -365.456     -211.137        3.555      278.685      226.005      112.515    77665.140    51078.334    12659.637       15.975        7.070      422.062      119.519        0.080      339.506       12.882      856.811
11/22/2014  07:00:00     -425.766     -249.498      -22.571      276.344      229.586      139.752    76365.938    52709.853    19530.746       19.629        7.430      493.484      117.387        0.057      339.551       12.958      856.784
11/22/2014  07:01:00     -368.816     -161.924        6.499      294.309      234.570      118.499    86617.968    55022.917    14041.951       15.895        7.784      402.796      139.524        0.120      339.556       12.968      856.813
11/22/2014  07:02:00     -504.076     -187.018      -26.031      286.760      193.870      105.538    82231.293    37585.743    11138.371       21.032        6.548      537.651      111.633        0.043      339.556       12.967      856.880
11/22/2014  07:03:00     -414.264     -107.584       -6.239      314.908      188.843      107.935    99166.794    35661.862    11649.949       16.482        7.324      428.006      120.438        0.079      339.502       12.876      856.873
11/22/2014  07:04:00     -562.725     -273.828      -33.260      250.818      233.316      114.875    62909.767    54436.275    13196.151       26.162        6.527      625.813      122.254        0.038      339.456       12.798      856.826
11/22/2014  07:05:00     -371.117     -239.837        9.434      294.602      217.215      139.337    86790.590    47182.356    19414.899       17.433        7.669      441.871      164.934        0.139      339.410       12.721      856.823
11/22/2014  07:06:00     -472.438     -183.803      -28.900      317.582      179.351      113.664   100858.243    32166.607    12919.552       20.185        7.297      506.933      135.231        0.071      339.381       12.672      856.852
11/22/2014  07:07:00     -543.181     -163.532      -16.844      311.863      197.019       98.801    97258.238    38816.544     9761.721       23.393        7.292      567.264      125.411        0.049      339.407       12.716      856.892
11/22/2014  07:08:00     -465.055     -202.750      -32.343      250.132      169.813      102.175    62566.171    28836.323    10439.708       18.012        5.092      507.331       96.499        0.036      339.323       12.574      856.923
11/22/2014  07:09:00     -482.309     -166.254      -27.189      319.498      198.265      119.199   102079.156    39309.132    14208.484       20.827        7.780      510.159      139.421        0.075      339.276       12.494      856.969
11/22/2014  07:10:00     -691.427     -166.722      -40.779      320.180      218.995      119.250   102515.137    47958.854    14220.621       33.608        8.235      711.243      150.582        0.045      339.287       12.514      856.949
11/22/2014  07:11:00     -394.226     -319.782       -3.451      252.182      220.473      132.319    63595.811    48608.380    17508.269       19.367        6.486      507.617      142.416        0.079      339.212       12.387      856.911
11/22/2014  07:12:00     -274.397     -173.449       13.341      258.578      201.011      117.889    66862.674    40405.267    13897.721       11.334        6.058      324.620      123.570        0.145      339.180       12.333      856.872
11/22/2014  07:13:00     -392.348     -250.897       -4.513      247.462      183.418      109.380    61237.351    33642.128    11964.013       16.185        5.342      465.711      116.133        0.062      339.154       12.290      856.866
11/22/2014  07:14:00     -310.326     -106.719        7.466      277.999      179.404      111.278    77283.188    32185.750    12382.722       11.478        6.093      328.164      131.514        0.161      339.112       12.219      856.879
11/22/2014  07:15:00     -437.504     -232.032       -5.982      261.905      226.442      105.794    68594.068    51276.068    11192.340       18.815        6.553      495.226      131.418        0.070      339.143       12.272      856.881
11/22/2014  07:16:00     -487.668     -212.842      -22.155      179.221      175.586      100.603    32120.233    30830.593    10120.897       17.833        3.654      532.092      103.470        0.038      339.206       12.376      856.885
11/22/2014  07:17:00     -353.228     -171.219       -7.640      193.427      183.696       90.797    37414.195    33744.344     8244.141       11.676        3.970      392.538       82.054        0.044      339.238       12.431      856.867
11/22/2014  07:18:00     -442.912     -150.223      -15.789      278.103      197.135      112.415    77341.053    38862.014    12637.198       17.389        6.442      467.694      124.715        0.071      339.261       12.470      856.808
11/22/2014  07:19:00     -454.305     -198.967      -37.776      259.455      182.403      105.709    67316.858    33270.833    11174.309       17.956        5.588      495.965      123.988        0.062      339.264       12.475      856.794
11/22/2014  07:20:00     -471.167     -230.960       -1.675      364.638      251.717      122.191   132960.554    63361.380    14930.628       24.326       10.563      524.729      155.052        0.087      339.361       12.638      856.819
11/22/2014  07:21:00     -529.568     -296.866      -15.737      291.536      279.054      127.846    84993.050    77871.075    16344.515       27.398        8.960      607.101      145.647        0.058      339.422       12.741      856.822
11/22/2014  07:22:00     -607.124     -218.880      -16.648      285.496      222.129      112.042    81507.892    49341.307    12553.382       28.007        7.170      645.374      128.243        0.039      339.436       12.765      856.911
11/22/2014  07:23:00     -524.600     -309.408      -14.918      262.796      229.067      127.668    69061.526    52471.627    16299.002       25.447        6.892      609.047      137.519        0.051      339.429       12.753      856.933
11/22/2014  07:24:00     -502.885     -266.679       -6.363      333.493      281.719      132.162   111217.806    79365.424    17466.737       26.601       10.402      569.219      153.359        0.073      339.429       12.753      856.899
11/22/2014  07:25:00     -535.789     -306.241        2.671      298.231      246.020      132.432    88942.012    60525.802    17538.198       27.390        8.350      617.134      126.559        0.042      339.442       12.776      856.909
11/22/2014  07:26:00     -461.565     -241.455       19.063      321.955      210.281      134.320   103654.733    44217.921    18041.729       21.878        8.296      520.906      166.458        0.102      339.417       12.732      856.940
11/22/2014  07:27:00     -541.620     -399.663      -14.738      285.007      238.537      122.888    81228.954    56900.113    15101.545       30.323        7.662      673.114      137.459        0.042      339.411       12.722      856.952
11/22/2014  07:28:00     -421.934     -208.919       11.864      306.832      220.849      117.642    94146.035    48774.205    13839.561       18.926        7.838      470.825      142.708        0.092      339.410       12.721      856.962
11/22/2014  07:29:00     -500.286     -162.778      -13.450      329.443      209.527      139.456   108532.417    43901.551    19447.903       22.439        8.594      526.102      161.982        0.095      339.436       12.765      857.004
11/22/2014  07:30:00     -591.615     -203.938        1.752      294.219      272.573      115.694    86564.951    74296.166    13385.107       28.289        8.712      625.779      137.514        0.048      339.498       12.869      856.928
11/22/2014  07:31:00     -412.870     -176.030       -4.017      251.763      180.819      112.584    63384.443    32695.417    12675.054       15.509        5.438      448.830      117.595        0.069      339.476       12.833      856.949
11/22/2014  07:32:00     -557.134     -273.591      -35.464      297.707      258.044      126.197    88629.436    66586.938    15925.583       27.879        8.557      620.686      138.230        0.050      339.454       12.795      856.900
11/22/2014  07:33:00     -446.449     -244.287        6.213      279.672      228.092      119.363    78216.537    52025.779    14247.461       20.173        7.224      508.913      139.920        0.076      339.407       12.715      856.905
11/22/2014  07:34:00     -615.397     -336.970      -25.473      280.054      233.307      128.566    78430.064    54432.125    16529.151       32.112        7.470      701.614      132.794        0.036      339.380       12.670      856.939
11/22/2014  07:35:00     -546.475     -203.500      -27.085      348.740      241.842      110.442   121619.827    58487.778    12197.476       26.650        9.615      583.136      137.533        0.056      339.353       12.624      856.919
11/22/2014  07:36:00     -538.880     -343.166      -16.472      339.376      231.976      151.113   115175.848    53812.796    22835.038       30.009        9.591      638.870      179.576        0.079      339.375       12.660      856.867
11/22/2014  07:37:00     -557.607     -353.351      -26.974      241.555      183.445      110.010    58348.602    33651.957    12102.304       27.029        5.205      660.138      128.829        0.038      339.363       12.641      856.915
11/22/2014  07:38:00     -526.921     -249.819      -20.429      253.826      197.173      112.868    64427.679    38877.309    12739.149       22.824        5.802      583.143      129.510        0.049      339.357       12.631      856.958
11/22/2014  07:39:00     -561.065     -202.699      -22.247      328.742      259.408      133.499   108071.037    67292.625    17821.980       27.474        9.659      596.557      160.154        0.072      339.351       12.622      856.983
11/22/2014  07:40:00     -441.292     -267.218      -15.620      275.222      251.909      124.915    75747.225    63457.966    15603.787       21.057        7.740      515.892      139.107        0.073      339.314       12.560      857.034
11/22/2014  07:41:00     -432.321     -104.169      -12.363      213.176      201.746       89.571    45443.988    40701.375     8022.912       14.602        4.708      444.694       99.580        0.050      339.373       12.658      857.059
11/22/2014  07:42:00     -384.054     -151.917        5.988      262.720      201.520      106.315    69021.761    40610.245    11302.873       14.575        6.047      413.008      121.439        0.086      339.322       12.572      857.144
11/22/2014  07:43:00     -412.867     -133.929       -7.415      184.578      223.195       96.806    34068.994    49816.161     9371.436       14.084        4.663      434.047       92.660        0.046      339.345       12.613      857.187
11/22/2014  07:44:00     -364.880     -100.338      -10.763      236.162      183.911       94.416    55772.580    33823.103     8914.419       12.090        4.926      378.424       96.872        0.066      339.340       12.602      857.151
11/22/2014  07:45:00     -363.421     -108.200       23.547      298.996      204.690      133.406    89398.624    41898.044    17797.292       14.669        7.455      379.186      169.416        0.200      339.302       12.539      857.056
11/22/2014  07:46:00     -397.127     -211.864      -16.994      292.967      221.733      123.200    85829.810    49165.694    15178.243       17.650        7.509      450.107      141.003        0.098      339.229       12.415      857.004
11/22/2014  07:47:00     -433.957     -195.125       -8.914      253.371      197.549      112.675    64196.742    39025.642    12695.611       17.117        5.796      475.807      117.527        0.061      339.130       12.249      856.994
11/22/2014  07:48:00     -459.249     -212.712      -19.217      274.239      215.825      117.975    75206.939    46580.591    13918.094       19.609        6.785      506.118      123.383        0.059      339.081       12.166      856.894
11/22/2014  07:49:00     -343.492     -231.895       22.161      276.760      240.003      123.940    76595.835    57601.402    15361.174       16.088        7.478      414.442      163.796        0.156      339.038       12.094      856.861
11/22/2014  07:50:00     -382.008     -204.143       -8.547      231.970      247.179      109.532    53810.212    61097.617    11997.272       15.727        6.345      433.134      120.543        0.077      339.008       12.045      856.848
11/22/2014  07:51:00     -443.244     -164.155       -8.839      303.030      167.535      102.776    91827.380    28067.960    10562.901       17.695        6.523      472.664      126.418        0.072      338.986       12.008      856.952
11/22/2014  07:52:00     -392.646     -215.710      -13.984      241.600      158.217       99.183    58370.487    25032.639     9837.241       14.705        4.662      447.997      114.141        0.065      338.950       11.947      856.986
11/22/2014  07:53:00     -440.801     -258.900      -11.814      243.980      212.009      114.920    59526.187    44947.662    13206.583       18.955        5.884      511.209      134.413        0.069      338.982       12.002      857.018
11/22/2014  07:54:00     -466.901     -160.246      -15.437      300.891      207.805      107.357    90535.621    43182.875    11525.515       19.455        7.262      493.635      143.195        0.084      339.081       12.168      857.079
11/22/2014  07:55:00     -391.300     -238.987       -0.024      354.242      241.785      130.971   125487.694    58460.098    17153.513       20.562       10.055      458.509      165.663        0.131      339.119       12.231      857.044
11/22/2014  07:56:00     -353.336     -197.436       15.962      292.845      260.817      125.778    85758.292    68025.447    15819.982       16.681        8.480      404.756      142.426        0.124      339.182       12.339      857.022
11/22/2014  07:57:00     -558.401      -93.452       -3.945      450.319      227.056      147.076   202786.988    51554.445    21631.325       29.821       13.799      566.167      208.045        0.135      339.246       12.446      857.039
11/22/2014  07:58:00     -624.494     -298.323      -28.990      383.810      306.262      149.944   147310.147    93796.154    22483.229       37.166       13.179      692.090      176.659        0.065      339.319       12.567      857.013
11/22/2014  07:59:00     -488.304      -88.287        0.237      355.048      230.772      133.158   126059.296    53255.488    17730.945       22.160        9.852      496.221      166.903        0.113      339.372       12.656      857.064
11/22/2014  08:00:00     -563.185     -142.686      -13.252      303.025      261.191      114.158    91824.171    68220.570    13032.070       25.536        8.654      580.979      137.697        0.056      339.393       12.691      857.078
11/22/2014  08:01:00     -731.432     -252.805      -40.446      277.453      271.090      122.082    76980.121    73489.533    14903.989       38.292        8.269      773.888      134.294        0.030      339.376       12.664      857.099
11/22/2014  08:02:00     -330.902      -59.861       19.582      251.923      202.356      133.586    63465.080    40948.057    17845.152       11.784        6.113      336.273      124.137        0.136      339.354       12.626      857.147
11/22/2014  08:03:00     -727.610     -338.597      -29.669      365.788      325.664      126.859   133800.848   106056.720    16093.186       45.040       12.798      802.536      161.482        0.040      339.354       12.628      857.088
11/22/2014  08:04:00     -471.025     -262.280      -19.368      275.751      261.900      126.772    76038.713    68591.460    16071.222       22.583        8.035      539.125      132.555        0.060      339.330       12.585      857.168
11/22/2014  08:05:00     -521.166     -190.590      -30.165      294.643      218.988      127.980    86814.658    47955.707    16378.811       22.997        7.557      554.922      122.908        0.049      339.375       12.661      857.166
11/22/2014  08:06:00     -411.085     -124.851       -7.673      254.663      236.566      107.252    64853.148    55963.698    11502.958       15.845        6.616      429.626      138.188        0.103      339.400       12.703      857.115
11/22/2014  08:07:00     -557.124     -297.417      -48.848      281.866      199.592      119.935    79448.162    39836.892    14384.348       26.742        6.683      631.541      132.842        0.044      339.343       12.608      857.113
11/22/2014  08:08:00     -453.834      -71.801       -4.907      240.155      200.212      102.624    57674.419    40084.706    10531.662       15.970        5.415      459.479      109.226        0.057      339.345       12.612      857.072
11/22/2014  08:09:00     -463.835     -137.742       -6.274      233.588      231.532      119.588    54563.183    53607.002    14301.386       17.829        6.124      483.856      129.460        0.072      339.298       12.532      857.042
11/22/2014  08:10:00     -547.267     -191.815       -1.282      304.220      268.233      143.191    92549.595    71948.933    20503.524       26.061        9.250      579.909      160.565        0.077      339.366       12.646      857.025
11/22/2014  08:11:00     -463.821     -163.225      -19.914      343.178      251.039      116.924   117771.195    63020.624    13671.248       21.828        9.723      491.703      146.676        0.089      339.384       12.677      856.980
11/22/2014  08:12:00     -396.425      -84.928       31.518      350.865      225.476      129.942   123106.387    50839.495    16884.940       17.806        9.542      405.420      159.237        0.154      339.379       12.668      856.923
11/22/2014  08:13:00     -482.811     -129.326      -31.277      246.751      242.248      102.895    60885.897    58683.885    10587.377       19.046        6.508      499.832      104.391        0.044      339.416       12.732      856.909
11/22/2014  08:14:00     -449.765      -66.727       -9.906      282.550      183.740      112.361    79834.737    33760.214    12625.076       16.650        6.311      454.688      109.944        0.058      339.375       12.661      856.888
11/22/2014  08:15:00     -380.198     -232.185        3.646      302.422      254.228      134.529    91459.039    64632.064    18098.146       18.630        8.709      445.489      161.885        0.132      339.419       12.736      856.813
11/22/2014  08:16:00     -342.929     -120.421        2.021      209.220      222.486      110.977    43773.121    49499.976    12315.954       11.883        5.279      363.458      115.656        0.101      339.453       12.794      856.908
11/22/2014  08:17:00     -336.599     -146.202       11.705      297.856      225.556      133.796    88717.926    50875.339    17901.306       14.612        7.875      366.980      144.434        0.155      339.412       12.723      856.952
11/22/2014  08:18:00     -550.275     -148.993      -17.665      272.168      172.955      124.227    74075.677    29913.436    15432.305       22.234        5.971      570.089      139.267        0.060      339.439       12.769      856.940
11/22/2014  08:19:00     -489.782     -297.136      -14.586      305.981      218.090      122.284    93624.378    47563.100    14953.451       24.223        7.807      572.867      149.832        0.068      339.471       12.822      856.942
11/22/2014  08:20:00     -499.505     -201.614      -21.411      269.655      251.872      126.533    72714.024    63439.710    16010.570       22.136        7.608      538.659      141.377        0.069      339.512       12.893      856.986
11/22/2014  08:21:00     -369.071     -202.421       -2.392      287.467      211.555      109.467    82637.279    44755.349    11982.974       15.826        6.969      420.937      116.231        0.076      339.561       12.975      856.960
11/22/2014  08:22:00     -522.006     -169.943       -3.404      328.377      234.781      129.801   107831.618    55122.053    16848.317       24.056        8.990      548.972      160.846        0.086      339.619       13.074      856.938
11/22/2014  08:23:00     -477.128     -269.690       11.736      278.203      237.187      124.651    77397.000    56257.878    15537.899       22.483        7.460      548.073      133.397        0.059      339.621       13.077      856.948
11/22/2014  08:24:00     -674.109      -93.690       -9.327      379.968      320.151      136.639   144375.604   102496.757    18670.203       36.436       13.277      680.589      168.086        0.061      339.672       13.163      856.949
11/22/2014  08:25:00     -582.800     -220.987      -34.383      231.288      208.463      115.654    53494.220    43456.908    13375.781       24.998        5.516      623.291      113.212        0.033      339.695       13.202      857.005
11/22/2014  08:26:00     -756.047     -425.002      -13.645      394.629      286.840      166.931   155732.329    82276.973    27866.074       50.909       13.294      867.314      201.992        0.054      339.686       13.185      856.884
11/22/2014  08:27:00     -644.354     -397.468      -14.050      317.938      291.598      142.805   101084.304    85029.559    20393.255       38.990       10.325      757.082      164.525        0.047      339.684       13.184      856.903
11/22/2014  08:28:00     -342.803     -169.927       12.290      308.511      208.795      129.618    95179.076    43595.383    16800.821       15.103        7.779      382.609      149.152        0.152      339.734       13.270      856.914
11/22/2014  08:29:00     -521.481     -167.472      -24.580      228.888      259.284      117.740    52389.508    67228.438    13862.821       21.701        6.674      547.713      113.812        0.043      339.706       13.221      856.909
11/22/2014  08:30:00     -540.149     -214.645        8.764      350.310      290.304      134.695   122717.185    84276.493    18142.798       28.148       11.257      581.235      156.447        0.072      339.724       13.251      856.925
11/22/2014  08:31:00     -445.197     -209.477      -10.457      239.238      208.980      115.411    57234.900    43672.736    13319.600       17.819        5.711      492.018      107.407        0.048      339.769       13.326      856.903
11/22/2014  08:32:00     -423.606     -283.242       -2.224      246.818      190.791      117.034    60918.925    36401.280    13696.999       18.532        5.551      509.577      119.816        0.055      339.772       13.331      856.825
11/22/2014  08:33:00     -594.779     -331.805      -29.791      266.320      175.516      124.530    70926.356    30805.907    15507.724       29.097        5.862      681.070      139.409        0.042      339.732       13.265      856.824
11/22/2014  08:34:00     -576.442     -239.495      -14.463      231.863      188.576      107.540    53760.342    35560.739    11564.788       24.535        5.044      624.214      122.735        0.039      339.739       13.277      856.800
11/22/2014  08:35:00     -563.785     -157.165      -22.408      286.211      236.535      102.366    81916.717    55948.947    10478.845       24.567        7.417      585.281      115.755        0.039      339.771       13.332      856.778
11/22/2014  08:36:00     -524.099     -152.623       -8.085      345.655      277.388      136.607   119477.083    76943.932    18661.346       25.652       10.754      545.869      161.748        0.088      339.797       13.375      856.734
11/22/2014  08:37:00     -507.524     -224.892       -9.580      307.688      236.953      139.937    94671.976    56146.858    19582.242       23.929        8.520      555.119      161.494        0.085      339.769       13.327      856.785
11/22/2014  08:38:00     -410.140     -243.348       -2.947      303.378      209.047      114.709    92038.322    43700.556    13158.248       18.814        7.445      476.900      128.283        0.072      339.816       13.407      856.777
11/22/2014  08:39:00     -389.859      -85.561        3.837      225.620      193.835       97.468    50904.184    37572.158     9500.061       12.863        4.899      399.138       99.852        0.063      339.840       13.446      856.801
11/22/2014  08:40:00     -366.667     -157.509       -3.443      257.819      201.846      127.984    66470.583    40741.918    16379.803       14.140        6.180      399.066      142.874        0.128      339.823       13.417      856.800
11/22/2014  08:41:00     -652.455     -163.941      -32.640      238.672      257.142      127.930    56964.562    66122.258    16366.041       29.652        6.973      672.736      128.601        0.037      339.789       13.359      856.774
11/22/2014  08:42:00     -584.057     -354.655      -21.202      350.243      233.280      131.086   122670.088    54419.527    17183.645       33.077        9.714      683.302      150.158        0.048      339.821       13.414      856.841
11/22/2014  08:43:00     -638.650     -388.443      -17.383      371.307      299.368      161.346   137868.700    89621.126    26032.649       40.624       12.676      747.504      182.336        0.060      339.776       13.339      856.797
11/22/2014  08:44:00     -557.901     -212.845      -27.575      313.543      219.805      117.476    98309.033    48314.154    13800.655       25.884        8.021      597.124      135.493        0.051      339.778       13.342      856.864
11/22/2014  08:45:00     -532.692     -120.658      -27.931      293.429      221.193      117.292    86100.587    48926.300    13757.427       22.391        7.439      546.186      122.738        0.050      339.824       13.418      856.910
11/22/2014  08:46:00     -404.188     -286.726      -14.182      235.268      216.263      113.642    55350.827    46769.558    12914.489       18.038        5.752      495.560      128.154        0.067      339.836       13.438      857.015
11/22/2014  08:47:00     -242.274     -168.488       15.762      284.033      203.514      124.283    80674.866    41418.139    15446.227       11.241        6.877      295.102      153.675        0.271      339.928       13.594      857.017
11/22/2014  08:48:00     -534.424     -161.073      -26.008      278.975      250.532      136.609    77826.909    62766.484    18662.015       23.571        7.963      558.170      134.703        0.058      339.836       13.439      856.984
11/22/2014  08:49:00     -475.025     -134.314      -18.303      287.022      203.838       97.626    82381.454    41549.911     9530.916       18.872        6.673      493.649      118.397        0.058      339.903       13.552      857.015
11/22/2014  08:50:00     -380.858     -257.091      -13.531      279.646      203.995      115.819    78202.149    41613.873    13414.102       17.225        6.662      459.509      127.798        0.077      339.914       13.572      857.016
11/22/2014  08:51:00     -321.714     -192.917        5.615      221.057      205.739      100.778    48866.213    42328.476    10156.170       12.103        5.068      375.122      106.547        0.081      339.931       13.599      856.994
11/22/2014  08:52:00     -275.397     -218.368        1.967      244.123      225.375      126.106    59596.116    50794.099    15902.604       12.489        6.315      351.466      153.986        0.192      339.961       13.649      857.037
11/22/2014  08:53:00     -544.658     -395.330      -38.511      257.179      269.143      156.329    66140.962    72438.155    24438.618       30.869        8.151      673.006      154.714        0.053      339.871       13.499      856.971
11/22/2014  08:54:00     -546.854     -161.712      -22.945      395.763      259.602      140.977   156628.310    67393.099    19874.489       28.476       12.195      570.264      200.033        0.123      339.970       13.665      857.043
11/22/2014  08:55:00     -303.483     -133.239        6.785      291.518      165.090      125.293    84982.888    27254.658    15698.450       11.889        6.397      331.443      154.549        0.217      340.006       13.726      857.004
11/22/2014  08:56:00     -395.384      -51.514       -4.052      254.113      195.260      108.384    64573.469    38126.407    11747.003       13.670        5.722      398.726      126.725        0.101      340.031       13.768      857.067
11/22/2014  08:57:00     -485.655     -331.651      -30.786      233.592      252.327      122.071    54565.158    63668.874    14901.412       23.994        6.657      588.093      127.013        0.047      339.963       13.653      857.060
11/22/2014  08:58:00     -344.291     -192.605        2.298      226.155      220.436      107.677    51146.074    48592.014    11594.381       13.346        5.567      394.503      126.666        0.103      340.068       13.830      857.064
11/22/2014  08:59:00     -367.954     -133.162       -0.589      231.216      240.124      117.318    53461.040    57659.610    13763.545       13.898        6.244      391.309      129.436        0.109      340.114       13.908      857.178
11/22/2014  09:00:00     -478.501     -296.319      -30.851      271.241      244.272      111.021    73571.540    59668.913    12325.687       23.161        7.278      562.822      119.816        0.045      340.072       13.836      857.217
11/22/2014  09:01:00     -573.293     -256.985      -32.863      231.745      215.778      114.229    53705.930    46560.003    13048.161       25.453        5.666      628.256      124.754        0.039      340.053       13.804      857.129
11/22/2014  09:02:00     -426.736      -44.257       -4.118      222.165      197.574       97.827    49357.506    39035.493     9570.189       14.100        4.898      429.025      101.869        0.056      340.180       14.020      857.204
11/22/2014  09:03:00     -293.346     -161.396       11.834      258.165      215.958      109.966    66649.359    46637.707    12092.589       11.878        6.269      334.814      141.129        0.178      340.194       14.044      857.237
11/22/2014  09:04:00     -422.401     -192.884      -21.153      224.829      138.339       78.337    50547.972    19137.753     6136.665       14.593        3.791      464.356       85.443        0.034      340.140       13.951      857.245
11/22/2014  09:05:00     -339.955       -5.741       -2.213      176.916      185.373       95.582    31299.427    34363.058     9135.865        9.519        3.740      340.003       94.051        0.077      340.330       14.272      857.269
11/22/2014  09:06:00     -518.020      -22.355      -21.820      205.101      135.656       98.633    42066.592    18402.513     9728.556       16.975        3.510      518.502      109.200        0.044      340.214       14.077      857.225
11/22/2014  09:07:00     -390.859     -138.130      -17.224      227.561      160.633      102.446    51783.880    25803.052    10495.116       13.010        4.404      414.549      102.343        0.061      340.172       14.005      857.256
11/22/2014  09:08:00     -333.038     -205.743        3.529      221.423      161.588       87.787    49028.002    26110.656     7706.470       11.803        4.142      391.465       98.174        0.063      340.181       14.022      857.230
11/22/2014  09:09:00     -495.204     -164.843      -25.061      239.603      184.638       86.618    57409.661    34091.024     7502.645       18.600        4.950      521.920       88.158        0.029      340.194       14.042      857.182
11/22/2014  09:10:00     -493.540     -202.405       -6.063      185.744      183.442      105.914    34500.821    33650.808    11217.685       18.196        3.968      533.432      107.219        0.040      340.172       14.006      857.182
11/22/2014  09:11:00     -571.683     -139.302      -26.093      207.221      178.422      110.362    42940.435    31834.364    12179.666       21.691        4.348      588.410      120.637        0.042      340.218       14.084      857.155
11/22/2014  09:12:00     -448.648     -275.012      -16.812      257.026      263.329      100.282    66062.588    69342.317    10056.517       21.130        7.273      526.228      112.115        0.045      340.212       14.073      857.148
11/22/2014  09:13:00     -393.209     -252.036      -12.282      250.044      178.500      107.143    62521.776    31862.178    11479.638       16.205        5.293      467.050       91.495        0.038      340.248       14.134      857.194
11/22/2014  09:14:00     -437.619      -67.061      -25.560      270.811      156.123      105.866    73338.403    24374.494    11207.695       15.277        5.446      442.728      126.134        0.081      340.265       14.163      857.296
11/22/2014  09:15:00     -437.696     -109.667       13.551      284.909      214.056      117.602    81173.064    45819.912    13830.166       17.228        7.041      451.226      123.652        0.075      340.144       13.958      857.264
11/22/2014  09:16:00     -486.079     -263.035       -4.183      328.079      217.559      117.589   107636.130    47331.738    13827.279       23.710        8.440      552.684      150.677        0.074      340.080       13.850      857.366
11/22/2014  09:17:00     -516.439     -297.175      -25.435      290.408      193.448      111.417    84336.521    37421.960    12413.801       24.489        6.709      595.838      136.346        0.052      340.112       13.905      857.475
11/22/2014  09:18:00     -376.953     -348.996      -31.938      273.854      229.043      114.473    74996.212    52460.598    13104.056       20.271        7.028      513.704      127.382        0.061      340.094       13.874      857.513
11/22/2014  09:19:00     -494.892     -332.601        0.559      283.295      235.974      126.796    80256.123    55683.655    16077.223       25.375        7.601      596.273      141.736        0.057      340.102       13.887      857.417
11/22/2014  09:20:00     -382.222     -218.277       -6.716      301.753      191.092       98.681    91055.043    36516.266     9737.967       16.552        6.865      440.157      111.598        0.064      340.150       13.969      857.450
11/22/2014  09:21:00     -380.116     -171.721      -10.847      168.049      163.193       84.449    28240.368    26632.116     7131.688       11.804        3.100      417.105       93.035        0.050      340.162       13.988      857.462
11/22/2014  09:22:00     -287.091     -233.257       12.866      248.389      187.801       93.073    61696.868    35269.307     8662.614       12.129        5.281      369.905      112.320        0.092      340.209       14.068      857.467
11/22/2014  09:23:00     -616.071     -288.514      -26.456      239.775      204.809      108.998    57492.183    41946.833    11880.563       28.738        5.566      680.282      118.792        0.030      340.164       13.993      857.436
11/22/2014  09:24:00     -400.827     -267.004       -8.890      268.808      211.664      111.331    72257.985    44801.777    12394.501       18.072        6.473      481.615      105.007        0.048      340.222       14.091      857.451
11/22/2014  09:25:00     -319.189      -62.583       19.525      217.762      184.091       83.226    47420.100    33889.341     6926.611        9.719        4.412      325.266       93.722        0.083      340.345       14.299      857.486
11/22/2014  09:26:00     -466.251     -270.433      -10.566      268.210      223.891       91.797    71936.403    50127.231     8426.755       21.054        6.525      539.003       99.840        0.034      340.224       14.094      857.483
11/22/2014  09:27:00     -454.754     -200.446      -22.100      233.577      170.476       94.568    54558.076    29062.057     8943.028       17.000        4.628      496.971      107.912        0.047      340.206       14.063      857.425
11/22/2014  09:28:00     -522.839     -295.218      -16.267      282.452      266.824      126.592    79779.151    71194.845    16025.539       26.386        8.350      600.428      136.619        0.052      340.253       14.143      857.329
11/22/2014  09:29:00     -500.291     -202.748       -3.050      305.153      189.068      106.722    93118.086    35746.852    11389.687       21.580        7.013      539.813      137.957        0.065      340.253       14.142      857.318
11/22/2014  09:30:00     -489.537     -212.002      -15.275      235.158      153.735      104.103    55299.314    23634.341    10837.520       18.728        4.489      533.471      111.782        0.044      340.303       14.227      857.351
11/22/2014  09:31:00     -238.508      -46.836        0.924      146.669      134.059       77.981    21511.839    17971.791     6081.042        5.231        2.278      243.063       80.652        0.110      340.503       14.566      857.356
11/22/2014  09:32:00     -448.841     -268.826      -20.011      168.051      179.849       87.327    28241.276    32345.643     7625.920       17.116        3.411      523.188       89.134        0.029      340.349       14.306      857.409
11/22/2014  09:33:00     -269.938     -181.200        8.262      210.342      156.957       79.977    44243.572    24635.593     6396.376        9.051        3.764      325.116      100.063        0.095      340.450       14.475      857.441
11/22/2014  09:34:00     -414.000      -98.123       -6.335      254.826      219.257      113.257    64936.170    48073.558    12827.216       15.343        6.292      425.469      110.982        0.068      340.385       14.366      857.380
11/22/2014  09:35:00     -468.123     -128.937      -11.563      240.366      186.346      111.565    57775.711    34724.940    12446.706       17.040        5.247      485.555      115.376        0.056      340.398       14.388      857.336
11/22/2014  09:36:00     -427.285     -235.905       -8.220      277.921      259.683      116.440    77240.236    67435.495    13558.170       19.823        7.912      488.082      137.761        0.080      340.388       14.371      857.352
11/22/2014  09:37:00     -412.822     -257.116       -9.078      299.580      208.203      121.402    89748.340    43348.555    14738.325       19.219        7.392      486.344      151.142        0.097      340.369       14.338      857.374
11/22/2014  09:38:00     -735.240     -418.186      -33.486      327.937      219.700      127.929   107542.548    48268.159    16365.778       44.434        8.609      845.847      141.669        0.028      340.302       14.224      857.217
11/22/2014  09:39:00     -570.785     -219.435      -10.377      227.708      193.657      113.391    51851.004    37502.939    12857.537       23.811        5.111      611.512      122.153        0.040      340.314       14.245      857.192
11/22/2014  09:40:00     -598.203     -206.296        3.263      460.129      322.839      146.045   211718.642   104224.698    21329.078       36.878       16.864      632.776      184.517        0.085      340.337       14.284      857.257
11/22/2014  09:41:00     -544.567     -338.164      -33.680      330.847      267.399      130.095   109459.756    71502.101    16924.728       30.492        9.894      641.021      143.077        0.050      340.356       14.318      857.277
11/22/2014  09:42:00     -648.155     -459.226      -10.931      314.818      268.437      148.070    99110.602    72058.271    21924.639       41.206        9.655      794.351      154.902        0.038      340.327       14.267      857.295
11/22/2014  09:43:00     -528.521     -290.448      -47.029      272.197      197.186      111.481    74091.183    38882.299    12428.124       24.563        6.270      603.070      106.691        0.031      340.386       14.367      857.308
11/22/2014  09:44:00     -462.252     -268.590       -5.351      276.314      203.175      116.057    76349.240    41279.987    13469.235       20.845        6.555      534.619      132.540        0.061      340.479       14.526      857.293
11/22/2014  09:45:00     -467.881     -318.186       -5.524      243.384      185.594      107.572    59235.707    34445.090    11571.798       21.270        5.263      565.822      115.510        0.042      340.454       14.482      857.282
11/22/2014  09:46:00     -430.500     -311.426       -5.061      266.860      212.731      111.945    71214.240    45254.545    12531.594       20.564        6.450      531.335      130.136        0.060      340.476       14.519      857.260
11/22/2014  09:47:00     -439.060     -240.636       -7.153      262.614      215.942      118.102    68966.205    46631.150    13948.083       19.011        6.477      500.679      128.124        0.065      340.519       14.592      857.298
11/22/2014  09:48:00     -351.578     -280.662      -12.732      178.471      159.713       89.555    31851.759    25508.130     8020.047       13.395        3.269      449.865       87.523        0.038      340.549       14.643      857.294
11/22/2014  09:49:00     -485.198     -366.149      -14.241      240.900      168.578       98.665    58032.674    28418.445     9734.800       23.292        4.809      607.850      112.273        0.034      340.478       14.523      857.312
11/22/2014  09:50:00     -442.335     -209.838       -2.719      263.663      181.864      118.165    69518.396    33074.573    13963.031       17.810        5.828      489.584      123.279        0.063      340.520       14.593      857.279
11/22/2014  09:51:00     -361.305     -214.576       -6.807      271.469      223.087      100.015    73695.647    49767.655    10002.969       15.502        6.673      420.219      116.799        0.077      340.606       14.738      857.221
11/22/2014  09:52:00     -539.728     -354.124      -22.190      271.961      194.989      108.726    73962.590    38020.752    11821.329       27.048        6.190      645.530       96.315        0.022      340.515       14.586      857.210
11/22/2014  09:53:00     -719.926     -310.802      -35.545      412.873      291.845      150.594   170464.496    85173.294    22678.673       44.718       13.916      784.150      173.778        0.049      340.551       14.646      857.183
11/22/2014  09:54:00     -636.109     -387.096       -5.664      345.424      364.410      148.983   119317.487   132794.756    22196.003       41.435       13.715      744.632      173.100        0.054      340.499       14.560      857.273
11/22/2014  09:55:00     -560.355     -398.932        9.890      376.112      262.450      155.041   141460.162    68879.868    24037.586       35.376       11.719      687.856      179.586        0.068      340.575       14.687      857.335
11/22/2014  09:56:00     -553.579     -306.115       -8.507      319.930      285.174      144.726   102354.992    81323.948    20945.512       30.239       10.231      632.579      167.349        0.070      340.552       14.649      857.403
11/22/2014  09:57:00     -633.741     -411.918      -22.696      291.963      203.332      132.143    85242.431    41343.786    17461.874       35.791        7.202      755.846      138.919        0.034      340.592       14.715      857.500
11/22/2014  09:58:00     -446.844     -128.837      -17.432      219.864      200.397      108.884    48340.389    40158.916    11855.731       15.844        5.018      465.047      113.074        0.059      340.702       14.901      857.517
11/22/2014  09:59:00     -384.432     -168.310       -9.101      203.489      184.371       94.489    41407.947    33992.787     8928.187       13.025        4.216      419.661      106.976        0.065      340.769       15.015      857.490
11/22/2014  10:00:00     -637.270     -244.046      -10.351      301.447      271.338      138.428    90870.330    73624.124    19162.323       32.468        9.183      682.402      159.146        0.054      340.689       14.879      857.504
11/22/2014  10:01:00     -648.861     -453.018      -48.505      235.711      231.438      108.899    55559.862    53563.508    11858.940       37.477        6.049      791.357      111.142        0.020      340.607       14.741      857.541
11/22/2014  10:02:00     -495.224     -266.756      -29.297      264.115      238.325      121.881    69756.792    56798.880    14854.920       22.931        7.071      562.500      133.237        0.056      340.655       14.822      857.503
11/22/2014  10:03:00     -439.863     -225.053        9.894      270.348      145.659      106.978    73088.239    21216.612    11444.362       17.497        5.287      494.094      124.592        0.064      340.696       14.891      857.524
11/22/2014  10:04:00     -666.826     -232.992      -41.659      203.942      230.627       92.282    41592.329    53188.902     8515.963       30.197        5.165      706.359       97.230        0.019      340.669       14.846      857.549
11/22/2014  10:05:00     -663.908     -353.393      -35.415      342.367      220.117      133.628   117215.127    48451.676    17856.524       37.518        9.176      752.104      135.676        0.033      340.682       14.868      857.635
11/22/2014  10:06:00     -604.933     -230.999      -23.105      318.799      304.707      130.213   101633.113    92846.175    16955.353       31.559       10.572      647.537      148.685        0.053      340.680       14.866      857.579
11/22/2014  10:07:00     -624.158     -150.917      -38.310      254.529      238.328      108.642    64784.980    56800.175    11803.149       27.358        6.669      642.145      109.406        0.029      340.667       14.843      857.650
11/22/2014  10:08:00     -663.329     -235.037      -29.835      289.402      244.526      123.864    83753.384    59792.773    15342.234       32.748        7.944      703.738      142.911        0.041      340.734       14.956      857.696
11/22/2014  10:09:00     -587.971     -228.257       -4.489      367.305      275.825      132.178   134913.190    76079.676    17470.993       31.310       11.423      630.723      165.884        0.069      340.724       14.940      857.699
11/22/2014  10:10:00     -594.290     -369.373      -16.337      347.060      246.516      138.157   120450.319    60770.260    19087.453       34.506       10.015      699.726      147.655        0.045      340.543       14.632      857.619
11/22/2014  10:11:00     -713.680     -378.561      -25.940      295.455      224.954      110.225    87293.591    50604.142    12149.486       40.165        7.502      807.866      132.740        0.027      340.560       14.661      857.634
11/22/2014  10:12:00     -254.322      -94.224       30.222      246.160      190.320      119.255    60594.820    36221.841    14221.708        9.273        5.552      271.215      131.278        0.234      340.813       15.091      857.602
11/22/2014  10:13:00     -436.822     -304.118        5.489      298.496      277.632      123.583    89100.145    77079.406    15272.832       23.236        9.073      532.261      138.970        0.068      340.649       14.811      857.580
11/22/2014  10:14:00     -705.535     -378.883      -19.864      305.509      217.350      131.281    93335.835    47241.047    17234.658       39.974        7.891      800.832      139.239        0.030      340.580       14.694      857.606
11/22/2014  10:15:00     -713.667     -340.750      -14.821      406.866      299.380      131.545   165539.572    89628.585    17304.212       44.901       13.624      790.842      173.626        0.048      340.549       14.643      857.575
11/22/2014  10:16:00     -411.898     -232.177       33.415      323.740      246.886      136.564   104807.715    60952.625    18649.808       20.451        9.221      472.828      169.580        0.129      340.601       14.731      857.530
11/22/2014  10:17:00     -527.839     -139.241      -18.197      223.128      197.795      109.026    49786.127    39122.832    11886.596       19.954        5.040      545.895      114.729        0.044      340.742       14.968      857.697
11/22/2014  10:18:00     -622.089     -147.027      -16.233      349.156      201.014      138.533   121910.047    40406.670    19191.301       29.516        9.075      639.227      164.163        0.066      340.680       14.865      857.713
11/22/2014  10:19:00     -318.083     -247.336       -7.078      193.202      172.817      102.255    37326.853    29865.810    10456.013       12.001        3.882      402.929      115.945        0.083      340.783       15.038      857.679
11/22/2014  10:20:00     -395.381     -307.288       -0.089      259.671      186.118      134.311    67428.800    34640.077    18039.540       18.541        6.005      500.751      140.317        0.079      340.755       14.991      857.637
11/22/2014  10:21:00     -487.264     -320.647      -14.617      321.564      184.597      106.943   103403.228    34075.997    11436.709       24.466        7.446      583.302      136.108        0.054      340.696       14.891      857.674
11/22/2014  10:22:00     -483.730     -223.478      -20.037      271.575      169.455      102.235    73752.963    28715.005    10452.070       19.861        5.646      532.857      101.318        0.036      340.868       15.183      857.702
11/22/2014  10:23:00     -464.499     -296.674      -11.070      236.116      175.297      106.494    55750.650    30729.009    11340.880       20.084        4.891      551.157      119.525        0.047      340.913       15.259      857.786
11/22/2014  10:24:00     -514.619     -235.414       11.938      294.622      187.271      118.487    86801.835    35070.504    14039.151       22.813        6.796      565.909      142.708        0.064      340.859       15.167      857.799
11/22/2014  10:25:00     -440.980     -145.974      -16.846      247.042      145.955      105.432    61029.895    21302.849    11116.002       15.473        4.672      464.512      119.360        0.066      340.980       15.371      857.796
11/22/2014  10:26:00     -556.348     -341.936       -2.633      341.782      256.217      140.963   116814.917    65647.157    19870.628       31.435       10.117      653.026      164.130        0.063      340.875       15.194      857.708
11/22/2014  10:27:00     -534.846     -403.776      -17.336      320.147      233.391      137.225   102494.265    54471.448    18830.719       31.256        8.790      670.146      162.667        0.059      340.920       15.271      857.763
11/22/2014  10:28:00     -406.811     -184.437      -12.240      207.640      194.020      101.648    43114.218    37643.627    10332.258       14.536        4.555      446.667      115.135        0.066      341.045       15.483      857.842
11/22/2014  10:29:00     -370.802     -108.071       -9.646      204.328      142.004       83.458    41749.971    20165.142     6965.245       10.906        3.444      386.230       97.141        0.063      341.300       15.915      857.959
11/22/2014  10:30:00     -569.802      -44.437      -21.126      263.993      189.815      121.178    69692.151    36029.711    14684.218       22.373        6.020      571.532      118.624        0.043      341.124       15.615      857.976
11/22/2014  10:31:00     -487.063     -275.646        4.862      265.442      245.442      107.810    70459.526    60241.999    11622.976       22.775        7.116      559.653      123.246        0.048      340.961       15.340      857.933
11/22/2014  10:32:00     -563.624     -315.434        5.090      332.714      230.386      119.176   110698.613    53077.768    14203.036       29.755        8.899      645.887      157.538        0.059      340.859       15.168      857.873
11/22/2014  10:33:00     -467.284     -316.416       -7.781      337.489      253.239      118.580   113899.109    64130.117    14061.239       25.527        9.605      564.334      135.872        0.058      340.805       15.076      857.932
11/22/2014  10:34:00     -565.914     -456.655       -2.706      338.259      240.962      129.596   114419.379    58062.512    16795.012       35.900        9.464      727.181      145.947        0.040      340.768       15.013      857.906
11/22/2014  10:35:00     -682.762     -429.484      -10.134      379.770      311.632      149.775   144225.613    97114.347    22432.658       45.719       13.189      806.611      184.937        0.053      340.756       14.993      857.899
11/22/2014  10:36:00     -274.386     -106.561       17.632      185.010      166.543       80.544    34228.629    27736.434     6487.313        7.769        3.423      294.352       86.786        0.087      341.047       15.486      857.899
11/22/2014  10:37:00     -222.678     -100.550       27.202      190.849      151.849       84.368    36423.182    23058.202     7118.001        6.350        3.330      244.327       82.592        0.114      341.098       15.572      857.957
11/22/2014  10:38:00     -313.065     -160.282       23.747      264.672      183.036      112.618    70051.146    33502.078    12682.890       12.023        5.812      351.710      137.872        0.154      341.089       15.557      857.881
11/22/2014  10:39:00     -430.583     -219.640       -0.244      194.158      213.319      101.148    37697.462    45504.810    10230.867       16.352        4.672      483.367      110.434        0.052      341.032       15.460      857.874
11/22/2014  10:40:00     -661.656     -281.565      -38.197      289.556      216.695      102.364    83842.921    46956.915    10478.419       32.987        7.064      719.074      120.730        0.028      341.020       15.440      857.871
11/22/2014  10:41:00     -625.828     -275.292      -16.933      324.732      240.098      126.092   105450.952    57647.267    15899.162       32.333        8.950      683.701      147.425        0.046      341.082       15.544      857.906
11/22/2014  10:42:00     -695.645     -387.044      -16.861      397.283      298.140      146.878   157833.973    88887.601    21573.029       45.110       13.415      796.069      179.937        0.051      340.930       15.287      857.944
11/22/2014  10:43:00     -602.439     -353.008        0.804      363.031      270.270      141.736   131791.324    73046.102    20088.986       35.619       11.246      698.245      172.632        0.061      340.919       15.268      857.909
11/22/2014  10:44:00     -528.757     -336.301      -11.823      396.047      300.644      160.961   156853.287    90386.790    25908.571       33.293       13.657      626.644      182.444        0.085      340.847       15.146      857.835
11/22/2014  10:45:00     -392.192     -349.357       -0.003      270.905      212.341      107.395    73389.580    45088.556    11533.761       20.291        6.501      525.228      105.090        0.040      340.817       15.096      857.762
11/22/2014  10:46:00     -561.203     -369.662       -2.861      333.648      256.266      136.020   111321.218    65672.098    18501.358       32.351        9.775      672.011      141.227        0.044      340.869       15.184      857.817
11/22/2014  10:47:00     -688.978     -340.642       -4.703      313.139      262.841      150.691    98055.885    69085.563    22707.849       39.026        9.492      768.589      154.079        0.040      340.722       14.936      857.744
11/22/2014  10:48:00     -642.513     -542.497      -20.232      390.263      335.556      161.625   152305.168   112597.801    26122.608       49.922       14.551      840.908      191.085        0.052      340.573       14.684      857.635
11/22/2014  10:49:00     -809.681     -361.165      -32.062      307.472      297.109      151.601    94539.176    88273.595    22982.907       49.638       10.290      886.580      174.432        0.039      340.585       14.703      857.544
11/22/2014  10:50:00     -590.044     -299.363      -13.623      279.975      203.946      113.180    78385.912    41594.075    12809.701       28.535        6.639      661.642      128.322        0.038      340.713       14.920      857.592
11/22/2014  10:51:00     -533.656     -234.334       -0.322      319.156      249.976      137.333   101860.528    62488.114    18860.275       26.142        9.160      582.839      160.422        0.076      340.714       14.921      857.550
11/22/2014  10:52:00     -676.289     -425.189      -28.120      319.823      224.499      139.532   102286.859    50399.741    19469.150       40.552        8.608      798.845      162.470        0.041      340.676       14.858      857.450
11/22/2014  10:53:00     -674.519     -353.990      -29.703      386.062      254.358      142.186   149044.127    64698.016    20216.872       40.752       11.698      761.765      179.464        0.056      340.757       14.995      857.437
11/22/2014  10:54:00     -570.036     -363.743        8.595      367.080      308.306      137.850   134747.999    95052.510    19002.490       35.301       12.440      676.203      156.970        0.054      340.754       14.990      857.524
11/22/2014  10:55:00     -565.316     -249.544       -5.805      240.269      218.477      112.605    57729.202    47732.242    12679.863       24.999        5.907      617.943      125.216        0.041      340.726       14.942      857.613
11/22/2014  10:56:00     -601.854     -332.194      -22.464      317.628      294.313      141.890   100887.622    86620.166    20132.646       34.032       10.382      687.445      154.581        0.051      340.731       14.950      857.724
11/22/2014  10:57:00     -697.626     -312.992      -19.159      340.853      273.997      120.767   116181.030    75074.385    14584.746       39.539       10.292      764.621      145.009        0.036      340.662       14.833      857.696
11/22/2014  10:58:00     -572.641     -152.860       -2.984      338.121      264.615      116.734   114326.120    70021.163    13626.928       27.459        9.899      592.692      155.090        0.068      340.693       14.888      857.555
11/22/2014  10:59:00     -562.041     -360.386      -17.274      222.570      171.975      105.420    49537.524    29575.342    11113.388       26.813        4.511      667.659       87.732        0.017      340.742       14.969      857.615
11/22/2014  11:00:00     -430.748     -331.900       -8.789      295.574      193.632      113.205    87364.248    37493.238    12815.368       21.670        6.884      543.785      136.798        0.063      340.804       15.075      857.630
11/22/2014  11:01:00     -501.328     -272.907      -13.209      243.271      180.456      101.050    59180.632    32564.392    10211.015       21.395        5.098      570.796      107.010        0.035      340.873       15.191      857.620
11/22/2014  11:02:00     -635.845     -449.755      -22.669      296.604      309.077      129.058    87973.687    95528.502    16656.092       40.359       10.008      778.831      156.121        0.040      340.604       14.736      857.556
11/22/2014  11:03:00     -645.141     -449.093      -11.646      365.768      273.524      148.234   133786.285    74815.205    21973.183       42.425       11.529      786.060      171.266        0.047      340.439       14.458      857.449
11/22/2014  11:04:00     -688.428     -477.008      -29.854      387.920      269.807      144.376   150481.845    72795.854    20844.337       47.319       12.206      837.538      153.315        0.034      340.417       14.419      857.337
11/22/2014  11:05:00     -554.115     -412.453       -6.829      364.952      295.089      148.766   133189.930    87077.633    22131.361       35.975       12.120      690.768      180.493        0.068      340.578       14.693      857.527
11/22/2014  11:06:00     -423.479     -208.332      -12.383      297.337      213.746       85.143    88409.407    45687.139     7249.294       18.209        7.067      471.950      103.409        0.048      340.671       14.850      857.421
11/22/2014  11:07:00     -291.838     -262.101        9.766      227.073      169.530       99.300    51561.930    28740.527     9860.502       12.204        4.508      392.258      110.216        0.079      340.753       14.987      857.385
11/22/2014  11:08:00     -276.583     -200.678      -11.195      189.979      151.231       84.090    36091.949    22870.941     7071.179        9.145        3.302      341.717       89.924        0.069      340.692       14.884      857.366
11/22/2014  11:09:00     -670.526     -389.926      -28.681      374.221      320.558      131.954   140041.465   102757.307    17411.886       43.129       13.011      775.659      162.781        0.044      340.595       14.721      857.311
11/22/2014  11:10:00     -591.074     -225.393      -25.801      285.620      319.127      113.396    81578.990   101842.251    12858.699       29.852        9.814      632.590      125.736        0.040      340.662       14.835      857.369
11/22/2014  11:11:00     -542.270     -377.188      -18.476      239.827      198.511      117.343    57516.944    39406.717    13769.491       27.366        5.535      660.551      122.745        0.035      340.648       14.811      857.341
11/22/2014  11:12:00     -465.635     -263.159        6.533      294.107      245.178      134.656    86498.883    60112.259    18132.234       22.539        8.237      534.854      146.488        0.075      340.706       14.908      857.435
11/22/2014  11:13:00     -617.021     -230.969      -45.214      329.412      269.807      134.365   108512.586    72796.024    18053.922       31.769        9.968      658.833      154.823        0.055      340.636       14.790      857.347
11/22/2014  11:14:00     -487.365     -272.593       -9.529      331.789      221.088      132.245   110083.621    48880.023    17488.749       24.415        8.823      558.419      148.195        0.070      340.668       14.843      857.370
11/22/2014  11:15:00     -498.803     -104.294       -1.667      322.105      250.526      140.422   103751.369    62763.202    19718.454       22.292        9.312      509.590      163.955        0.104      340.678       14.860      857.386
11/22/2014  11:16:00     -607.944     -301.754      -19.286      368.686      296.484      155.705   135929.557    87902.928    24244.192       35.450       12.404      678.713      186.615        0.076      340.517       14.590      857.370
11/22/2014  11:17:00     -564.426     -412.929      -11.724      304.983      254.603      142.577    93014.404    64822.554    20328.317       33.366        8.908      699.347      151.549        0.047      340.458       14.489      857.357
11/22/2014  11:18:00     -675.084     -360.252      -17.874      316.648      323.853      130.565   100266.028   104880.659    17047.159       40.397       11.110      765.193      131.062        0.029      340.411       14.410      857.402
11/22/2014  11:19:00     -584.803     -282.749      -24.571      265.461      205.992      125.904    70469.618    42432.820    15851.713       27.562        6.438      649.571      131.406        0.041      340.631       14.781      857.506
11/22/2014  11:20:00     -606.941     -291.571      -31.413      329.654      246.625      136.629   108671.713    60823.656    18667.437       32.123        9.408      673.343      146.478        0.047      340.520       14.595      857.420
11/22/2014  11:21:00     -648.469     -270.257      -32.931      251.179      247.156      120.506    63091.100    61086.076    14521.629       31.664        6.935      702.531      129.210        0.034      340.582       14.698      857.348
11/22/2014  11:22:00     -470.230     -222.542      -25.100      285.790      242.296      133.584    81675.720    58707.591    17844.792       21.472        7.911      520.232      143.130        0.076      340.656       14.824      857.354
11/22/2014  11:23:00     -412.612     -233.794       -3.870      207.540      152.346       92.937    43072.820    23209.259     8637.207       14.991        3.746      474.245       92.768        0.038      340.716       14.925      857.452
11/22/2014  11:24:00     -430.353     -255.380      -10.213      208.765      214.821      112.057    43582.662    46148.029    12556.842       17.639        5.114      500.423      113.440        0.051      340.734       14.957      857.368
11/22/2014  11:25:00     -227.931     -179.666       18.614      277.150      154.607       80.849    76811.854    23903.224     6536.613        9.589        5.363      290.228      102.597        0.125      340.814       15.091      857.312
11/22/2014  11:26:00     -344.267     -316.473      -14.488      231.596      208.485       98.262    53636.925    43465.835     9655.358       16.280        5.338      467.627       86.980        0.035      340.529       14.608      857.291
11/22/2014  11:27:00     -665.424     -361.858      -35.683      311.215      232.862      114.726    96854.667    54224.789    13162.050       36.959        8.212      757.450      111.782        0.022      340.483       14.531      857.294
11/22/2014  11:28:00     -748.791     -528.049       -9.583      326.258      203.391      134.337   106444.262    41367.874    18046.517       50.270        8.293      916.256      146.986        0.026      340.360       14.324      857.251
11/22/2014  11:29:00     -694.459     -449.537       -2.292      327.354      221.969      129.721   107160.873    49270.089    16827.431       42.878        8.663      827.259      153.138        0.034      340.375       14.347      857.348
11/22/2014  11:30:00     -446.729     -256.779       12.435      298.191      223.806      134.640    88917.946    50088.907    18127.923       21.136        7.857      515.269      152.194        0.087      340.401       14.394      857.345
11/22/2014  11:31:00     -514.061     -352.000      -24.421      310.672      227.737      125.849    96517.057    51864.219    15838.094       27.646        8.211      623.027      125.183        0.040      340.378       14.355      857.204
11/22/2014  11:32:00     -501.959     -270.501      -24.512      175.166      179.666       92.610    30683.208    32279.789     8576.595       19.862        3.577      570.205       81.542        0.020      340.474       14.516      857.296
11/22/2014  11:33:00     -486.656     -226.022       10.262      267.429      207.017      103.526    71518.036    42855.883    10717.597       20.653        6.255      536.582      101.955        0.036      340.527       14.606      857.321
11/22/2014  11:34:00     -580.538     -405.566      -24.677      424.409      250.583      166.187   180123.002    62792.010    27618.009       38.627       13.527      708.172      201.310        0.081      340.339       14.287      857.248
11/22/2014  11:35:00     -526.532     -221.073        0.139      274.620      233.843      127.796    75416.369    54682.391    16331.700       23.624        7.322      571.060      150.192        0.069      340.364       14.332      857.253
11/22/2014  11:36:00     -435.666     -100.890        9.504      297.058      220.301      130.866    88243.561    48532.483    17125.978       17.696        7.695      447.195      154.002        0.119      340.472       14.511      857.255
11/22/2014  11:37:00     -458.086     -280.827      -31.495      261.569      253.148      131.899    68418.385    64084.120    17397.464       21.977        7.495      537.314      138.822        0.067      340.445       14.469      857.201
11/22/2014  11:38:00     -263.039     -191.800       32.271      272.011      234.425      123.263    73990.209    54955.142    15193.774       12.555        7.207      325.540      147.210        0.204      340.607       14.741      857.167
11/22/2014  11:39:00     -557.332     -262.333      -14.192      388.360      296.242      150.229   150823.666    87759.509    22568.708       32.034       13.058      615.985      182.002        0.087      340.467       14.503      857.199
11/22/2014  11:40:00     -592.844     -186.455      -15.405      317.650      265.229      115.746   100901.399    70346.495    13397.178       28.552        9.232      621.473      135.213        0.047      340.528       14.607      857.212
11/22/2014  11:41:00     -450.907     -279.065       -6.222      281.202      247.495      132.863    79074.441    61253.874    17652.662       21.958        7.899      530.277      142.021        0.072      340.500       14.561      857.200
11/22/2014  11:42:00     -389.391     -151.686      -22.439      283.286      196.743      118.004    80250.875    38707.925    13924.993       15.398        6.644      417.892      132.168        0.100      340.628       14.776      857.243
11/22/2014  11:43:00     -479.018     -287.541      -33.177      234.918      170.740      105.567    55186.309    29152.203    11144.295       20.434        4.774      558.693      104.081        0.035      340.623       14.767      857.310
11/22/2014  11:44:00     -683.389     -335.451      -28.074      285.480      257.722      139.487    81498.953    66420.885    19456.523       37.382        8.369      761.281      134.623        0.031      340.551       14.644      857.281
11/22/2014  11:45:00     -645.294     -271.021       -6.896      325.604      267.513      146.606   106017.735    71563.440    21493.394       34.445        9.954      699.897      161.449        0.053      340.476       14.520      857.180
11/22/2014  11:46:00     -386.744     -211.730       -3.003      215.946      174.153       96.234    46632.759    30329.422     9260.889       14.030        4.311      440.909      114.475        0.067      340.694       14.889      857.187
11/22/2014  11:47:00     -457.247     -301.037      -31.401      284.874      221.064      131.708    81153.086    48869.281    17347.075       22.400        7.368      547.447      140.078        0.065      340.630       14.779      857.286
11/22/2014  11:48:00     -584.822     -229.581      -37.620      225.314      166.509      102.740    50766.377    27725.128    10555.414       24.258        4.452      628.271      102.330        0.027      340.575       14.688      857.237
11/22/2014  11:49:00     -691.991     -213.523      -24.414      310.490      242.538      135.733    96403.933    58824.540    18423.417       34.931        8.683      724.184      151.804        0.044      340.526       14.604      857.183
11/22/2014  11:50:00     -614.373     -294.711      -19.652      358.972      252.250      128.752   128860.705    63629.907    16576.984       33.684       10.453      681.402      157.675        0.054      340.429       14.441      857.088
11/22/2014  11:51:00     -393.817     -189.854       -0.953      245.088      178.563      113.945    60068.360    31884.875    12983.552       14.802        5.247      437.191      129.556        0.088      340.604       14.737      857.117
11/22/2014  11:52:00     -550.423     -357.341       -9.533      323.849      308.850      141.224   104878.266    95388.462    19944.196       32.544       11.011      656.245      171.058        0.068      340.511       14.579      857.071
11/22/2014  11:53:00     -569.964     -369.559      -31.967      322.002      212.518      110.392   103685.062    45163.791    12186.442       31.171        8.052      679.288      150.177        0.049      340.603       14.735      857.056
11/22/2014  11:54:00     -443.538     -263.278      -11.019      243.739      187.262      102.098    59408.908    35067.055    10424.076       18.551        5.245      515.792      117.823        0.052      340.669       14.845      857.072
11/22/2014  11:55:00     -404.747     -315.303       -0.410      280.902      210.077      119.080    78905.990    44132.148    14180.139       20.020        6.861      513.066      141.818        0.076      340.738       14.963      857.102
11/22/2014  11:56:00     -476.092     -378.663      -28.459      201.392      223.685      121.573    40558.773    50034.938    14779.922       23.810        5.269      608.317      118.955        0.038      340.775       15.025      857.078
11/22/2014  11:57:00     -519.665     -312.818       -8.981      270.948      208.801      129.189    73413.057    43598.002    16689.704       25.082        6.685      606.553      144.320        0.057      340.803       15.073      857.042
11/22/2014  11:58:00     -458.886     -283.342      -17.354      289.866      330.329      121.765    84022.237   109117.281    14826.700       24.952       10.398      539.313      162.819        0.091      340.896       15.229      857.041
11/22/2014  11:59:00     -517.917     -306.289      -18.050      349.246      241.269      107.736   121972.874    58210.569    11606.976       27.704        9.590      601.706      147.258        0.060      340.856       15.164      857.013
11/22/2014  12:00:00     -378.473     -197.592      -13.732      281.779      276.484      105.238    79399.164    76443.579    11075.136       17.466        8.346      426.948      135.619        0.101      341.034       15.464      857.066
11/22/2014  12:01:00     -418.774     -289.360      -17.085      252.232      209.691      111.554    63620.744    43970.160    12444.382       18.969        6.002      509.020      112.001        0.048      340.805       15.075      857.053
11/22/2014  12:02:00     -489.335     -383.503       12.982      314.776      196.969      137.115    99084.127    38796.966    18800.655       27.165        7.834      621.709      143.975        0.054      340.734       14.955      856.990
11/22/2014  12:03:00     -638.798     -434.497      -29.547      368.908      258.197      164.041   136093.017    66665.604    26909.319       41.365       11.483      772.561      186.318        0.058      340.561       14.664      856.914
11/22/2014  12:04:00     -571.407     -413.517      -15.741      333.096      216.626      133.042   110952.677    46926.764    17700.182       33.663        8.779      705.338      156.114        0.049      340.554       14.650      856.934
11/22/2014  12:05:00     -470.386     -464.844      -11.195      233.847      240.573      114.679    54684.552    57875.131    13151.180       28.156        6.286      661.319      115.147        0.030      340.600       14.729      856.981
11/22/2014  12:06:00     -618.851     -401.069      -15.945      283.430      262.377      135.803    80332.678    68841.685    18442.362       35.582        8.381      737.450      160.488        0.047      340.520       14.593      857.042
11/22/2014  12:07:00     -470.663     -240.074      -16.044      276.942      201.196      129.496    76697.094    40479.921    16769.299       20.665        6.697      528.355      122.065        0.053      340.643       14.803      857.047
11/22/2014  12:08:00     -488.275     -323.426        0.202      324.290      223.919      150.038   105163.747    50139.914    22511.367       26.038        8.891      585.676      163.701        0.078      340.620       14.761      857.079
11/22/2014  12:09:00     -611.700     -283.429      -33.174      312.163      279.249      123.835    97445.918    77980.105    15334.989       32.315        9.538      674.173      149.423        0.049      340.468       14.507      857.192
11/22/2014  12:10:00     -390.071     -317.431      -13.389      251.088      205.217      119.658    63045.391    42113.940    14318.152       18.626        5.974      502.910      133.107        0.070      340.684       14.873      857.234
11/22/2014  12:11:00     -501.228     -338.258        7.684      335.049      285.825      141.132   112257.769    81695.983    19918.124       28.975       10.694      604.688      183.709        0.092      340.649       14.811      857.182
11/22/2014  12:12:00     -659.030     -395.363       11.135      360.436      287.799      155.221   129913.845    82828.153    24093.644       41.375       11.842      768.526      171.005        0.050      340.589       14.712      857.194
11/22/2014  12:13:00     -609.202     -440.412       -8.092      328.477      283.655      153.554   107897.299    80460.173    23578.976       38.850       10.597      751.725      180.662        0.058      340.330       14.273      857.176
11/22/2014  12:14:00     -416.481     -365.203       -5.579      305.365      241.227      113.211    93247.820    58190.627    12816.823       23.553        8.213      553.921      130.354        0.055      340.589       14.710      857.234
11/22/2014  12:15:00     -573.668     -499.974      -15.279      289.747      316.760      163.000    83953.361   100336.593    26568.995       39.504       10.543      760.966      162.259        0.045      340.459       14.491      857.178
11/22/2014  12:16:00     -631.116     -405.993       -7.528      338.509      281.642      127.980   114588.204    79322.438    16378.814       38.670       10.514      750.425      141.324        0.035      340.344       14.298      857.172
11/22/2014  12:17:00     -308.197     -318.747       26.701      267.894      255.889      130.387    71767.431    65479.335    17000.863       17.574        7.712      443.380      149.786        0.114      340.550       14.645      857.198
11/22/2014  12:18:00     -703.750     -463.061      -15.188      403.015      269.727      159.409   162421.231    72752.578    25411.288       48.520       13.029      842.431      185.708        0.049      340.420       14.424      857.288
11/22/2014  12:19:00     -701.121     -339.284      -16.446      366.487      282.869      129.366   134312.890    80014.825    16735.648       41.896       11.553      778.900      151.204        0.038      340.394       14.381      857.308
11/22/2014  12:20:00     -770.005     -290.323       -2.430      357.162      274.413      141.634   127564.794    75302.631    20060.120       45.002       11.146      822.919      157.456        0.037      340.374       14.346      857.145
11/22/2014  12:21:00     -613.206     -136.975      -46.245      330.362      201.421      119.911   109139.142    40570.605    14378.699       28.047        8.204      628.318      132.950        0.045      340.573       14.683      857.244
11/22/2014  12:22:00     -471.255     -201.166        1.658      259.193      183.793      118.579    67180.924    33780.018    14060.992       18.876        5.751      512.396      124.533        0.059      340.711       14.916      857.272
11/22/2014  12:23:00     -328.384     -272.594       -0.667      198.126      163.615       99.938    39253.852    26769.874     9987.599       12.906        3.801      426.782      109.565        0.066      340.740       14.967      857.328
11/22/2014  12:24:00     -449.283     -225.291      -11.817      294.379      183.140      107.568    86658.837    33540.288    11570.904       19.223        6.589      502.605      121.135        0.058      340.658       14.828      857.375
11/22/2014  12:25:00     -552.203     -256.066      -35.829      347.981      230.654      132.404   121090.573    53201.086    17530.888       28.176        9.591      608.686      145.006        0.057      340.632       14.784      857.299
11/22/2014  12:26:00     -309.329     -259.670       20.146      340.103      239.730      127.296   115669.895    57470.595    16204.303       17.639        9.467      403.873      134.428        0.111      340.749       14.981      857.330
11/22/2014  12:27:00     -573.078     -219.796      -29.099      296.623      271.933      111.231    87985.004    73947.365    12372.340       27.591        8.715      613.783      126.874        0.043      340.736       14.959      857.239
11/22/2014  12:28:00     -564.372     -136.700      -16.955      300.312      196.785      100.944    90187.128    38724.323    10189.731       23.827        6.955      580.692      124.751        0.046      340.518       14.590      857.233
11/22/2014  12:29:00     -449.871     -241.692       -8.892      234.681      231.290      122.174    55075.060    53495.275    14926.527       19.216        6.175      510.685      128.232        0.063      340.472       14.512      857.230
11/22/2014  12:30:00     -517.268     -349.015       -0.835      269.096      233.187      117.055    72412.687    54375.988    13701.799       26.491        7.025      624.002      128.159        0.042      340.323       14.261      857.262
11/22/2014  12:31:00     -590.435     -376.484        1.349      407.675      264.281      137.656   166198.537    69844.230    18949.220       37.262       12.750      700.253      167.260        0.057      340.397       14.387      857.306
11/22/2014  12:32:00     -545.695     -336.594      -27.690      293.578      244.210      130.637    86187.893    59638.391    17065.929       28.734        8.145      641.154      135.373        0.045      340.435       14.450      857.298
11/22/2014  12:33:00     -584.234     -209.963      -22.188      271.451      269.220      117.093    73685.610    72479.265    13710.777       27.286        7.994      620.817      152.622        0.060      340.378       14.354      857.280
11/22/2014  12:34:00     -423.661     -216.196       -4.874      238.099      172.287       98.779    56691.309    29682.676     9757.316       16.117        4.807      475.636      112.210        0.056      340.571       14.680      857.349
11/22/2014  12:35:00     -270.550     -160.893       10.257      222.867      161.413       97.495    49669.825    26054.306     9505.366        9.219        4.261      314.775      127.602        0.164      340.778       15.030      857.389
11/22/2014  12:36:00     -394.944     -245.071      -26.711      159.464      166.147       81.868    25428.681    27604.934     6702.387       13.823        2.987      464.801       61.885        0.018      340.677       14.858      857.367
11/22/2014  12:37:00     -231.915     -210.592       17.352      247.346      193.077       99.803    61179.938    37278.807     9960.647       10.341        5.421      313.263      128.086        0.167      340.632       14.784      857.326
11/22/2014  12:38:00     -605.859     -408.054       -1.059      332.288      283.309      125.981   110415.294    80264.195    15871.334       37.002       10.328      730.461      161.620        0.049      340.381       14.360      857.264
11/22/2014  12:39:00     -523.192     -281.404      -21.897      233.427      215.621      107.733    54488.032    46492.565    11606.459       23.297        5.629      594.069      119.472        0.040      340.507       14.571      857.311
11/22/2014  12:40:00     -556.560     -299.979       -2.662      301.636      257.384      116.548    90984.302    66246.332    13583.540       28.525        8.541      632.255      143.178        0.051      340.446       14.468      857.345
11/22/2014  12:41:00     -551.157     -455.762      -25.604      312.880      253.523      133.940    97893.653    64273.793    17940.049       34.609        9.005      715.187      150.615        0.044      340.253       14.141      857.414
11/22/2014  12:42:00     -336.660     -257.521       16.714      240.296      204.684      119.429    57742.062    41895.720    14263.351       14.690        5.695      423.860      136.877        0.104      340.346       14.299      857.467
11/22/2014  12:43:00     -691.943     -399.039      -27.463      373.058      273.910      131.474   139172.233    75026.804    17285.396       43.508       11.574      798.760      165.945        0.043      340.207       14.065      857.367
11/22/2014  12:44:00     -685.282     -467.193      -34.364      259.347      251.551      141.216    67260.741    63277.972    19941.986       41.974        7.524      829.386      141.115        0.029      340.332       14.276      857.343
11/22/2014  12:45:00     -630.195     -453.873      -15.042      338.659      333.535      142.482   114689.665   111245.328    20301.165       42.476       12.312      776.625      162.684        0.044      340.265       14.164      857.347
11/22/2014  12:46:00     -709.642     -443.145      -42.164      317.478      262.579      143.554   100792.032    68947.632    20607.870       44.601        9.517      836.642      157.893        0.036      340.139       13.950      857.370
11/22/2014  12:47:00     -410.120     -311.734       -7.133      258.021      211.718      105.367    66574.743    44824.565    11102.154       19.394        6.125      515.147      124.865        0.059      340.299       14.220      857.391
11/22/2014  12:48:00     -251.870     -188.706       17.808      159.837      164.178       86.283    25547.764    26954.320     7444.674        7.964        2.997      314.720       82.061        0.068      340.567       14.674      857.405
11/22/2014  12:49:00     -632.257     -407.422      -23.664      368.393      285.920      151.922   135713.045    81750.461    23080.379       40.337       12.027      752.158      183.596        0.060      340.289       14.204      857.344
11/22/2014  12:50:00     -835.140     -464.016      -27.008      373.977      329.258      162.010   139859.112   108410.991    26247.386       59.395       13.726      955.390      196.212        0.042      340.046       13.794      857.341
11/22/2014  12:51:00     -498.634     -368.437       -6.393      341.253      283.432      124.607   116453.289    80333.892    15527.019       29.833       10.616      619.985      141.626        0.052      340.304       14.229      857.457
11/22/2014  12:52:00     -290.192     -183.979       27.317      264.404      178.505      119.589    69909.312    31863.877    14301.491       11.742        5.804      343.598      138.918        0.163      340.501       14.563      857.528
11/22/2014  12:53:00     -402.234     -330.470       -1.096      267.077      319.941      132.390    71330.207   102362.213    17527.232       23.107        9.561      520.580      136.087        0.068      340.459       14.490      857.518
11/22/2014  12:54:00     -578.585     -117.139      -27.331      341.988      202.362      123.594   116955.826    40950.203    15275.543       26.117        8.659      590.324      153.335        0.067      340.385       14.365      857.556
11/22/2014  12:55:00     -511.154     -212.348      -13.569      300.527      247.687      142.069    90316.751    61348.655    20183.591       23.917        8.592      553.507      147.510        0.071      340.279       14.187      857.531
11/22/2014  12:56:00     -339.494     -182.121        8.676      279.194      228.951      115.756    77949.482    52418.703    13399.473       14.610        7.188      385.259      141.459        0.135      340.418       14.421      857.529
11/22/2014  12:57:00     -707.046     -427.426       -8.898      311.935      355.833      141.227    97303.675   126617.341    19945.201       46.323       12.193      826.201      154.602        0.035      340.232       14.107      857.587
11/22/2014  12:58:00     -734.033     -435.461      -12.233      389.756      265.312      141.167   151909.925    70390.355    19928.092       48.536       12.111      853.481      152.749        0.032      340.085       13.859      857.582
11/22/2014  12:59:00     -792.446     -521.572       -2.750      433.993      263.646      162.013   188349.840    69509.035    26248.140       59.200       14.205      948.687      197.020        0.043      340.101       13.884      857.530
11/22/2014  13:00:00     -607.859     -278.675       17.489      371.204      255.758      129.075   137792.570    65412.112    16660.473       33.362       10.993      668.695      156.004        0.054      340.144       13.958      857.488
11/22/2014  13:01:00     -486.009     -353.624        9.720      344.503      280.333      136.853   118682.072    78586.580    18728.822       28.863       10.800      601.045      171.172        0.081      340.170       14.002      857.484
11/22/2014  13:02:00     -749.473     -492.209      -24.781      328.541      289.873      141.190   107938.928    84026.326    19934.591       50.820       10.595      896.649      164.366        0.034      340.025       13.757      857.423
11/22/2014  13:03:00     -661.717     -370.346      -38.491      344.638      244.784      115.529   118775.084    59919.190    13346.930       38.424        9.602      758.305      149.896        0.039      339.976       13.673      857.470
11/22/2014  13:04:00     -621.403     -370.060        3.784      322.225      267.249      134.402   103828.844    71421.832    18063.948       35.817        9.666      723.247      155.267        0.046      339.990       13.697      857.453
11/22/2014  13:05:00     -677.764     -495.000       16.113      461.531      312.706      175.779   213011.109    97785.312    30898.250       52.310       17.085      839.279      219.971        0.069      340.040       13.784      857.443
11/22/2014  13:06:00     -570.102     -426.812      -12.386      277.159      284.779      160.228    76817.351    81098.977    25673.169       34.543        9.179      712.169      166.551        0.055      339.979       13.679      857.505
11/22/2014  13:07:00     -401.774     -268.072       27.583      258.853      213.875      120.843    67004.829    45742.641    14603.115       18.067        6.368      482.996      136.326        0.080      340.033       13.772      857.624
11/22/2014  13:08:00     -524.439     -417.688      -28.969      219.798      251.354      105.256    48311.064    63178.878    11078.846       28.643        6.128      670.447      115.831        0.030      339.992       13.701      857.701
11/22/2014  13:09:00     -789.667     -397.513      -39.506      355.608      346.428      141.719   126456.700   120012.515    20084.157       52.480       13.328      884.076      157.303        0.032      339.888       13.526      857.701
11/22/2014  13:10:00     -731.904     -389.611      -32.853      386.851      296.206      149.853   149653.683    87737.903    22455.805       47.415       12.992      829.144      188.434        0.052      339.975       13.673      857.617
11/22/2014  13:11:00     -579.817     -142.280      -28.043      377.385      307.530      162.850   142419.144    94574.815    26520.199       31.031       13.176      597.019      177.039        0.088      340.003       13.720      857.722
11/22/2014  13:12:00     -531.351     -215.076       -0.923      351.719      266.682      127.451   123706.528    71119.144    16243.696       26.979       10.553      573.229      155.242        0.073      339.947       13.626      857.701
11/22/2014  13:13:00     -389.480     -167.628      -26.999      236.565      206.179       95.313    55962.932    42509.911     9084.524       14.402        5.378      424.021      116.057        0.075      339.999       13.713      857.701
11/22/2014  13:14:00     -564.569     -155.855      -39.485      256.666      187.921      113.673    65877.336    35314.443    12921.611       22.933        5.706      585.687      127.423        0.047      340.048       13.795      857.751
11/22/2014  13:15:00     -313.129     -169.781       -9.240      201.606      121.342       74.223    40645.009    14723.913     5509.061        9.391        3.044      356.196       93.186        0.068      340.147       13.963      857.778
11/22/2014  13:16:00     -382.838     -141.255      -13.483      172.796      175.495       96.125    29858.412    30798.545     9239.937       11.828        3.495      408.066       88.478        0.047      340.195       14.043      857.834
11/22/2014  13:17:00     -432.251      -61.691      -17.533      188.725      182.926       94.238    35616.988    33461.868     8880.790       13.444        3.898      436.631      106.860        0.060      340.220       14.087      857.820
11/22/2014  13:18:00     -496.548     -267.224      -24.415      281.581      208.705      100.589    79288.000    43557.851    10118.068       22.574        6.648      563.886      106.440        0.036      340.109       13.899      857.789
11/22/2014  13:19:00     -370.588     -231.913       -0.075      243.106      174.098       97.801    59100.613    30310.077     9565.108       14.503        4.949      437.172      104.819        0.057      339.989       13.698      857.710
11/22/2014  13:20:00     -388.795     -233.560        8.886      277.972      189.575      121.626    77268.626    35938.690    14792.888       16.687        6.400      453.555      143.332        0.100      340.000       13.716      857.677
11/22/2014  13:21:00     -444.932     -346.835       17.849      306.649      256.470      140.462    94033.886    65776.875    19729.708       24.902        8.977      564.144      152.514        0.073      340.033       13.772      857.702
11/22/2014  13:22:00     -414.926     -208.854       19.833      285.245      219.550      123.350    81364.628    48202.245    15215.137       18.045        7.239      464.525      146.538        0.100      340.156       13.978      857.732
11/22/2014  13:23:00     -510.454     -265.278       -7.505      271.348      201.859      120.479    73629.735    40746.980    14515.205       22.992        6.445      575.270      134.963        0.055      340.141       13.953      857.791
11/22/2014  13:24:00     -522.874     -288.082      -20.535      255.402      239.219      125.140    65230.113    57225.744    15659.916       24.744        6.906      596.983      143.260        0.058      340.030       13.766      857.821
11/22/2014  13:25:00     -480.789     -213.795       -8.721      201.345      193.665       84.937    40539.774    37506.068     7214.350       18.108        4.263      526.181       89.244        0.029      339.998       13.711      857.766
11/22/2014  13:26:00     -391.561     -204.507       -9.482      214.857      164.734       93.431    46163.550    27137.204     8729.290       13.862        4.102      441.750       85.742        0.038      340.095       13.877      857.738
11/22/2014  13:27:00     -252.224     -122.416       -6.629      197.588      121.463       84.995    39040.983    14753.149     7224.084        6.982        3.051      280.362       99.158        0.125      340.107       13.896      857.702
11/22/2014  13:28:00     -432.484     -200.481      -26.516      158.800      166.863       80.852    25217.546    27843.411     6537.077       14.376        2.980      476.692       63.889        0.018      340.110       13.900      857.721
11/22/2014  13:29:00     -471.894     -349.179      -22.315      261.072      249.722      115.742    68158.441    62360.847    13396.278       24.448        7.196      587.035      125.133        0.045      340.078       13.847      857.696
11/22/2014  13:30:00     -541.517     -306.060        1.998      304.872      184.930      127.505    92946.801    34199.165    16257.496       26.513        7.170      622.024      147.332        0.056      340.173       14.007      857.810
11/22/2014  13:31:00     -475.265     -217.760       -9.897      246.166      260.477      120.466    60597.473    67848.377    14512.073       20.815        7.148      522.777      131.760        0.064      340.193       14.040      857.908
11/22/2014  13:32:00     -490.898     -371.030      -19.314      292.813      207.246      106.144    85739.298    42950.768    11266.590       25.946        6.998      615.340       96.170        0.024      340.204       14.060      857.919
11/22/2014  13:33:00     -421.536      -54.211       -0.135      262.382      222.853      107.955    68844.056    49663.579    11654.185       15.537        6.508      425.008      106.042        0.062      340.073       13.839      857.841
11/22/2014  13:34:00     -264.186     -178.287        8.827      185.593      200.816      102.663    34444.775    40327.198    10539.765        9.347        4.266      318.717      111.426        0.122      340.076       13.844      857.784
11/22/2014  13:35:00     -618.128     -350.629      -18.693      244.031      205.835      114.179    59551.259    42368.210    13036.763       31.014        5.748      710.650      121.770        0.029      339.948       13.629      857.767
11/22/2014  13:36:00     -421.488     -331.088      -17.456      261.897      198.830      120.112    68589.780    39533.357    14426.944       20.504        6.128      535.977      131.646        0.060      339.956       13.641      857.792
11/22/2014  13:37:00     -421.751     -264.061       -3.716      319.647      207.982      137.033   102174.173    43256.699    18778.064       20.588        8.210      497.596      159.510        0.103      339.922       13.583      857.749
11/22/2014  13:38:00     -504.774     -348.095       -3.654      270.661      202.472      112.496    73257.580    40994.902    12655.423       25.142        6.345      613.161      133.909        0.048      339.845       13.454      857.777
11/22/2014  13:39:00     -433.499     -141.445      -32.469      293.698      223.878      101.688    86258.434    50121.409    10340.411       17.782        7.336      455.991      126.146        0.077      339.857       13.474      857.798
11/22/2014  13:40:00     -512.262     -133.352      -50.408      160.447      204.854       81.206    25743.265    41965.126     6594.384       17.850        3.715      529.334       74.608        0.020      339.945       13.623      857.818
11/22/2014  13:41:00     -291.431     -103.698       -1.082      209.040      172.832      108.169    43697.794    29870.776    11700.590        9.046        4.263      309.330      128.257        0.172      339.971       13.667      857.862
11/22/2014  13:42:00     -189.752      -86.161       10.822      125.023      104.308       61.847    15630.706    10880.251     3825.016        3.694        1.517      208.397       60.777        0.085      340.073       13.837      857.984
11/22/2014  13:43:00     -244.755     -191.905       19.322      239.649      181.332      102.491    57431.827    32881.219    10504.314        9.894        5.041      311.019      114.683        0.136      340.027       13.763      858.076
11/22/2014  13:44:00     -371.122     -132.385       -0.919      196.899      143.416       89.805    38769.250    20568.271     8064.911       11.132        3.370      394.027       85.145        0.047      339.994       13.705      858.111
11/22/2014  13:45:00     -353.832      -89.361      -13.489      214.579      149.927       84.240    46044.057    22478.027     7096.344       10.448        3.781      364.942       90.254        0.061      339.950       13.631      858.045
11/22/2014  13:46:00     -206.166     -131.884       23.379      184.405      123.035       65.261    34005.028    15137.587     4258.993        5.691        2.670      244.740       91.356        0.139      339.943       13.620      858.018
11/22/2014  13:47:00     -426.651     -255.422      -26.090      309.616      246.721      110.065    95862.199    60871.471    12114.235       20.837        8.442      497.264      117.201        0.056      339.632       13.095      858.025
11/22/2014  13:48:00     -424.506     -208.658      -25.073      203.973      133.796       81.529    41604.886    17901.490     6647.019       14.525        3.308      473.015       72.957        0.024      339.619       13.074      857.998
11/22/2014  13:49:00     -391.632     -161.158       10.627      267.007      206.694      109.211    71292.993    42722.467    11927.091       15.268        6.297      423.495      121.737        0.083      339.686       13.185      858.059
11/22/2014  13:50:00     -583.132      -66.294      -36.017      318.530      190.462      140.764   101461.081    36275.896    19814.418       25.161        7.878      586.888      145.094        0.061      339.721       13.246      858.086
11/22/2014  13:51:00     -496.160     -376.267      -10.358      269.800      208.656      135.068    72791.977    43537.382    18243.346       26.119        6.729      622.697      133.978        0.046      339.725       13.252      858.108
11/22/2014  13:52:00     -463.488     -210.765       -1.747      251.530      211.711      103.802    63267.455    44821.550    10774.885       18.903        5.943      509.159      118.006        0.054      339.884       13.519      858.216
11/22/2014  13:53:00     -387.563     -300.625        5.100      261.264      264.075      124.644    68258.762    69735.682    15536.164       19.704        7.677      490.490      139.347        0.081      339.907       13.560      858.248
11/22/2014  13:54:00     -262.151     -166.885       -8.913      234.291      207.109      103.915    54892.131    42894.007    10798.321       10.260        5.429      310.764      126.542        0.166      339.986       13.691      858.218
11/22/2014  13:55:00     -465.008     -201.231      -16.203      214.989      185.545       94.022    46220.177    34426.797     8840.110       17.322        4.474      506.682       99.847        0.039      339.934       13.604      858.131
11/22/2014  13:56:00     -439.830     -110.411      -22.454      251.222      225.273      113.435    63112.312    50748.018    12867.454       16.641        6.336      453.477      121.488        0.072      339.977       13.676      858.074
11/22/2014  13:57:00     -504.600     -297.573       -4.365      257.816      217.167      118.878    66469.315    47161.668    14131.985       23.545        6.388      585.808      136.783        0.055      339.839       13.443      858.088
11/22/2014  13:58:00     -360.487     -175.073       -7.780      304.796      193.739      109.778    92900.785    37534.842    12051.181       15.155        7.124      400.751      143.292        0.128      339.828       13.427      858.084
11/22/2014  13:59:00     -231.777     -120.959      -11.512      165.426      166.014       85.393    27365.719    27560.737     7291.982        6.534        3.111      261.441       96.085        0.135      339.988       13.694      858.146
11/22/2014  14:00:00     -298.598     -212.655       -3.466      201.820      135.354       85.885    40731.361    18320.665     7376.235       10.040        3.321      366.582       94.355        0.066      339.906       13.557      858.113
11/22/2014  14:01:00     -494.512     -211.801      -29.071      260.387      205.520      101.068    67801.159    42238.381    10214.760       20.523        6.013      537.961      118.260        0.048      339.775       13.337      857.975
11/22/2014  14:02:00     -419.093     -111.615      -22.554      303.321      173.204      103.833    92003.425    29999.456    10781.219       16.067        6.639      433.701      134.662        0.096      339.804       13.385      858.087
11/22/2014  14:03:00     -358.940      -73.295        6.908      225.493      217.041      104.704    50847.182    47106.955    10962.982       12.157        5.446      366.347      109.881        0.090      339.941       13.615      858.042
11/22/2014  14:04:00     -606.979      -77.919      -24.741      236.892      202.395      113.895    56117.796    40963.600    12972.085       24.256        5.503      611.960      127.563        0.043      339.823       13.418      858.126
11/22/2014  14:05:00     -444.864     -272.647        0.173      288.805      204.190      130.324    83408.355    41693.729    16984.413       20.714        7.104      521.767      155.169        0.088      339.680       13.176      858.112
11/22/2014  14:06:00     -490.522     -150.477      -16.647      295.651      230.280      117.983    87409.227    53028.829    13919.960       20.891        7.718      513.084      137.639        0.072      339.653       13.130      858.148
11/22/2014  14:07:00     -558.220     -216.568      -22.708      350.931      282.887      127.941   123152.259    80025.090    16368.894       28.924       10.977      598.758      143.635        0.058      339.534       12.929      858.199
11/22/2014  14:08:00     -380.112     -147.704       -7.658      290.652      214.635      113.371    84478.507    46068.384    12852.969       15.485        7.170      407.801      127.447        0.098      339.537       12.934      858.212
11/22/2014  14:09:00     -425.798      -90.380       -8.947      233.716      160.838      112.449    54622.948    25868.809    12644.750       14.133        4.657      435.285      123.346        0.080      339.559       12.973      858.280
11/22/2014  14:10:00     -393.410      -69.685       -8.351      282.994      239.935      128.270    80085.372    57568.959    16453.070       15.687        7.705      399.534      142.636        0.127      339.584       13.013      858.315
11/22/2014  14:11:00     -959.241     -132.306      -50.220      408.458      318.216      165.657   166838.216   101261.379    27442.095       61.780       14.777      968.322      196.503        0.041      339.438       12.768      858.360
11/22/2014  14:12:00     -685.851     -233.908      -30.509      350.041      313.566      149.913   122528.553    98323.730    22473.783       38.463       12.166      724.641      163.952        0.051      339.418       12.733      858.405
11/22/2014  14:13:00     -727.489      -52.396      -50.116      349.426      234.948      123.176   122098.207    55200.710    15172.208       36.344        9.624      729.373      163.143        0.050      339.428       12.750      858.423
11/22/2014  14:14:00     -645.986      -97.988      -22.383      318.933      253.300      132.400   101718.083    64161.016    17529.649       30.537        9.170      653.376      163.915        0.063      339.402       12.705      858.420
11/22/2014  14:15:00     -364.853     -209.037       -8.286      213.787      270.483      122.631    45704.791    73161.193    15038.433       15.537        6.695      420.493      107.803        0.066      339.395       12.696      858.396
11/22/2014  14:16:00     -359.505     -166.418       -8.140      237.134      151.312       94.889    56232.533    22895.418     9003.837       12.255        4.407      396.155      110.733        0.078      339.460       12.806      858.414
11/22/2014  14:17:00     -292.167     -157.976       12.454      208.854      177.211       95.350    43619.939    31403.912     9091.602        9.728        4.206      332.141       93.671        0.080      339.493       12.862      858.434
11/22/2014  14:18:00     -562.516      -85.975      -23.178      270.909      286.518      108.963    73391.522    82092.389    11872.836       24.582        8.368      569.048      119.616        0.044      339.452       12.792      858.437
11/22/2014  14:19:00     -498.620     -120.479      -23.683      292.133      210.531      115.731    85341.668    44323.512    13393.676       20.335        7.153      512.969      139.910        0.074      339.519       12.905      858.465
11/22/2014  14:20:00     -637.923     -229.020      -38.347      264.408      254.388      129.629    69911.659    64713.227    16803.711       30.612        7.571      677.788      145.244        0.046      339.403       12.710      858.437
11/22/2014  14:21:00     -391.159     -143.973       -4.295      300.990      218.919      121.738    90595.165    47925.611    14820.065       16.352        7.667      416.814      126.110        0.092      339.396       12.697      858.441
11/22/2014  14:22:00     -514.066     -143.101      -11.318      359.143      247.088      138.689   128983.417    61052.410    19234.615       24.703       10.464      533.612      162.650        0.093      339.420       12.737      858.334
11/22/2014  14:23:00     -474.488      -84.198      -44.174      322.706      220.991      128.809   104139.199    48836.897    16591.817       20.184        8.478      481.901      144.095        0.089      339.357       12.633      858.294
11/22/2014  14:24:00     -580.325      -82.507       -8.665      280.893      207.629      117.431    78901.157    43109.823    13790.045       23.970        6.790      586.160      122.872        0.044      339.341       12.604      858.300
11/22/2014  14:25:00     -438.230      -64.357      -18.774      295.262      160.297      101.245    87179.815    25695.288    10250.555       15.981        6.156      442.931      133.924        0.091      339.373       12.658      858.290
11/22/2014  14:26:00     -559.131     -283.297      -15.088      310.273      222.039      134.458    96269.520    49301.170    18078.919       27.835        8.182      626.805      163.744        0.068      339.366       12.647      858.311
11/22/2014  14:27:00     -313.926     -137.283      -11.481      218.005      166.437       82.411    47526.323    27701.272     6791.521        9.976        4.101      342.631       90.424        0.070      339.427       12.750      858.367
11/22/2014  14:28:00     -356.407      -49.109      -15.320      136.961      123.013       74.104    18758.333    15132.180     5491.431        8.452        1.969      359.775       65.414        0.033      339.448       12.784      858.378
11/22/2014  14:29:00     -585.951     -204.991      -21.473      333.007      204.020      114.786   110893.343    41624.239    13175.908       27.572        8.285      620.774      117.509        0.036      339.332       12.588      858.400
11/22/2014  14:30:00     -497.368      -93.495      -14.629      213.971      227.134      104.821    45783.621    51589.738    10987.526       18.232        5.418      506.079       96.633        0.036      339.399       12.702      858.335
11/22/2014  14:31:00     -586.210     -265.839      -39.385      282.315      214.451      120.988    79701.879    45989.313    14638.108       27.807        7.016      643.671      121.337        0.036      339.333       12.590      858.390
11/22/2014  14:32:00     -526.866     -148.759        6.133      283.569      278.121      121.516    80411.545    77351.114    14766.063       23.611        8.626      547.464      123.072        0.051      339.462       12.809      858.474
11/22/2014  14:33:00     -632.739     -345.735      -31.865      281.501      260.213      124.342    79242.681    67710.745    15460.924       34.163        8.121      721.034      133.477        0.034      339.401       12.705      858.413
11/22/2014  14:34:00     -522.134     -227.975      -14.978      263.233      264.547      118.595    69291.552    69985.131    14064.871       23.905        7.667      569.733      122.474        0.046      339.487       12.850      858.448
11/22/2014  14:35:00     -505.033     -313.999      -19.723      327.156      243.140      120.909   107030.793    59117.283    14619.059       26.737        9.038      594.688      130.630        0.048      339.411       12.722      858.364
11/22/2014  14:36:00     -660.792     -153.509      -31.839      290.228      226.224      113.033    84232.406    51177.405    12776.383       30.468        7.409      678.389      124.495        0.034      339.447       12.782      858.545
11/22/2014  14:37:00     -630.244     -108.204      -16.328      308.159      230.319      140.074    94962.015    53046.767    19620.824       28.837        8.381      639.466      156.794        0.060      339.367       12.648      858.611
11/22/2014  14:38:00     -554.104      -38.624      -12.211      379.904      206.003      134.699   144326.770    42437.145    18143.926       25.675       10.245      555.448      154.845        0.078      339.402       12.707      858.644
11/22/2014  14:39:00     -785.085      -91.451      -53.700      335.114      237.751      121.122   112301.524    56525.775    14670.594       40.552        9.175      790.394      136.853        0.030      339.280       12.502      858.581
11/22/2014  14:40:00     -761.927     -163.545      -45.641      331.830      258.749      121.390   110111.069    66950.954    14735.481       40.054        9.590      779.282      133.822        0.029      339.255       12.460      858.555
11/22/2014  14:41:00     -679.788     -140.260      -25.643      397.489      283.524      114.686   157997.568    80385.785    13152.812       36.694       12.577      694.107      144.886        0.044      339.234       12.426      858.544
11/22/2014  14:42:00     -311.811     -100.348      -19.109      203.339      166.228       82.200    41346.747    27631.609     6756.875        9.168        3.787      327.560       92.534        0.080      339.358       12.633      858.617
11/22/2014  14:43:00     -305.213      -18.308       -7.668      246.291      171.736      113.541    60659.168    29493.159    12891.589        9.828        5.152      305.762      116.158        0.144      339.403       12.710      858.695
11/22/2014  14:44:00     -547.631     -193.361      -20.867      264.442      208.964      115.053    69929.800    43666.011    13237.241       23.225        6.342      580.765      125.475        0.047      339.352       12.622      858.714
11/22/2014  14:45:00     -690.268       23.036      -21.631      410.702      279.507      145.987   168676.428    78124.079    21312.115       37.274       13.406      690.652      185.763        0.072      339.365       12.645      858.759
11/22/2014  14:46:00     -624.770     -253.990       -1.836      354.535      317.493      161.484   125695.058   100801.925    26077.034       35.366       12.629      674.425      201.991        0.090      339.302       12.540      858.869
11/22/2014  14:47:00     -554.091     -162.388      -22.923      242.906      307.560      119.782    59003.290    94593.122    14347.729       25.089        8.397      577.397      112.491        0.038      339.342       12.606      858.941
11/22/2014  14:48:00     -487.904      -62.207      -31.643      240.209      157.315       91.157    57700.318    24747.936     8309.661       16.682        4.538      491.853      100.694        0.042      339.283       12.507      858.940
11/22/2014  14:49:00     -550.401        3.789      -34.157      300.730      185.930       97.465    90438.393    34569.859     9499.406       21.929        6.725      550.414      110.389        0.040      339.284       12.510      858.869
11/22/2014  14:50:00     -587.454      -43.154      -22.301      276.780      210.651      114.680    76606.897    44373.905    13151.550       24.077        6.707      589.036      124.086        0.044      339.276       12.497      858.887
11/22/2014  14:51:00     -670.620      -99.615      -50.590      349.512      261.951      108.933   122158.668    68618.570    11866.450       33.239       10.132      677.979      118.563        0.031      339.276       12.495      859.011
11/22/2014  14:52:00     -728.731     -108.583      -41.443      329.574      201.704      135.202   108619.120    40684.626    18279.460       35.604        8.379      736.776      154.732        0.044      339.214       12.392      859.203
11/22/2014  14:53:00     -480.211      -88.872        1.583      372.253      196.087      146.995   138572.623    38450.028    21607.645       21.853        9.932      488.366      180.297        0.136      339.274       12.492      859.271
11/22/2014  14:54:00     -616.831     -121.377      -29.129      330.095      269.907      133.375   108962.817    72849.861    17788.987       29.779        9.980      628.659      160.356        0.065      339.210       12.385      859.277
11/22/2014  14:55:00     -599.025       16.544      -45.884      333.780      175.769      116.316   111408.797    30894.578    13529.450       25.849        7.792      599.253      130.630        0.048      339.207       12.380      859.217
11/22/2014  14:56:00     -581.037     -118.751      -22.247      309.890      284.357      118.957    96031.556    80859.115    14150.685       27.158        9.552      593.047      133.847        0.051      339.140       12.267      859.185
11/22/2014  14:57:00     -843.626      -90.349      -56.190      321.560      302.612      138.018   103401.060    91574.217    19049.077       46.848       10.701      848.450      144.333        0.029      339.036       12.091      859.219
11/22/2014  14:58:00     -531.000     -116.653       -1.522      310.955      271.006      128.584    96693.067    73444.282    16533.964       24.108        9.334      543.663      153.269        0.079      339.121       12.233      859.278
11/22/2014  14:59:00     -623.802     -139.604      -15.373      335.073      227.460      126.276   112274.069    51738.195    15945.610       29.437        8.998      639.233      144.067        0.051      339.100       12.199      859.219
11/22/2014  15:00:00     -648.649     -150.778      -47.992      330.357      256.146      120.232   109135.693    65610.670    14455.770       31.745        9.460      665.943      155.231        0.054      339.100       12.199      859.309
11/22/2014  15:01:00     -663.522     -212.701      -15.294      298.561      262.511      124.216    89138.500    68911.802    15429.624       32.957        8.674      696.780      130.702        0.035      338.998       12.029      859.327
11/22/2014  15:02:00     -495.757     -112.099      -43.186      259.145      195.789      103.103    67156.271    38333.290    10630.213       18.814        5.806      508.273      108.466        0.046      339.075       12.158      859.417
11/22/2014  15:03:00     -660.430      -87.031      -34.825      316.160      298.304      133.819    99956.837    88985.412    17907.626       32.586       10.342      666.140      136.728        0.042      339.007       12.043      859.340
11/22/2014  15:04:00     -700.256     -233.748      -14.616      258.869      232.135      137.789    67012.904    53886.661    18985.730       34.252        6.994      738.239      137.790        0.035      338.964       11.970      859.357
11/22/2014  15:05:00     -678.374     -203.937      -36.638      268.292      173.547      105.830    71980.778    30118.719    11199.908       30.819        5.665      708.365      112.010        0.025      338.973       11.985      859.401
11/22/2014  15:06:00     -543.163     -140.035      -30.337      253.870      185.679       85.867    64450.016    34476.639     7373.085       21.091        5.315      560.924       98.099        0.031      339.023       12.069      859.446
11/22/2014  15:07:00     -536.383      -61.025      -31.645      268.473      190.703      129.641    72077.580    36367.701    16806.795       20.882        6.263      539.843      155.491        0.083      339.056       12.126      859.424
11/22/2014  15:08:00     -766.776     -152.504      -45.878      306.904      245.838      126.832    94189.864    60436.173    16086.239       39.198        8.536      781.794      132.681        0.029      339.004       12.037      859.455
11/22/2014  15:09:00     -421.403      -48.151       -0.035      330.925      199.689      111.226   109511.273    39875.893    12371.243       17.080        8.088      424.145      137.206        0.105      339.113       12.221      859.520
11/22/2014  15:10:00     -347.684     -214.902      -16.593      166.533      160.107       84.462    27733.265    25634.189     7133.888       11.391        3.025      408.738       74.884        0.034      339.050       12.116      859.478
11/22/2014  15:11:00     -347.190      -78.276      -12.265      263.044      141.580       89.759    69192.358    20044.768     8056.605       11.204        4.865      355.904      119.941        0.114      339.132       12.253      859.494
11/22/2014  15:12:00     -399.899     -231.020      -13.280      214.677      158.001       92.946    46086.051    24964.260     8638.881       14.656        3.984      461.833       99.949        0.047      339.066       12.142      859.558
11/22/2014  15:13:00     -464.839     -206.615       -8.813      219.302      226.533      106.745    48093.220    51317.121    11394.589       18.480        5.540      508.690      116.150        0.052      339.018       12.063      859.580
11/22/2014  15:14:00     -374.396      -36.346      -18.126      164.273      131.966       92.599    26985.695    17414.963     8574.540        9.739        2.649      376.156       90.792        0.058      339.090       12.183      859.619
11/22/2014  15:15:00     -332.391     -117.937        5.060      185.525      180.937       91.355    34419.623    32738.262     8345.682        9.995        3.775      352.694      100.523        0.081      339.130       12.250      859.655
11/22/2014  15:16:00     -509.388     -109.833      -31.205      206.997      162.136       98.439    42847.593    26288.194     9690.246       17.565        3.941      521.095      112.043        0.046      339.083       12.169      859.770
11/22/2014  15:17:00     -406.342      -71.055      -22.364      257.981      196.982       88.948    66554.182    38801.933     7911.804       14.194        5.663      412.508      104.481        0.064      339.108       12.213      859.843
11/22/2014  15:18:00     -383.202     -233.833      -14.645      254.032      162.799      104.060    64532.031    26503.429    10828.391       15.178        5.093      448.911      128.426        0.082      339.005       12.040      859.871
11/22/2014  15:19:00     -305.325     -204.687       -2.833      208.192      179.950       87.908    43343.865    32382.054     7727.784       10.927        4.173      367.587       92.268        0.063      338.980       11.996      859.773
11/22/2014  15:20:00     -510.490       31.463      -43.987      207.821      189.373       93.962    43189.376    35862.224     8828.900       17.569        4.394      511.459      100.432        0.039      338.978       11.995      859.825
11/22/2014  15:21:00     -408.781     -165.694        2.241      319.151      172.685      108.043   101857.116    29820.253    11673.250       16.893        7.168      441.086      147.343        0.112      338.974       11.987      859.916
11/22/2014  15:22:00     -503.246      -92.857      -15.364      234.277      156.393       98.808    54885.775    24458.807     9762.989       17.559        4.455      511.741      112.701        0.049      338.949       11.944      859.990
11/22/2014  15:23:00     -629.808      -58.656      -55.317      210.498      196.140       97.017    44309.592    38470.938     9412.226       24.766        4.610      632.534       92.883        0.022      338.857       11.790      860.041
11/22/2014  15:24:00     -407.518     -109.951      -19.200      196.465      132.099       77.658    38598.544    17450.267     6030.788       12.029        3.104      422.090       87.468        0.043      338.837       11.758      860.116
11/22/2014  15:25:00     -353.893      -58.560      -29.921      170.203      137.504       66.252    28968.989    18907.388     4389.310        9.090        2.613      358.706       62.322        0.030      338.929       11.910      860.168
11/22/2014  15:26:00     -624.098     -158.283      -32.399      207.616      206.643       86.180    43104.446    42701.162     7427.078       25.440        4.662      643.857       98.106        0.023      338.826       11.738      860.187
11/22/2014  15:27:00     -189.857       20.131        6.323      177.415      118.742       69.865    31476.238    14099.740     4881.070        4.346        2.523      190.921       79.112        0.172      339.041       12.099      860.241
11/22/2014  15:28:00     -410.216      -47.623      -44.733      223.358      116.443       68.861    49888.776    13558.859     4741.901       12.035        3.409      412.971       96.507        0.055      338.916       11.890      860.241
11/22/2014  15:29:00     -365.917     -101.131      -20.169      151.406      129.821       81.484    22923.787    16853.486     6639.724        9.546        2.321      379.635       78.201        0.042      338.860       11.795      860.268
11/22/2014  15:30:00     -351.171      -87.916       -8.826      139.566      114.253       64.572    19478.684    13053.707     4169.493        8.391        1.835      362.009       63.066        0.030      338.866       11.805      860.326
11/22/2014  15:31:00     -456.629      -88.681      -12.709      181.856      137.970       73.538    33071.649    19035.597     5407.858       13.701        2.876      465.160       81.144        0.030      338.789       11.677      860.355
11/22/2014  15:32:00     -251.974       23.305      -23.072      163.423      131.550       63.781    26707.229    17305.454     4068.073        5.631        2.404      253.049       59.624        0.056      338.884       11.836      860.409
11/22/2014  15:33:00     -264.530      -93.248       -6.836      157.337      123.489       88.686    24754.966    15249.454     7865.141        6.328        2.393      280.484       90.931        0.105      338.751       11.613      860.382
11/22/2014  15:34:00     -371.864      -88.849      -26.935      124.123      136.960       77.574    15406.456    18757.988     6017.756        9.353        2.009      382.331       61.500        0.026      338.722       11.563      860.334
11/22/2014  15:35:00     -321.854      -55.242      -23.714      127.579      131.969       89.843    16276.401    17415.866     8071.726        7.448        2.088      326.561       80.177        0.060      338.668       11.471      860.287
11/22/2014  15:36:00     -246.921      199.303      -36.067      153.590      285.791      106.285    23589.737    81676.473    11296.517       10.925        5.828      317.320       80.051        0.064      338.637       11.421      860.366
11/22/2014  15:37:00     -227.070      106.155      -28.195      137.951      210.253      103.041    19030.579    44206.527    10617.476        6.872        3.693      250.658       91.911        0.134      338.653       11.448      860.426
11/22/2014  15:38:00     -219.720       58.947      -17.668      163.722      153.902       98.829    26804.961    23685.748     9767.134        5.615        3.013      227.490      104.368        0.210      338.628       11.407      860.371
11/22/2014  15:39:00     -296.066      -20.835      -36.900       97.812      165.771       69.538     9567.253    27480.062     4835.574        6.566        2.094      296.798       42.709        0.021      338.655       11.451      860.393
11/22/2014  15:40:00     -303.748      -30.355      -40.019      142.173      147.020       93.092    20213.150    21615.021     8666.109        7.263        2.525      305.261       69.429        0.052      338.664       11.466      860.510
11/22/2014  15:41:00     -243.067      117.895      -27.065      149.522      126.223       66.914    22356.967    15932.147     4477.521        5.823        2.138      270.150       59.269        0.048      338.404       11.032      860.619
11/22/2014  15:42:00     -306.603      147.223      -68.440      194.326      151.982       78.122    37762.624    23098.402     6102.992        9.365        3.348      340.118       61.516        0.033      338.147       10.598      860.587
11/22/2014  15:43:00     -283.451      307.589      -51.320      130.666      311.961       90.585    17073.706    97319.696     8205.729       15.007        6.130      418.277      110.572        0.070      337.913       10.204      860.632
11/22/2014  15:44:00     -240.034      101.599      -42.274      193.725      164.918       86.554    37529.317    27198.063     7491.630        7.096        3.611      260.650      103.729        0.158      337.921       10.219      860.700
11/22/2014  15:45:00     -214.511      182.094      -35.517      141.511      216.959       83.112    20025.223    47071.161     6907.596        7.720        3.700      281.377       84.888        0.091      337.952       10.270      860.713
11/22/2014  15:46:00     -246.401       90.648      -30.891      128.623      157.008       76.514    16543.811    24651.575     5854.372        5.846        2.352      262.547       61.537        0.055      337.972       10.304      860.730
11/22/2014  15:47:00     -260.390       87.684      -29.265      171.588      162.941       87.339    29442.485    26549.782     7628.145        6.997        3.181      274.757       85.820        0.098      337.886       10.159      860.788
11/22/2014  15:48:00     -222.827      -41.927       -0.500      199.995      151.983       90.541    39997.900    23098.932     8197.614        6.134        3.565      226.737       86.575        0.146      337.841       10.085      860.796
11/22/2014  15:49:00     -269.489      153.733      -43.784      104.096      117.261       65.652    10835.884    13750.169     4310.224        6.353        1.445      310.255       56.145        0.033      337.890       10.166      860.844
11/22/2014  15:50:00     -260.075      104.743      -35.135      179.126      153.176       85.806    32086.142    23462.871     7362.694        7.137        3.146      280.375       81.288        0.084      337.812       10.037      860.911
11/22/2014  15:51:00     -239.593       64.151       -2.777      138.530      188.207       80.922    19190.656    35422.013     6548.407        6.133        3.058      248.032       88.096        0.126      337.840       10.083      860.934
11/22/2014  15:52:00     -123.456       92.567      -13.667      149.327      151.694       90.612    22298.582    23011.213     8210.558        3.875        2.676      154.305       86.351        0.313      337.890       10.169      860.926
11/22/2014  15:53:00     -165.614      114.472      -24.501      105.776      119.148       72.496    11188.486    14196.174     5255.654        3.588        1.532      201.325       69.185        0.118      337.858       10.113      860.896
11/22/2014  15:54:00     -285.658       20.727      -36.600      143.976      132.302       87.226    20729.175    17503.900     7608.336        6.460        2.292      286.409       64.414        0.051      337.914       10.208      860.903
11/22/2014  15:55:00     -288.525       96.408      -50.426      269.256      179.078       97.473    72498.856    32069.050     9501.024       10.455        5.703      304.206      129.373        0.181      337.814       10.041      860.890
11/22/2014  15:56:00     -268.326      118.781      -42.628      193.338      193.880      107.300    37379.563    37589.635    11513.301        8.719        4.324      293.441       95.478        0.106      337.798       10.014      860.897
11/22/2014  15:57:00     -226.205      -58.562       -1.132      146.042      186.122       88.163    21328.354    34641.316     7772.728        5.916        3.187      233.662       94.783        0.165      337.773        9.972      860.914
11/22/2014  15:58:00     -228.902       23.039      -11.639      160.645      122.046       75.124    25806.755    14895.323     5643.592        4.969        2.317      230.059       60.489        0.069      337.963       10.289      860.975
11/22/2014  15:59:00     -372.460       67.328      -61.910      177.697      181.525       83.305    31576.189    32951.264     6939.768       10.927        3.573      378.496       80.797        0.046      337.869       10.131      861.021
11/22/2014  16:00:00     -332.431       13.022      -64.237      163.637      152.850      102.164    26777.220    23363.109    10437.408        8.768        3.029      332.686       78.277        0.055      337.907       10.193      860.975
11/22/2014  16:01:00     -288.482      -32.698      -22.098      198.541      160.910       85.124    39418.434    25891.878     7246.116        7.865        3.628      290.329       79.115        0.074      337.939       10.248      860.923
11/22/2014  16:02:00     -340.585      154.155      -43.259      173.549      144.833       90.469    30119.141    20976.648     8184.609       10.045        2.964      373.848       81.901        0.048      337.831       10.068      860.943
11/22/2014  16:03:00     -184.024        7.012       18.605      171.167      153.306       78.875    29298.263    23502.883     6221.306        4.663        2.951      184.158       63.466        0.119      337.856       10.110      860.929
11/22/2014  16:04:00     -185.280        9.966        7.233      204.978      129.672       84.737    42015.925    16814.889     7180.363        5.023        3.301      185.548      103.231        0.310      337.759        9.948      860.943
11/22/2014  16:05:00     -207.578       53.202      -29.677      121.487      101.819       63.798    14759.114    10367.022     4070.154        3.799        1.460      214.287       64.692        0.091      337.859       10.116      860.941
11/22/2014  16:06:00     -255.922       20.780      -37.838      207.535      135.811       76.414    43070.799    18444.649     5839.062        6.734        3.368      256.765       89.161        0.121      337.769        9.965      861.012
11/22/2014  16:07:00     -195.202       90.358      -15.153      160.331       96.757       72.038    25705.884     9361.824     5189.511        4.337        2.013      215.101       70.720        0.108      337.732        9.902      861.048
11/22/2014  16:08:00     -172.645      -41.691        9.939      133.101      158.394       76.164    17715.909    25088.556     5800.932        4.011        2.430      177.607       74.120        0.174      337.751        9.933      861.032
11/22/2014  16:09:00     -216.179       86.378      -51.911      119.542      145.683       88.698    14290.321    21223.569     7867.277        5.013        2.169      232.798       61.682        0.070      337.769        9.962      861.060
11/22/2014  16:10:00     -345.691      -17.646      -71.317      146.905      144.179       72.085    21581.097    20787.507     5196.319        8.622        2.378      346.141       59.024        0.029      337.782        9.985      861.112
11/22/2014  16:11:00     -270.599        4.187      -40.004      126.477      171.748       68.078    15996.422    29497.242     4634.585        6.247        2.506      270.631       69.271        0.066      337.763        9.953      861.126
11/22/2014  16:12:00     -124.398      107.386       -8.438      106.597       86.479       66.879    11362.992     7478.625     4472.784        2.519        1.166      164.336       69.582        0.179      337.826       10.061      861.154
11/22/2014  16:13:00     -226.544      -59.512      -20.778       86.911       94.328       55.879     7553.571     8897.707     3122.437        3.743        0.979      234.230       27.508        0.014      337.824       10.056      861.257
11/22/2014  16:14:00     -154.436       35.136      -17.174      127.252      114.883       55.487    16193.121    13198.152     3078.827        2.892        1.624      158.382       60.976        0.148      337.830       10.065      861.295
11/22/2014  16:15:00     -310.204        3.102      -38.655      121.343      161.911       62.861    14724.202    26215.147     3951.558        7.130        2.245      310.219       63.242        0.042      337.843       10.088      861.296
11/22/2014  16:16:00     -218.078      -32.972       -8.851      127.716      123.973       68.017    16311.335    15369.412     4626.336        4.251        1.815      220.556       58.623        0.071      337.763        9.953      861.272
11/22/2014  16:17:00     -268.783      -43.275      -10.408      198.924      103.349       88.221    39570.863    10680.998     7782.997        6.612        2.902      272.244      110.117        0.164      337.795       10.009      861.272
11/22/2014  16:18:00     -436.464       37.280      -47.909      185.224      185.753       73.695    34308.027    34504.158     5431.014       13.420        3.712      438.053       79.173        0.033      337.842       10.085      861.292
11/22/2014  16:19:00     -372.199     -103.114       -1.411      176.377      132.412       68.306    31108.835    17533.044     4665.746       10.123        2.665      386.219       82.305        0.045      337.827       10.062      861.326
11/22/2014  16:20:00     -241.121      -29.366      -24.720      113.438      125.243       56.838    12868.167    15685.742     3230.530        4.569        1.589      242.902       47.167        0.038      337.870       10.133      861.312
11/22/2014  16:21:00     -143.115      -23.380        8.184      114.529      112.736       50.397    13116.922    12709.411     2539.908        2.473        1.418      145.012       49.543        0.117      337.821       10.053      861.307
11/22/2014  16:22:00     -160.440      -57.934       -5.637      116.053      116.454       54.463    13468.398    13561.605     2966.171        2.956        1.500      170.579       56.505        0.110      337.763        9.956      861.374
11/22/2014  16:23:00     -277.630       29.554      -23.610      143.884      149.064       79.013    20702.628    22219.932     6243.131        6.383        2.458      279.198       65.354        0.055      337.858       10.112      861.458
11/22/2014  16:24:00     -272.370      -50.513      -42.612      124.100       89.493       50.500    15400.916     8008.981     2550.244        5.225        1.298      277.015       37.876        0.019      337.802       10.019      861.491
11/22/2014  16:25:00     -313.144      -46.614      -34.474       97.121       98.475       63.281     9432.393     9697.271     4004.438        6.227        1.157      316.595       43.954        0.019      337.708        9.862      861.496
11/22/2014  16:26:00     -309.682      -71.940      -17.440      135.061      115.116       60.313    18241.600    13251.764     3637.670        6.825        1.757      317.928       52.623        0.027      337.687        9.827      861.502
11/22/2014  16:27:00     -291.342       -1.589      -24.051      189.324      132.317       70.258    35843.494    17507.676     4936.178        7.186        2.914      291.347       65.103        0.050      337.780        9.983      861.487
11/22/2014  16:28:00     -223.713      -11.917      -21.992      131.380      135.918       84.056    17260.800    18473.833     7065.449        4.673        2.140      224.030       74.953        0.112      337.800       10.017      861.521
11/22/2014  16:29:00     -153.449      -28.886      -11.015      116.115       79.206       59.998    13482.766     6273.569     3599.716        2.392        1.168      156.144       58.584        0.141      337.788        9.997      861.599
11/22/2014  16:30:00      -92.156       61.573        0.043       70.483       77.711       49.150     4967.809     6038.933     2415.763        1.285        0.671      110.833       40.348        0.133      337.772        9.972      861.595
11/22/2014  16:31:00     -183.031      -66.261        5.380      161.697       84.632       72.638    26145.776     7162.531     5276.344        3.824        1.929      194.656       89.223        0.210      337.731        9.903      861.564
11/22/2014  16:32:00     -165.203       22.443        2.436      116.779      108.518       68.424    13637.403    11776.252     4681.859        2.894        1.505      166.721       55.077        0.109      337.717        9.876      861.589
11/22/2014  16:33:00     -115.020       70.301       -8.886       66.103      120.355       58.215     4369.602    14485.226     3389.007        2.024        1.112      134.803       39.138        0.084      337.710        9.866      861.598
11/22/2014  16:34:00     -293.033      -65.421      -24.379      162.365      142.436       61.857    26362.451    20287.986     3826.345        7.060        2.524      300.247       56.427        0.035      337.658        9.779      861.610
11/22/2014  16:35:00     -217.611       10.621      -17.680      116.792      110.201       73.028    13640.258    12144.327     5333.161        3.944        1.556      217.870       53.523        0.060      337.793       10.004      861.667
11/22/2014  16:36:00     -201.199       -1.724       -2.981      117.953      104.440       72.319    13912.905    10907.632     5229.969        3.527        1.503      201.206       54.340        0.073      337.730        9.900      861.734
11/22/2014  16:37:00     -103.438        7.974        6.014      108.310      102.666       61.280    11731.009    10540.381     3755.268        1.841        1.301      103.745       60.419        0.339      337.765        9.958      861.757
11/22/2014  16:38:00     -198.756      -91.390      -19.876       78.900       70.058       49.008     6225.193     4908.153     2401.819        3.089        0.677      218.760       38.934        0.032      337.641        9.750      861.784
11/22/2014  16:39:00     -274.186      -94.810      -20.461      105.147      111.604       48.636    11055.914    12455.484     2365.420        5.523        1.294      290.115       33.106        0.013      337.709        9.862      861.833
11/22/2014  16:40:00     -270.453      -22.980       -3.040      161.645      103.607       79.366    26129.255    10734.511     6299.014        5.841        2.158      271.427       89.073        0.108      337.611        9.698      861.841
11/22/2014  16:41:00     -184.192      -55.796        1.105       99.672      105.787       63.093     9934.469    11190.787     3980.744        3.107        1.255      192.458       54.421        0.080      337.600        9.681      861.887
11/22/2014  16:42:00      -62.315      -13.085       30.258       85.459       85.966       50.789     7303.270     7390.230     2579.534        1.112        0.864       63.674       37.278        0.343      337.618        9.713      861.883
11/22/2014  16:43:00      -67.184       -1.423        9.347       80.097       60.858       41.387     6415.544     3703.724     1712.877        0.822        0.592       67.199       44.873        0.446      337.640        9.750      861.897
11/22/2014  16:44:00      -87.092      -10.124       -8.762       79.578       51.792       40.745     6332.619     2682.414     1660.125        0.922        0.534       87.678       39.940        0.208      337.666        9.794      861.908
11/22/2014  16:45:00     -165.570       83.812      -29.552       79.622       88.986       50.928     6339.722     7918.543     2593.636        2.608        0.843      185.574       52.039        0.079      337.703        9.855      861.903
11/22/2014  16:46:00     -147.502        7.990      -21.126      108.712       96.577       64.527    11818.244     9327.163     4163.693        2.378        1.265      147.719       60.759        0.169      337.674        9.806      861.874
11/22/2014  16:47:00     -171.689       15.143       -9.929      106.681      152.099       62.498    11380.890    23134.229     3905.959        3.411        1.921      172.356       48.742        0.080      337.643        9.753      861.853
11/22/2014  16:48:00     -214.588       65.232      -29.117      120.820      122.110       64.379    14597.512    14910.751     4144.684        4.240        1.683      224.284       68.195        0.092      337.598        9.677      861.834
11/22/2014  16:49:00     -251.227       -6.214      -44.067      170.975      118.305       59.711    29232.565    13996.135     3565.393        5.594        2.340      251.304       53.148        0.045      337.591        9.666      861.838
11/22/2014  16:50:00     -299.346      -90.885      -20.208      164.275      100.746       73.216    26986.287    10149.762     5360.601        7.038        2.125      312.839       76.402        0.060      337.560        9.613      861.861
11/22/2014  16:51:00     -288.649      -93.767      -23.288      168.549      126.757       63.990    28408.626    16067.331     4094.680        7.060        2.429      303.497       72.561        0.057      337.574        9.637      861.889
11/22/2014  16:52:00     -350.968      -74.350      -15.046      160.546      153.647       78.992    25775.034    23607.327     6239.659        9.227        2.781      358.757       77.762        0.047      337.549        9.595      861.905
11/22/2014  16:53:00     -126.016      122.676      -20.720       81.736      136.774       55.722     6680.703    18707.163     3104.915        2.992        1.425      175.868       46.144        0.069      337.573        9.636      861.981
11/22/2014  16:54:00     -200.012       -1.643       -9.799      135.667      107.083       58.463    18405.601    11466.722     3417.952        3.669        1.665      200.019       68.635        0.118      337.545        9.589      861.978
11/22/2014  16:55:00     -146.333       62.994      -14.279      109.404      111.646       53.707    11969.277    12464.764     2884.388        2.645        1.366      159.316       49.463        0.096      337.594        9.669      862.021
11/22/2014  16:56:00      -62.790       68.496        3.114       69.222       54.668       41.739     4791.625     2988.542     1742.114        0.908        0.476       92.921       41.662        0.201      337.519        9.548      862.043
11/22/2014  16:57:00     -105.234       47.463      -10.841       61.052       41.531       32.050     3727.323     1724.826     1027.180        0.996        0.324      115.443       23.783        0.042      337.598        9.681      862.085
11/22/2014  16:58:00      -59.507       58.939       -0.408       50.784       28.068       35.532     2579.045      787.818     1262.525        0.582        0.231       83.755       28.329        0.114      337.684        9.823      862.083
11/22/2014  16:59:00     -121.576      130.447      -34.202       61.909       75.146       40.639     3832.784     5646.872     1651.532        2.205        0.557      178.318       47.433        0.071      337.343        9.252      862.110
11/22/2014  17:00:00     -160.496      102.470      -37.597       66.781       66.308       32.200     4459.753     4396.732     1036.834        2.378        0.495      190.418       33.434        0.031      337.264        9.120      862.141
11/22/2014  17:01:00     -105.798       64.433      -15.988       93.076       77.628       34.851     8663.098     6026.151     1214.567        1.575        0.795      123.875       37.073        0.090      337.316        9.208      862.138
11/22/2014  17:02:00      -88.301       67.608      -12.968       68.854       49.051       41.743     4740.822     2405.985     1742.502        1.071        0.444      111.211       29.143        0.069      337.387        9.326      862.131
11/22/2014  17:03:00      -59.859       14.576       10.220      102.851       85.318       47.207    10578.355     7279.112     2228.547        1.199        1.004       61.608       40.610        0.435      337.244        9.086      862.133
11/22/2014  17:04:00     -165.913       44.458      -32.291       72.300      133.242       49.172     5227.248    17753.385     2417.848        2.797        1.270      171.767       55.664        0.105      337.215        9.035      862.159
11/22/2014  17:05:00      -93.702       46.667       -7.648       51.220       56.508       42.529     2623.468     3193.176     1808.679        0.932        0.381      104.680       37.575        0.129      337.251        9.097      862.165
11/22/2014  17:06:00      -95.002       56.545      -16.858       61.814       80.008       35.155     3820.986     6401.268     1235.845        1.198        0.573      110.556       34.373        0.097      337.243        9.084      862.185
11/22/2014  17:07:00      -81.440       92.699      -17.876       74.093       68.220       40.327     5489.742     4654.028     1626.304        1.366        0.589      123.393       31.018        0.063      337.323        9.218      862.238
11/22/2014  17:08:00     -134.257       14.330      -23.076       96.245       80.456       38.532     9263.194     6473.244     1484.690        1.799        0.861      135.019       38.966        0.083      337.294        9.170      862.289
11/22/2014  17:09:00     -139.191       69.951      -21.431       69.759       63.951       46.294     4866.318     4089.752     2143.119        1.791        0.555      155.779       34.801        0.050      337.128        8.892      862.309
11/22/2014  17:10:00      -92.040       87.695       -8.162       61.778       96.375       42.368     3816.492     9288.154     1795.084        1.556        0.745      127.129       33.705        0.070      337.204        9.019      862.299
11/22/2014  17:11:00      -96.453       34.398       -2.042       74.623       86.225       37.801     5568.646     7434.800     1428.926        1.246        0.722      102.403       27.664        0.073      337.321        9.216      862.331
11/22/2014  17:12:00      -76.958       61.641      -13.871       65.217       48.159       41.058     4253.301     2319.256     1685.743        0.908        0.413       98.601       40.275        0.167      337.267        9.125      862.361
11/22/2014  17:13:00      -84.684       12.170       14.961       82.438       77.682       54.942     6796.039     6034.563     3018.650        1.169        0.792       85.554       51.371        0.361      337.402        9.351      862.364
11/22/2014  17:14:00      -89.496      -48.179       -4.479       92.074       58.164       51.113     8477.577     3383.068     2612.499        1.241        0.724      101.641       31.515        0.096      337.151        8.929      862.372
11/22/2014  17:15:00      -25.924      127.179        4.744       51.788      140.035       53.060     2682.008    19609.802     2815.351        2.098        1.255      129.794       55.836        0.185      337.137        8.907      862.379
11/22/2014  17:16:00     -147.789      109.693      -30.367       70.040       87.275       39.206     4905.628     7616.864     1537.125        2.443        0.703      184.050       25.699        0.019      337.173        8.966      862.349
11/22/2014  17:17:00     -124.080       31.531      -10.817       35.044       43.873       30.080     1228.089     1924.870      904.810        1.028        0.203      128.023       21.594        0.028      337.309        9.196      862.333
11/22/2014  17:18:00     -131.045       26.777      -16.910       92.031       79.765       47.851     8469.746     6362.444     2289.720        1.765        0.856      133.753       53.275        0.159      337.110        8.861      862.367
11/22/2014  17:19:00      -81.924       35.817      -11.396       64.265       74.385       38.960     4130.053     5533.152     1517.911        0.965        0.559       89.411       19.479        0.047      337.226        9.056      862.382
11/22/2014  17:20:00      -57.357       13.426       -2.936       57.260       67.471       42.416     3278.719     4552.340     1799.120        0.655        0.482       58.908       17.573        0.089      337.222        9.051      862.371
11/22/2014  17:21:00     -177.365       86.088      -25.914       87.583       78.010       43.234     7670.857     6085.609     1869.150        2.758        0.781      197.153       52.279        0.070      337.187        8.990      862.388
11/22/2014  17:22:00      -58.106       27.761       11.115       81.289       91.970       44.384     6607.849     8458.569     1969.932        1.065        0.852       64.397       41.192        0.409      337.136        8.905      862.390
11/22/2014  17:23:00     -153.132      -45.801      -12.050       70.399       79.702       34.503     4956.066     6352.447     1190.446        1.909        0.625      159.834       31.853        0.040      337.167        8.955      862.412
11/22/2014  17:24:00     -198.976      -26.857       -5.056       76.196       79.911       46.892     5805.852     6385.755     2198.870        2.736        0.720      200.780       37.744        0.035      336.983        8.646      862.426
11/22/2014  17:25:00     -142.117      -43.053       -3.057      114.541       85.456       44.072    13119.612     7302.677     1942.345        2.221        1.118      148.495       45.252        0.093      336.990        8.659      862.426
11/22/2014  17:26:00     -171.870      -42.476       -9.384       79.101       67.069       41.618     6257.024     4498.223     1732.071        2.196        0.624      177.041       43.102        0.059      337.008        8.689      862.457
11/22/2014  17:27:00     -195.993      -81.433       -0.279      136.597       94.552       49.020    18658.816     8940.118     2402.921        3.752        1.500      212.237       60.113        0.080      336.969        8.624      862.467
11/22/2014  17:28:00     -172.156      -82.910       -5.102       54.760       58.390       38.328     2998.684     3409.349     1469.049        2.221        0.394      191.080       36.254        0.036      337.000        8.677      862.496
11/22/2014  17:29:00     -286.356      -25.491      -28.239      111.530      132.170       55.612    12438.859    17469.002     3092.720        5.822        1.650      287.488       64.587        0.050      337.072        8.796      862.531
11/22/2014  17:30:00     -283.221      -61.575      -27.183       85.636      103.309       51.876     7333.591    10672.657     2691.071        5.272        1.035      289.838       50.218        0.030      337.061        8.777      862.539
11/22/2014  17:31:00     -124.773      -65.156       -3.261      100.031       57.777       45.884    10006.107     3338.234     2105.346        1.763        0.772      140.761       56.660        0.162      337.079        8.807      862.524
11/22/2014  17:32:00     -241.155      -18.732      -16.201      154.848      111.267       68.025    23977.947    12380.380     4627.438        4.987        2.049      241.881       70.067        0.084      337.224        9.051      862.517
11/22/2014  17:33:00     -208.900      -28.709      -17.739       65.388       96.933       42.753     4275.531     9395.947     1827.778        3.014        0.775      210.863       22.416        0.011      337.237        9.072      862.526
11/22/2014  17:34:00     -214.198      -27.748      -29.159       58.521       64.942       37.988     3424.717     4217.424     1443.097        2.829        0.454      215.988       28.765        0.018      337.156        8.936      862.561
11/22/2014  17:35:00     -201.519      -69.602      -27.000       72.824       72.694       38.779     5303.318     5284.407     1503.849        2.913        0.605      213.200       30.502        0.020      337.187        8.990      862.554
11/22/2014  17:36:00     -174.987      -69.599       10.393      153.615       85.503       58.966    23597.424     7310.844     3476.989        3.497        1.719      188.320       72.826        0.150      337.133        8.898      862.535
11/22/2014  17:37:00     -143.020       19.213       -7.259      104.117       65.743       66.950    10840.429     4322.131     4482.247        2.026        0.982      144.305       63.972        0.197      337.294        9.170      862.534
11/22/2014  17:38:00     -175.282      -92.798        2.981      141.918       88.863       63.336    20140.701     7896.672     4011.451        3.569        1.602      198.331       55.020        0.077      337.159        8.942      862.567
11/22/2014  17:39:00     -331.106       -6.729      -23.346      119.824       81.968       53.916    14357.906     6718.767     2906.931        6.710        1.199      331.174       52.503        0.025      337.162        8.946      862.598
11/22/2014  17:40:00     -266.653      -78.922       -4.358      123.818       95.986       57.286    15331.020     9213.304     3281.656        5.258        1.391      278.087       63.807        0.053      337.152        8.930      862.569
11/22/2014  17:41:00     -309.224     -110.591      -18.092      130.506      117.999       63.488    17031.857    13923.852     4030.727        7.157        1.749      328.405       52.181        0.025      337.159        8.942      862.577
11/22/2014  17:42:00     -236.717      -35.112       -2.608      123.259      104.462       65.079    15192.809    10912.230     4235.339        4.380        1.517      239.307       65.549        0.075      337.273        9.133      862.573
11/22/2014  17:43:00     -229.495      -68.902        0.614      134.987      102.132       53.880    18221.396    10430.973     2903.044        4.448        1.578      239.615       57.505        0.058      337.175        8.969      862.551
11/22/2014  17:44:00     -243.801      -73.653      -14.388      111.979       69.998       51.916    12539.338     4899.718     2695.235        4.260        1.007      254.684       52.772        0.043      337.130        8.893      862.502
11/22/2014  17:45:00     -163.822      -93.597       -7.942      102.937       66.676       52.290    10595.946     4445.707     2734.289        2.671        0.889      188.674       52.829        0.078      337.149        8.926      862.488
11/22/2014  17:46:00     -297.782      -63.899      -13.332      201.822      113.044       76.801    40732.201    12778.975     5898.334        7.616        2.970      304.561       83.880        0.076      337.161        8.946      862.521
11/22/2014  17:47:00     -342.742     -124.326      -13.935      146.491      105.751       66.399    21459.640    11183.331     4408.789        8.508        1.853      364.594       74.553        0.042      337.138        8.906      862.553
11/22/2014  17:48:00     -234.172      -30.727      -11.000      114.860      114.001       66.657    13192.918    12996.144     4443.118        4.326        1.532      236.179       51.555        0.048      337.274        9.135      862.595
11/22/2014  17:49:00     -319.987      -12.168       -6.255      250.442      100.298       85.859    62721.434    10059.645     7371.770        9.135        4.008      320.218      123.501        0.149      337.142        8.912      862.642
11/22/2014  17:50:00     -360.930       -0.306      -25.971      173.013       92.824       61.874    29933.603     8616.366     3828.371        8.665        2.119      360.930       73.155        0.041      337.229        9.059      862.653
11/22/2014  17:51:00     -324.320      -32.966      -17.261      128.546      125.237       66.379    16524.054    15684.263     4406.228        7.158        1.831      325.991       49.565        0.023      337.177        8.972      862.634
11/22/2014  17:52:00     -277.163      -52.998      -10.635      129.971       94.564       59.342    16892.359     8942.270     3521.478        5.454        1.468      282.184       66.031        0.055      337.138        8.905      862.611
11/22/2014  17:53:00     -343.572       43.742      -12.097      170.166      115.401       67.890    28956.308    13317.429     4609.002        8.348        2.344      346.345       77.843        0.051      337.190        8.994      862.610
11/22/2014  17:54:00     -126.395      -78.956       11.526      129.421      126.803       63.193    16749.892    16079.034     3993.348        2.958        1.841      149.030       72.794        0.239      337.113        8.866      862.612
11/22/2014  17:55:00     -338.481      -84.378      -19.746      171.035      157.757       75.063    29252.824    24887.325     5634.454        9.091        2.989      348.840       79.903        0.052      337.070        8.794      862.597
11/22/2014  17:56:00     -471.671      -30.859      -23.803      169.594      155.559       80.583    28762.140    24198.501     6493.553       14.171        2.973      472.679       82.764        0.031      337.074        8.801      862.584
11/22/2014  17:57:00     -306.642      -32.143      -18.761      138.690       85.245       55.921    19235.033     7266.755     3127.124        6.252        1.481      308.322       55.198        0.032      337.102        8.845      862.602
11/22/2014  17:58:00     -362.692      -61.372      -19.601      144.616      135.421       68.047    20913.847    18338.961     4630.423        8.978        2.194      367.848       76.473        0.043      337.032        8.729      862.625
11/22/2014  17:59:00     -381.039     -112.559      -21.290      167.578      135.461       73.597    28082.521    18349.688     5416.496       10.507        2.592      397.317       76.355        0.037      336.968        8.622      862.593
11/22/2014  18:00:00     -345.744        0.696       -8.240      173.366      104.530       83.200    30055.655    10926.542     6922.288        8.375        2.395      345.744      104.301        0.091      337.001        8.677      862.604
11/22/2014  18:01:00     -267.063     -109.679      -14.387      136.892      123.245       64.808    18739.351    15189.411     4200.025        6.084        1.906      288.708       66.834        0.054      337.004        8.682      862.664
11/22/2014  18:02:00     -244.018      -75.795      -11.650      121.321      117.199       57.400    14718.820    13735.648     3294.717        4.858        1.587      255.518       61.109        0.057      337.015        8.701      862.670
11/22/2014  18:03:00     -301.380       21.141      -19.617      148.493      111.435       58.434    22050.260    12417.836     3414.478        6.476        1.894      302.121       62.838        0.043      337.084        8.815      862.704
11/22/2014  18:04:00     -393.525     -127.531      -25.492      157.688      132.774       69.840    24865.648    17628.808     4877.584       10.956        2.369      413.674       74.883        0.033      336.944        8.581      862.730
11/22/2014  18:05:00     -186.633      -52.071        5.136      141.316       80.276       49.194    19970.338     6444.291     2420.005        3.320        1.442      193.761       51.948        0.072      336.939        8.573      862.777
11/22/2014  18:06:00     -170.690      -34.573       -8.618      114.638       74.597       49.809    13141.764     5564.647     2480.982        2.579        1.059      174.156       47.812        0.075      336.968        8.623      862.800
11/22/2014  18:07:00     -190.303      -64.117      -11.864      123.690       96.995       55.144    15299.258     9408.035     3040.892        3.410        1.387      200.814       36.861        0.034      336.884        8.484      862.800
11/22/2014  18:08:00     -249.138     -106.428       -7.364      161.347      101.246       52.356    26032.765    10250.685     2741.137        5.623        1.951      270.918       74.626        0.076      336.914        8.532      862.793
11/22/2014  18:09:00     -283.102     -107.919       -4.565      133.398       92.658       53.502    17795.049     8585.531     2862.460        6.052        1.462      302.974       50.866        0.028      336.904        8.516      862.847
11/22/2014  18:10:00     -436.217     -133.603      -19.759      135.135      157.455       73.050    18261.506    24791.982     5336.296       12.845        2.419      456.218       76.857        0.028      336.850        8.424      862.877
11/22/2014  18:11:00     -473.350      -34.850      -41.787      145.685       95.733       58.876    21224.081     9164.731     3466.377       13.043        1.693      474.631       62.945        0.018      336.901        8.509      862.881
11/22/2014  18:12:00     -395.797      -36.217      -20.715      148.166      111.851       66.869    21953.074    12510.579     4471.438        9.866        1.947      397.450       58.632        0.022      336.924        8.549      862.914
11/22/2014  18:13:00     -364.089       -3.639      -20.529      108.803      106.321       64.272    11837.996    11304.254     4130.903        8.013        1.364      364.107       63.821        0.031      336.968        8.622      862.930
11/22/2014  18:14:00     -275.306       -5.883      -14.940      111.341       90.545       54.075    12396.784     8198.391     2924.084        4.978        1.176      275.369       53.725        0.038      336.944        8.583      862.951
11/22/2014  18:15:00     -309.964      -57.381      -16.506      141.260      101.026       60.968    19954.452    10206.254     3717.076        6.675        1.694      315.230       68.838        0.048      336.825        8.381      862.978
11/22/2014  18:16:00     -396.948     -182.466      -11.571      214.354      108.855       69.337    45947.761    11849.391     4807.639       12.679        3.130      436.877       84.584        0.037      336.799        8.340      862.985
11/22/2014  18:17:00     -448.490     -109.789       -6.228      217.074      147.329       86.834    47121.237    21705.975     7540.069       14.479        3.818      461.732      108.119        0.055      336.833        8.396      862.989
11/22/2014  18:18:00     -389.851      -96.064      -18.740      182.477      142.305       67.427    33297.758    20250.801     4546.443       10.982        2.905      401.512       69.005        0.030      336.917        8.539      863.017
11/22/2014  18:19:00     -310.406      -27.983      -11.537      133.064      117.605       50.520    17706.062    13830.863     2552.314        6.567        1.704      311.665       52.540        0.028      336.889        8.491      863.049
11/22/2014  18:20:00     -251.097      -71.094        4.468      124.219       82.775       61.836    15430.293     6851.676     3823.735        4.711        1.305      260.968       69.133        0.070      336.777        8.303      863.057
11/22/2014  18:21:00     -263.915      -42.065       -2.592      104.001       99.185       59.469    10816.225     9837.715     3536.525        4.780        1.210      267.246       48.049        0.032      336.831        8.394      863.054
11/22/2014  18:22:00     -232.038      -49.106      -10.132      120.555      101.834       47.389    14533.514    10370.096     2245.720        4.175        1.357      237.177       45.726        0.037      336.786        8.317      863.063
11/22/2014  18:23:00     -218.070      -83.391      -10.492       95.354       86.516       45.774     9092.399     7484.975     2095.254        3.664        0.934      233.470       46.571        0.040      336.759        8.273      863.096
11/22/2014  18:24:00     -296.294      -77.860      -14.034      107.252       87.690       55.666    11503.073     7689.477     3098.681        5.817        1.115      306.353       54.870        0.032      336.799        8.339      863.143
11/22/2014  18:25:00     -318.205      -43.386      -12.552      146.928       80.854       53.367    21587.924     6537.341     2848.020        6.713        1.549      321.149       64.190        0.040      336.724        8.216      863.166
11/22/2014  18:26:00     -305.866      -95.463       -6.020      124.122      110.193       67.096    15406.225    12142.579     4501.888        6.737        1.603      320.418       67.241        0.044      336.725        8.216      863.190
11/22/2014  18:27:00     -280.040     -154.129       -5.656      151.246      120.606       76.372    22875.273    14545.740     5832.632        7.272        2.163      319.653       81.308        0.065      336.728        8.222      863.193
11/22/2014  18:28:00     -164.809      -72.540        2.150      143.546      108.121       58.775    20605.564    11690.203     3454.532        3.408        1.788      180.066       59.389        0.109      336.733        8.233      863.230
11/22/2014  18:29:00     -231.833      -58.221       -6.364       97.747       89.814       54.306     9554.507     8066.556     2949.114        3.887        1.029      239.032       53.233        0.050      336.685        8.149      863.258
11/22/2014  18:30:00     -187.104      -47.461       -4.801      111.029       87.381       54.674    12327.528     7635.492     2989.293        3.011        1.148      193.030       56.452        0.086      336.760        8.277      863.286
11/22/2014  18:31:00     -203.344      -60.877        5.186      109.947       87.025       50.966    12088.373     7573.307     2597.489        3.367        1.113      212.261       60.992        0.083      336.651        8.094      863.311
11/22/2014  18:32:00     -202.994      -57.387       -9.220       91.570       85.275       51.133     8385.088     7271.797     2614.633        3.142        0.914      210.950       50.783        0.058      336.641        8.078      863.336
11/22/2014  18:33:00     -140.526       -7.509        0.306       76.132       82.542       45.676     5796.115     6813.254     2086.331        1.725        0.735      140.726       38.860        0.076      336.814        8.368      863.394
11/22/2014  18:34:00     -223.223      -39.459      -13.216       70.625       71.137       41.065     4987.927     5060.498     1686.354        3.165        0.587      226.684       38.222        0.028      336.744        8.250      863.435
11/22/2014  18:35:00     -137.467      -55.802       -6.653       59.938       53.336       35.681     3592.518     2844.772     1273.157        1.488        0.386      148.361       33.055        0.050      336.738        8.241      863.475
11/22/2014  18:36:00     -193.323      -63.955      -13.511       50.174       51.668       34.423     2517.414     2669.570     1184.961        2.401        0.319      203.627       22.658        0.012      336.633        8.066      863.513
11/22/2014  18:37:00     -161.024      -73.686       -3.622       76.200       79.514       39.091     5806.374     6322.459     1528.121        2.251        0.683      177.083       36.663        0.043      336.605        8.020      863.524
11/22/2014  18:38:00     -166.779      -17.536      -12.559       88.779       44.629       44.889     7881.719     1991.782     2014.989        2.008        0.594      167.699       50.031        0.089      336.692        8.163      863.538
11/22/2014  18:39:00     -228.286       28.033      -23.873       68.196       61.628       41.732     4650.746     3798.065     1741.593        3.183        0.510      230.001       34.055        0.022      336.740        8.242      863.552
11/22/2014  18:40:00     -202.991      -72.317      -14.599      111.567       70.087       39.818    12447.269     4912.162     1585.511        3.279        0.947      215.488       47.883        0.049      336.580        7.975      863.531
11/22/2014  18:41:00     -239.087      -74.294       -6.163      136.825       90.291       47.979    18721.104     8152.542     2301.938        4.594        1.459      250.364       52.081        0.043      336.582        7.980      863.516
11/22/2014  18:42:00     -232.901      -65.497      -11.816       85.433       78.262       52.396     7298.778     6124.918     2745.320        3.742        0.808      241.936       42.475        0.031      336.626        8.050      863.520
11/22/2014  18:43:00     -259.627      -72.914      -15.884      104.649       71.593       43.656    10951.485     5125.569     1905.824        4.548        0.899      269.671       44.971        0.028      336.602        8.013      863.550
11/22/2014  18:44:00     -256.615        3.135      -42.069       60.758       44.767       35.212     3691.559     2004.108     1239.898        3.728        0.347      256.634       28.554        0.012      336.652        8.096      863.593
11/22/2014  18:45:00     -159.094      -30.037      -23.306       64.449       46.380       32.797     4153.616     2151.126     1075.662        1.707        0.369      161.904       31.306        0.037      336.692        8.164      863.615
11/22/2014  18:46:00     -272.849      -65.837       -7.704      109.686       91.518       44.487    12030.924     8375.605     1979.118        5.061        1.119      280.679       47.545        0.029      336.662        8.111      863.650
11/22/2014  18:47:00     -173.152      -47.835      -12.919       64.246       51.878       28.635     4127.522     2691.358      819.974        2.004        0.382      179.638       29.673        0.027      336.561        7.944      863.678
11/22/2014  18:48:00     -190.509      -42.631       -9.021       74.794       65.553       38.677     5594.189     4297.197     1495.946        2.479        0.569      195.221       36.039        0.034      336.517        7.872      863.679
11/22/2014  18:49:00     -230.463      -43.235      -11.109       77.992       63.588       40.720     6082.698     4043.486     1658.085        3.344        0.589      234.483       38.876        0.027      336.518        7.870      863.657
11/22/2014  18:50:00     -191.793      -55.853       -8.657       80.940       61.085       44.633     6551.275     3731.377     1992.122        2.612        0.614      199.760       43.836        0.048      336.500        7.842      863.687
11/22/2014  18:51:00     -177.696      -65.215       -5.030       71.692       53.082       35.872     5139.737     2817.746     1286.822        2.255        0.462      189.285       36.547        0.037      336.460        7.773      863.709
11/22/2014  18:52:00     -218.342       -0.979      -23.741       67.428       47.527       36.463     4546.600     2258.781     1329.549        2.818        0.407      218.344       35.142        0.026      336.641        8.077      863.703
11/22/2014  18:53:00     -169.212      -65.554       -4.620       75.976       64.671       36.813     5772.326     4182.291     1355.187        2.213        0.565      181.466       39.364        0.047      336.476        7.801      863.668
11/22/2014  18:54:00     -161.207      -26.734       -6.480       88.463       61.954       42.201     7825.682     3838.337     1780.939        2.009        0.672      163.409       44.052        0.073      336.528        7.890      863.665
11/22/2014  18:55:00     -169.549      -53.053      -16.759       72.271       70.162       39.822     5223.133     4922.753     1585.801        2.178        0.587      177.656       14.496        0.007      336.558        7.937      863.691
11/22/2014  18:56:00     -200.726      -42.467       -7.978       70.243       66.135       42.049     4934.030     4373.870     1768.089        2.661        0.554      205.169       44.012        0.046      336.476        7.798      863.731
11/22/2014  18:57:00     -181.468      -31.459       -2.494       88.276       81.584       51.929     7792.576     6655.888     2696.616        2.553        0.857      184.175       53.350        0.084      336.509        7.856      863.717
11/22/2014  18:58:00     -186.503      -62.281       -3.157       87.768       69.881       39.892     7703.291     4883.386     1591.377        2.642        0.709      196.628       37.922        0.037      336.432        7.726      863.716
11/22/2014  18:59:00     -212.209      -54.544      -20.778       61.576       55.143       31.320     3791.615     3040.725      980.952        2.812        0.391      219.106       27.278        0.015      336.439        7.737      863.726
11/22/2014  19:00:00     -164.796      -60.536       -6.575       86.965       46.995       39.078     7562.879     2208.505     1527.070        2.108        0.565      175.563       47.793        0.074      336.364        7.611      863.751
11/22/2014  19:01:00     -194.071      -68.688      -11.977       37.833       45.533       23.404     1431.337     2073.286      547.734        2.329        0.203      205.868       12.988        0.004      336.372        7.625      863.775
11/22/2014  19:02:00     -173.454      -35.662      -10.847       85.060       60.901       39.925     7235.177     3708.938     1594.023        2.200        0.627      177.082       38.958        0.048      336.555        7.932      863.795
11/22/2014  19:03:00     -204.537      -52.993       -7.395       88.281       59.100       41.084     7793.508     3492.868     1687.923        2.883        0.649      211.291       40.546        0.037      336.356        7.601      863.809
11/22/2014  19:04:00      -81.370      -43.806        9.086      107.586       66.193       37.386    11574.683     4381.477     1397.708        1.298        0.868       92.412       47.480        0.264      336.326        7.551      863.817
11/22/2014  19:05:00     -216.595      -67.808       -8.802       73.015       59.037       39.056     5331.246     3485.343     1525.341        3.096        0.517      226.961       35.364        0.024      336.286        7.481      863.853
11/22/2014  19:06:00     -186.112      -55.945       -4.031       70.302       57.603       34.994     4942.323     3318.049     1224.609        2.363        0.474      194.339       35.815        0.034      336.310        7.523      863.894
11/22/2014  19:07:00     -168.049      -50.458       -5.493       42.732       38.504       25.685     1825.995     1482.571      659.706        1.739        0.198      175.461       23.184        0.017      336.314        7.533      863.934
11/22/2014  19:08:00     -172.993      -44.630      -12.120       71.567       66.362       37.857     5121.799     4403.853     1433.129        2.151        0.548      178.657       35.647        0.040      336.317        7.535      863.978
11/22/2014  19:09:00     -244.570       -8.895      -29.459       61.443       54.439       41.482     3775.284     2963.582     1720.767        3.461        0.423      244.731       34.981        0.020      336.338        7.567      864.004
11/22/2014  19:10:00     -153.622      -25.843      -16.738       36.994       38.427       23.994     1368.569     1476.611      575.698        1.398        0.171      155.781       11.559        0.006      336.300        7.511      864.010
11/22/2014  19:11:00     -120.658      -59.713       -2.786       58.742       45.693       28.619     3450.620     2087.821      819.025        1.224        0.318      134.626       32.289        0.058      336.246        7.419      864.027
11/22/2014  19:12:00      -56.442       -4.377        3.087       57.232       43.251       30.422     3275.535     1870.652      925.472        0.464        0.304       56.612       33.402        0.348      336.255        7.433      864.022
11/22/2014  19:13:00      -74.228      -14.167      -12.080       80.617       47.326       24.570     6499.090     2239.786      603.690        0.760        0.467       75.568       28.921        0.146      336.222        7.378      864.011
11/22/2014  19:14:00        5.675      -21.295       20.525       57.923       32.880       36.269     3355.027     1081.078     1315.441        0.333        0.288       22.039       13.291        0.364      336.218        7.371      864.002
11/22/2014  19:15:00     -151.761       -0.454      -10.714       79.509       83.319       44.562     6321.638     6942.120     1985.734        1.919        0.762      151.761       50.153        0.109      336.227        7.385      864.013
11/22/2014  19:16:00      -78.472       13.282       -2.429       39.487       55.631       31.684     1559.209     3094.763     1003.869        0.600        0.283       79.588       29.234        0.135      336.234        7.400      864.025
11/22/2014  19:17:00      -62.135      -43.558        6.091       77.875       68.552       41.200     6064.525     4699.351     1697.419        0.913        0.623       75.882       50.152        0.437      336.206        7.352      864.021
11/22/2014  19:18:00     -205.433      -10.524      -18.873       63.993       42.851       31.396     4095.081     1836.241      985.718        2.479        0.346      205.702       31.406        0.023      336.147        7.251      864.054
11/22/2014  19:19:00      -87.962      -43.139        1.416       93.097       46.064       42.147     8666.984     2121.876     1776.366        1.108        0.628       97.971       50.159        0.262      336.149        7.257      864.086
11/22/2014  19:20:00     -164.795      -46.473      -16.671       81.156       69.501       30.731     6586.324     4830.450      944.419        2.098        0.618      171.223       29.800        0.030      336.184        7.313      864.069
11/22/2014  19:21:00     -211.733      -57.605       -6.650       72.514       63.723       40.253     5258.307     4060.653     1620.297        2.956        0.547      219.429       38.979        0.032      336.162        7.275      864.058
11/22/2014  19:22:00     -145.652      -53.155      -13.573       82.488       42.973       27.287     6804.248     1846.653      744.591        1.681        0.470      155.048       28.697        0.034      336.129        7.223      864.095
11/22/2014  19:23:00     -141.254      -29.029      -16.963       71.686       54.096       33.400     5138.838     2926.363     1115.558        1.513        0.459      144.206       34.068        0.056      336.134        7.231      864.128
11/22/2014  19:24:00     -104.536      -69.722        3.726       92.934       52.735       41.997     8636.743     2780.979     1763.731        1.449        0.659      125.654       44.621        0.126      336.122        7.211      864.162
11/22/2014  19:25:00      -87.057      -39.281        9.782       48.674       59.875       32.633     2369.178     3585.013     1064.941        0.812        0.351       95.509       25.191        0.070      336.128        7.222      864.190
11/22/2014  19:26:00      -72.863        3.800      -12.771       25.323       36.200       21.992      641.261     1310.429      483.657        0.396        0.122       72.962       13.273        0.033      336.214        7.366      864.209
11/22/2014  19:27:00     -141.684       48.093      -18.583       69.745       50.322       34.948     4864.387     2532.316     1221.397        1.567        0.431      149.624       39.924        0.071      336.208        7.354      864.246
11/22/2014  19:28:00      -74.908       43.199       -9.536       70.886       78.865       39.071     5024.773     6219.668     1526.573        1.017        0.639       86.472       40.738        0.222      336.170        7.290      864.268
11/22/2014  19:29:00      -72.286       19.874       -7.773       46.218       54.516       30.091     2136.099     2971.996      905.493        0.585        0.301       74.968       29.654        0.156      336.272        7.463      864.272
11/22/2014  19:30:00      -87.088       43.345      -13.013       47.513       35.518       30.830     2257.451     1261.535      950.518        0.705        0.223       97.279       29.792        0.094      336.197        7.336      864.298
11/22/2014  19:31:00      -77.918       31.886        4.552       42.919       59.098       31.266     1842.059     3492.572      977.589        0.671        0.316       84.190       28.779        0.117      336.237        7.402      864.348
11/22/2014  19:32:00      -85.522      112.573      -22.695       42.978       39.877       26.569     1847.150     1590.157      705.936        1.232        0.207      141.374       25.228        0.032      336.272        7.463      864.370
11/22/2014  19:33:00      -87.592       78.203      -14.450       56.000       47.731       26.744     3135.979     2278.254      715.259        1.006        0.306      117.423       27.709        0.056      336.350        7.593      864.373
11/22/2014  19:34:00     -109.270      137.388      -32.071       44.377       44.823       26.491     1969.327     2009.077      701.797        1.826        0.234      175.543       21.000        0.014      336.147        7.252      864.366
11/22/2014  19:35:00     -104.157      192.080      -33.903       43.508       77.513       36.738     1892.933     6008.298     1349.705        2.907        0.463      218.503       30.446        0.019      336.066        7.115      864.347
11/22/2014  19:36:00     -107.361      148.665      -29.401       35.105       62.695       26.084     1232.376     3930.722      680.395        2.017        0.292      183.379       29.049        0.025      335.994        6.995      864.337
11/22/2014  19:37:00      -97.054      151.332      -29.797       43.505       45.320       27.136     1892.684     2053.889      736.365        1.894        0.234      179.780       22.985        0.016      336.045        7.081      864.359
11/22/2014  19:38:00      -79.158       90.846      -23.417       38.854       38.106       24.339     1509.643     1452.100      592.406        0.931        0.178      120.495       22.882        0.036      336.045        7.083      864.387
11/22/2014  19:39:00     -132.090      100.201      -32.760       33.627       43.223       22.225     1130.804     1868.248      493.941        1.603        0.175      165.795       17.590        0.011      336.100        7.174      864.403
11/22/2014  19:40:00     -121.313      119.080      -36.797       37.220       53.462       25.930     1385.323     2858.206      672.359        1.758        0.246      169.991       15.108        0.008      336.081        7.144      864.393
11/22/2014  19:41:00      -90.764       81.794      -18.595       33.049       38.007       20.342     1092.232     1444.551      413.788        0.911        0.148      122.182       18.259        0.022      336.155        7.266      864.399
11/22/2014  19:42:00      -84.968      106.664      -28.963       35.650       69.846       26.245     1270.916     4878.491      688.799        1.314        0.342      136.370       13.673        0.010      336.062        7.111      864.416
11/22/2014  19:43:00     -106.855      203.349      -22.682       56.998       78.400       35.631     3248.794     6146.621     1269.582        3.197        0.533      229.715       25.890        0.013      336.052        7.092      864.476
11/22/2014  19:44:00     -110.840      153.054      -23.896       47.773       50.218       40.453     2282.244     2521.798     1636.477        2.136        0.322      188.974       35.794        0.036      335.982        6.976      864.526
11/22/2014  19:45:00     -129.300       99.398      -35.821       93.407       81.283       38.004     8724.838     6607.003     1444.276        2.233        0.839      163.090       44.251        0.074      336.102        7.178      864.561
11/22/2014  19:46:00     -135.087      130.116      -19.304       71.886       76.864       47.518     5167.537     5908.124     2257.915        2.444        0.667      187.560       46.878        0.062      336.081        7.141      864.600
11/22/2014  19:47:00     -112.879       64.772      -17.912       42.605       41.965       25.696     1815.159     1761.064      660.290        1.075        0.212      130.142       25.226        0.038      336.208        7.353      864.616
11/22/2014  19:48:00      -64.854      -11.231        4.233       60.213       44.002       29.954     3625.642     1936.153      897.243        0.540        0.323       65.819       23.467        0.127      336.088        7.154      864.642
11/22/2014  19:49:00     -130.727       82.369      -19.076       84.192       81.192       42.837     7088.302     6592.117     1834.978        1.987        0.776      154.513       43.423        0.079      335.999        7.004      864.642
11/22/2014  19:50:00     -112.951       44.155      -17.840       61.647       79.075       38.510     3800.357     6252.906     1483.039        1.328        0.577      121.275       24.251        0.040      336.060        7.107      864.640
11/22/2014  19:51:00     -114.387       -0.990      -12.224       63.473       59.307       37.912     4028.827     3517.281     1437.324        1.111        0.449      114.391       23.961        0.044      335.931        6.891      864.644
11/22/2014  19:52:00     -173.833      -40.412      -33.511       63.810       73.510       38.678     4071.753     5403.733     1495.986        2.197        0.549      178.468       28.955        0.026      335.849        6.754      864.608
11/22/2014  19:53:00     -168.631      -52.632       -7.644       61.565       54.840       39.501     3790.222     3007.400     1560.334        1.981        0.418      176.654       18.810        0.011      335.798        6.671      864.643
11/22/2014  19:54:00     -166.562      -73.075       -2.274       78.433       56.557       39.720     6151.703     3198.645     1577.674        2.201        0.546      181.887       42.891        0.056      335.622        6.378      864.696
11/22/2014  19:55:00     -145.946       11.558      -40.892       57.550       77.987       42.861     3311.948     6081.974     1837.031        1.717        0.562      146.403       39.292        0.072      335.729        6.557      864.717
11/22/2014  19:56:00     -139.725      -27.673      -18.462       67.680       68.678       37.053     4580.559     4716.602     1372.962        1.565        0.534      142.439       35.075        0.061      335.604        6.348      864.720
11/22/2014  19:57:00     -121.054      -11.884       -3.918       81.793       63.550       39.965     6690.017     4038.608     1597.168        1.357        0.616      121.635       44.132        0.132      335.655        6.432      864.725
11/22/2014  19:58:00     -165.327       82.638      -26.074       75.708       81.207       54.616     5731.702     6594.510     2982.931        2.507        0.765      184.830       53.664        0.084      335.712        6.526      864.721
11/22/2014  19:59:00     -160.445      -40.722      -12.203       60.090       41.654       27.917     3610.796     1735.047      779.341        1.684        0.306      165.532       22.954        0.019      335.733        6.563      864.711
11/22/2014  20:00:00     -183.826      -53.982      -14.084       57.801       68.758       32.774     3340.939     4727.657     1074.143        2.302        0.457      191.588       25.924        0.018      335.553        6.262      864.692
11/22/2014  20:01:00     -157.009      -44.851       -1.410       62.775       57.600       40.605     3940.659     3317.766     1648.747        1.778        0.445      163.289       25.219        0.024      335.492        6.161      864.695
11/22/2014  20:02:00      -97.978      -32.740      -11.645       76.049       40.076       36.183     5783.474     1606.121     1309.177        0.975        0.435      103.304       34.163        0.109      335.524        6.215      864.726
11/22/2014  20:03:00      -63.819       -9.584       -2.445       40.926       44.074       29.416     1674.922     1942.535      865.314        0.433        0.224       64.534       11.521        0.032      335.486        6.152      864.765
11/22/2014  20:04:00     -111.921       18.176       -8.103       57.155       72.030       37.168     3266.740     5188.317     1381.478        1.138        0.492      113.387       21.901        0.037      335.592        6.329      864.823
11/22/2014  20:05:00     -130.417      -66.590        3.116       81.685       69.932       39.699     6672.426     4890.451     1576.026        1.729        0.657      146.434       42.082        0.083      335.464        6.114      864.888
11/22/2014  20:06:00     -127.623       -5.378      -21.298       58.119       61.790       31.238     3377.875     3818.047      975.782        1.247        0.409      127.736       20.795        0.027      335.533        6.230      864.937
11/22/2014  20:07:00     -127.279      -10.335       -4.401       83.146       52.806       41.389     6913.203     2788.425     1713.082        1.387        0.571      127.698       43.647        0.117      335.421        6.041      864.943
11/22/2014  20:08:00     -173.070      -15.447      -24.975       77.987       51.362       25.665     6082.034     2638.037      658.717        2.010        0.469      173.758       24.388        0.020      335.367        5.953      864.922
11/22/2014  20:09:00      -75.578      -44.946       -5.965       72.359       79.919       49.752     5235.866     6387.014     2475.245        1.093        0.705       87.933       45.753        0.271      335.372        5.961      864.911
11/22/2014  20:10:00      -28.835      -36.363       -5.606       71.712       45.373       44.108     5142.599     2058.681     1945.524        0.566        0.457       46.408       21.127        0.207      335.356        5.933      864.909
11/22/2014  20:11:00     -104.352       19.625       -3.508       84.405       80.438       43.357     7124.172     6470.330     1879.819        1.338        0.774      106.182       35.552        0.112      335.445        6.081      864.917
11/22/2014  20:12:00     -151.691        4.864      -19.524       65.656       79.106       35.833     4310.739     6257.706     1284.037        1.763        0.593      151.769       22.174        0.021      335.353        5.927      864.946
11/22/2014  20:13:00      -95.809        4.238       -7.034       47.680       58.706       41.264     2273.407     3446.355     1702.677        0.833        0.371       95.903       21.383        0.050      335.321        5.876      864.992
11/22/2014  20:14:00      -97.555       22.173      -11.992       75.406       71.367       45.614     5686.034     5093.253     2080.601        1.150        0.643      100.043       40.152        0.161      335.378        5.971      864.999
11/22/2014  20:15:00      -64.897      -17.828        8.281       62.988       46.306       39.738     3967.515     2144.209     1579.122        0.614        0.385       67.302       37.590        0.312      335.308        5.855      864.998
11/22/2014  20:16:00      -50.274       23.756       -8.419       37.879       36.113       25.987     1434.820     1304.166      675.302        0.329        0.171       55.604       17.805        0.103      335.404        6.014      865.004
11/22/2014  20:17:00     -104.721       32.203      -13.538       64.269       92.168       37.720     4130.521     8494.850     1422.802        1.311        0.702      109.561       35.681        0.106      335.479        6.138      865.031
11/22/2014  20:18:00     -160.837       70.664      -37.415       59.568       94.347       41.860     3548.305     8901.412     1752.298        2.323        0.710      175.676       39.563        0.051      335.428        6.052      865.050
11/22/2014  20:19:00     -140.582       61.523      -34.481       77.857       99.780       53.424     6061.647     9955.978     2854.113        2.180        0.944      153.455       23.160        0.023      335.354        5.930      865.037
11/22/2014  20:20:00      -79.170        8.683        1.069       87.864       33.143       51.572     7720.132     1098.466     2659.668        0.891        0.574       79.645       47.454        0.355      335.320        5.874      865.071
11/22/2014  20:21:00     -124.251       -4.528      -25.697       86.754       79.469       38.993     7526.174     6315.261     1520.475        1.574        0.768      124.333       39.893        0.103      335.276        5.802      865.157
11/22/2014  20:22:00     -117.108       30.970       -7.032       90.450       59.437       48.943     8181.287     3532.721     2395.413        1.441        0.705      121.134       46.669        0.148      335.363        5.946      865.202
11/22/2014  20:23:00     -143.402       56.257      -23.478       74.369       93.305       40.596     5530.744     8705.866     1648.034        2.008        0.794      154.042       46.050        0.089      335.289        5.821      865.226
11/22/2014  20:24:00     -163.466       88.646      -12.144      119.859       71.772       51.691    14366.147     5151.268     2672.010        2.845        1.109      185.955       64.583        0.121      335.302        5.843      865.228
11/22/2014  20:25:00     -135.266       23.619       -4.879       57.235       98.906       43.453     3275.873     9782.431     1888.167        1.691        0.747      137.312       37.547        0.075      335.308        5.853      865.212
11/22/2014  20:26:00      -76.702      -36.041      -16.765       57.294       62.012       39.369     3282.609     3845.523     1549.889        0.807        0.434       84.748       32.229        0.145      335.398        6.005      865.212
11/22/2014  20:27:00      -85.031       16.476      -12.616       52.949       56.122       29.755     2803.618     3149.724      885.365        0.725        0.342       86.613       26.117        0.091      335.427        6.052      865.186
11/22/2014  20:28:00     -116.199       70.750      -20.806       44.532       51.492       40.084     1983.125     2651.396     1606.756        1.259        0.312      136.043       35.167        0.067      335.409        6.024      865.189
11/22/2014  20:29:00      -89.877       31.385       -6.914       53.572       89.373       42.883     2869.958     7987.492     1838.911        1.090        0.635       95.199       32.480        0.116      335.359        5.940      865.189
11/22/2014  20:30:00      -76.247       92.727      -16.177       48.842       64.748       31.543     2385.573     4192.312      994.986        1.112        0.379      120.049       27.656        0.053      335.349        5.922      865.177
11/22/2014  20:31:00     -103.146       -8.389      -10.199       77.476       87.001       40.603     6002.562     7569.204     1648.575        1.301        0.761      103.487       45.021        0.189      335.389        5.989      865.164
11/22/2014  20:32:00      -51.047        8.355        8.063       32.405       25.120       21.542     1050.081      631.026      464.048        0.244        0.107       51.726        5.811        0.013      335.285        5.816      865.165
11/22/2014  20:33:00      -92.539       25.314      -29.785       69.979       39.041       39.536     4897.057     1524.175     1563.111        0.904        0.399       95.939       13.906        0.021      335.419        6.040      865.189
11/22/2014  20:34:00      -75.821      -19.589       -1.840       51.517       55.586       32.936     2654.030     3089.765     1084.789        0.648        0.341       78.310       21.581        0.076      335.366        5.952      865.202
11/22/2014  20:35:00      -41.719      -22.900        1.645       41.140       41.318       27.568     1692.471     1707.167      760.000        0.321        0.208       47.591       24.522        0.266      335.196        5.670      865.196
11/22/2014  20:36:00      -62.010       56.994      -10.031       33.234       51.986       28.297     1104.474     2702.517      800.723        0.590        0.230       84.223       20.391        0.059      335.309        5.857      865.163
11/22/2014  20:37:00      -65.969       50.088        7.495       44.672       56.681       26.246     1995.562     3212.786      688.877        0.641        0.295       82.829       13.024        0.025      335.367        5.953      865.139
11/22/2014  20:38:00      -65.613      -10.027      -12.720       51.589       44.078       30.861     2661.420     1942.835      952.396        0.506        0.278       66.375       26.817        0.163      335.407        6.020      865.125
11/22/2014  20:39:00      -40.955       -7.828        5.283       30.417       38.160       14.828      925.198     1456.188      219.882        0.218        0.130       41.697        9.402        0.051      335.304        5.847      865.123
11/22/2014  20:40:00      -53.333       74.139      -20.191       49.659       33.934       22.335     2466.029     1151.523      498.856        0.643        0.206       91.329       15.849        0.030      335.519        6.207      865.164
11/22/2014  20:41:00      -58.988       56.528      -13.226       35.661       41.097       25.795     1271.729     1688.980      665.403        0.524        0.181       81.701       19.712        0.058      335.516        6.201      865.203
11/22/2014  20:42:00      -73.521       60.879      -10.532       32.492       31.617       20.837     1055.711      999.650      434.181        0.586        0.124       95.455       15.510        0.026      335.657        6.437      865.226
11/22/2014  20:43:00      -62.072       -4.970       -5.389       37.197       23.319       17.713     1383.611      543.790      313.759        0.307        0.112       62.270       20.495        0.108      335.439        6.073      865.225
11/22/2014  20:44:00      -28.507       73.266       -8.757       31.342       46.114       19.065      982.292     2126.455      363.490        0.486        0.174       78.616       13.871        0.031      335.565        6.283      865.226
11/22/2014  20:45:00      -55.616       27.477       -0.644       22.617       35.713       13.750      511.524     1275.420      189.052        0.291        0.099       62.033        5.987        0.009      335.614        6.365      865.250
11/22/2014  20:46:00      -29.869       -3.017       -8.843       23.640       15.064        9.120      558.855      226.926       83.174        0.092        0.043       30.021        4.132        0.019      335.468        6.121      865.263
11/22/2014  20:47:00      -65.204       -3.864       -4.392       24.420       24.370       11.882      596.335      593.916      141.191        0.281        0.067       65.318       11.109        0.029      335.527        6.219      865.248
11/22/2014  20:48:00      -46.194       13.026       -2.418       36.374       23.517       14.792     1323.038      553.047      218.810        0.220        0.105       47.996       14.987        0.098      335.525        6.217      865.241
11/22/2014  20:49:00     -117.250       -2.296      -21.920       39.651       38.781       23.189     1572.193     1503.993      537.742        0.892        0.181      117.272       14.827        0.016      335.461        6.108      865.273
11/22/2014  20:50:00      -69.867       40.697      -17.907       32.663       59.483       19.217     1066.896     3538.256      369.279        0.592        0.249       80.855       25.190        0.097      335.469        6.121      865.358
11/22/2014  20:51:00      -71.539      106.973      -24.561       52.716       38.978       25.466     2778.932     1519.249      648.500        1.105        0.247      128.690       21.981        0.029      335.517        6.203      865.455
11/22/2014  20:52:00      -67.925       39.550       -9.209       43.720       38.264       24.592     1911.480     1464.169      604.763        0.512        0.199       78.601       16.187        0.042      335.654        6.431      865.515
11/22/2014  20:53:00      -57.422       64.621        0.421       34.652       34.708       27.803     1200.743     1204.677      773.007        0.533        0.159       86.448       22.148        0.066      335.407        6.021      865.533
11/22/2014  20:54:00      -79.256       48.603       -9.504       18.587       30.486       16.837      345.486      929.408      283.471        0.515        0.078       92.972        7.907        0.007      335.545        6.250      865.545
11/22/2014  20:55:00      -73.745       28.155      -12.405       56.137       29.410       23.147     3151.397      864.934      535.794        0.547        0.228       78.936       14.136        0.032      335.539        6.239      865.540
11/22/2014  20:56:00      -48.404       81.533       -1.968       33.536       58.977       29.095     1124.637     3478.324      846.525        0.722        0.272       94.819       25.441        0.072      335.458        6.104      865.516
11/22/2014  20:57:00      -17.574       -5.118        6.983       23.560       19.899       15.938      555.067      395.980      254.013        0.079        0.060       18.305        4.806        0.069      335.460        6.107      865.495
11/22/2014  20:58:00      -39.208       50.425       -7.809       29.390       26.816       18.605      863.765      719.073      346.150        0.303        0.096       63.874       12.070        0.036      335.662        6.444      865.496
11/22/2014  20:59:00      -32.111       55.132      -16.404       33.666       47.720       19.227     1133.423     2277.231      369.675        0.406        0.189       63.802       20.536        0.104      335.577        6.304      865.474
11/22/2014  21:00:00        4.801       34.233        5.759       18.576       30.716       18.304      345.066      943.482      335.050        0.143        0.081       34.568       14.069        0.166      335.477        6.136      865.445
11/22/2014  21:01:00       20.212       62.939      -13.937       16.520       17.172        7.478      272.917      294.885       55.923        0.259        0.031       66.104        7.491        0.013      335.398        6.006      865.478
11/22/2014  21:02:00       17.696       64.055      -12.269       17.676       32.793       13.280      312.458     1075.376      176.367        0.307        0.078       66.455       14.972        0.051      335.394        5.998      865.502
11/22/2014  21:03:00       17.143       54.391       -8.091       18.599       26.588       11.705      345.923      706.936      137.009        0.225        0.059       57.029       11.546        0.041      335.323        5.879      865.488
11/22/2014  21:04:00       -3.657       68.679      -12.018       22.187       27.812       13.663      492.242      773.497      186.688        0.316        0.073       68.776       11.464        0.028      335.335        5.899      865.443
11/22/2014  21:05:00      -10.670       43.000      -11.604       24.026       38.520       14.410      577.264     1483.828      207.658        0.218        0.113       44.304       11.685        0.070      335.387        5.986      865.429
11/22/2014  21:06:00      -22.768       18.121        8.457       33.933       24.977       20.742     1151.459      623.867      430.219        0.156        0.110       29.099       18.296        0.395      335.461        6.109      865.425
11/22/2014  21:07:00      -24.098       33.004       -8.710       32.049       19.346       12.297     1027.121      374.252      151.213        0.165        0.078       40.865       11.858        0.084      335.426        6.052      865.459
11/22/2014  21:08:00      -17.167       48.321       -8.168       23.677       20.409       10.974      560.585      416.546      120.428        0.190        0.055       51.280        7.112        0.019      335.473        6.130      865.511
11/22/2014  21:09:00      -26.947        0.935        2.192       18.163       10.748        9.734      329.893      115.528       94.746        0.064        0.027       26.963        3.584        0.018      335.411        6.025      865.555
11/22/2014  21:10:00      -27.742       21.088       -0.565       29.617       23.872       21.015      877.156      569.877      441.641        0.155        0.094       34.847       20.923        0.361      335.477        6.136      865.614
11/22/2014  21:11:00      -69.456      -42.220       -0.959       30.727       38.670       19.243      944.150     1495.370      370.311        0.471        0.140       81.282       17.915        0.049      335.478        6.138      865.649
11/22/2014  21:12:00      -68.468      -41.508        0.206       63.470       39.643       25.761     4028.450     1571.596      663.650        0.634        0.313       80.067       32.919        0.169      335.316        5.868      865.641
11/22/2014  21:13:00      -79.325      -44.416       -1.754       45.064       32.927       22.849     2030.768     1084.160      522.066        0.595        0.182       90.914       26.951        0.088      335.338        5.904      865.610
11/22/2014  21:14:00      -77.628      -10.915       -6.698       20.186       22.837       17.143      407.487      521.520      293.883        0.371        0.061       78.392        9.555        0.015      335.436        6.069      865.589
11/22/2014  21:15:00      -55.285      -51.630       -1.917       43.614       32.971       23.459     1902.177     1087.068      550.330        0.463        0.177       75.644       26.102        0.119      335.420        6.042      865.598
11/22/2014  21:16:00      -54.722      -60.784        3.962       54.011       34.045       28.677     2917.136     1159.043      822.371        0.580        0.245       81.787       33.926        0.172      335.386        5.986      865.664
11/22/2014  21:17:00     -106.460      -45.588        0.788       34.720       40.493       22.040     1205.494     1639.692      485.742        0.837        0.167      115.811       19.070        0.027      335.287        5.819      865.748
11/22/2014  21:18:00      -52.873      -34.561        7.703       41.939       29.007       19.179     1758.917      841.378      367.831        0.351        0.148       63.167       21.469        0.116      335.217        5.701      865.808
11/22/2014  21:19:00     -110.282      -10.056       -7.654       37.882       32.080       21.586     1435.053     1029.114      465.965        0.763        0.147      110.740       19.641        0.031      335.206        5.685      865.792
11/22/2014  21:20:00     -101.270      -32.289       -9.233       33.328       21.781       13.417     1110.739      474.401      180.025        0.657        0.088      106.293       13.205        0.015      335.181        5.643      865.755
11/22/2014  21:21:00      -62.310        6.267       -8.125       26.283       30.746       16.184      690.790      945.337      261.910        0.294        0.095       62.625       12.309        0.039      335.316        5.868      865.690
11/22/2014  21:22:00      -61.153       -1.244       -9.214       36.198       19.059       17.594     1310.307      363.255      309.553        0.290        0.099       61.165       14.012        0.052      335.333        5.896      865.644
11/22/2014  21:23:00      -46.859       -6.227        0.339       45.954       18.998       16.819     2111.759      360.935      282.878        0.249        0.138       47.271       20.769        0.193      335.307        5.854      865.600
11/22/2014  21:24:00        1.466       34.915       -5.523       16.898       14.319       12.051      285.537      205.044      145.220        0.094        0.032       34.946       10.680        0.093      335.162        5.613      865.567
11/22/2014  21:25:00       13.722       53.224      -13.367       23.293       12.777        9.379      542.559      163.244       87.960        0.200        0.040       54.965       11.753        0.046      334.922        5.215      865.569
11/22/2014  21:26:00       25.109       49.143       -7.530       14.264       22.678       13.420      203.451      514.312      180.090        0.200        0.045       55.186       13.260        0.058      334.895        5.169      865.619
11/22/2014  21:27:00        6.997       54.244      -13.626       18.977       23.127       12.557      360.142      534.865      157.667        0.211        0.053       54.693       15.279        0.078      334.942        5.248      865.655
11/22/2014  21:28:00       11.889      103.299      -18.550       18.064       19.860        9.199      326.317      394.405       84.627        0.598        0.040      103.981        8.585        0.007      334.824        5.051      865.664
11/22/2014  21:29:00       19.778       94.512      -13.168       17.924       28.768       17.092      321.278      827.622      292.150        0.547        0.072       96.559       16.559        0.029      334.755        4.938      865.660
11/22/2014  21:30:00       -8.880      137.619      -15.925       33.214       57.437       22.781     1103.194     3299.034      518.952        1.210        0.246      137.905       29.665        0.046      334.797        5.007      865.667
11/22/2014  21:31:00      -33.036      157.641      -26.572       19.593       25.252       13.369      383.904      637.666      178.738        1.392        0.060      161.066       11.690        0.005      334.965        5.286      865.671
11/22/2014  21:32:00      -30.626       90.298      -10.832       20.608       44.460       18.810      424.697     1976.732      353.801        0.598        0.138       95.350       24.280        0.065      335.010        5.361      865.664
11/22/2014  21:33:00      -13.023       43.727       -4.174       11.619       25.218       13.265      135.013      635.931      175.972        0.152        0.047       45.625        6.599        0.021      334.992        5.330      865.667
11/22/2014  21:34:00      -34.489       26.649       -1.109       19.328       18.304       10.066      373.590      335.020      101.315        0.136        0.040       43.585        8.186        0.035      334.936        5.237      865.671
11/22/2014  21:35:00      -43.259       44.022       -6.699       21.598       22.450       13.949      466.478      503.993      194.587        0.251        0.058       61.720       10.538        0.029      335.061        5.446      865.674
11/22/2014  21:36:00      -42.261       71.420      -11.599       23.192       18.804       11.560      537.864      353.585      133.623        0.402        0.051       82.987        6.627        0.006      335.130        5.559      865.666
11/22/2014  21:37:00       -8.468       82.908      -11.566       21.368       14.897        9.617      456.590      221.908       92.481        0.392        0.039       83.339        6.455        0.006      335.159        5.607      865.672
11/22/2014  21:38:00      -14.369       99.732       -9.149       14.831       27.237       16.750      219.971      741.830      280.550        0.574        0.062      100.762        9.022        0.008      335.202        5.679      865.713
11/22/2014  21:39:00      -32.701       72.214       -6.854       24.298       42.595       15.121      590.411     1814.355      228.647        0.448        0.132       79.273       15.430        0.038      335.206        5.686      865.766
11/22/2014  21:40:00      -44.919       27.528       -5.079       20.604       16.467       15.262      424.518      271.172      232.926        0.186        0.046       52.682       15.219        0.083      335.039        5.408      865.815
11/22/2014  21:41:00      -56.482       36.018       -8.345       19.395       21.280       16.869      376.170      452.849      284.577        0.284        0.056       66.989       12.388        0.034      335.256        5.770      865.854
11/22/2014  21:42:00      -51.597       32.253        3.104       21.147       20.205       18.051      447.178      408.259      325.854        0.245        0.059       60.848       13.519        0.049      335.260        5.775      865.864
11/22/2014  21:43:00      -21.231       61.240      -13.915       21.998       34.493       12.309      483.897     1189.775      151.519        0.311        0.091       64.816       11.737        0.033      335.135        5.567      865.854
11/22/2014  21:44:00      -33.648       57.095       -2.933       31.014       37.829       15.117      961.864     1431.027      228.516        0.351        0.131       66.273       13.813        0.043      335.198        5.672      865.816
11/22/2014  21:45:00      -28.917       31.278        0.024       21.609       22.872       16.514      466.940      523.141      272.724        0.154        0.063       42.598       12.062        0.080      335.280        5.808      865.791
11/22/2014  21:46:00      -56.948       29.739       -3.508       20.530       19.720       13.987      421.481      388.872      195.650        0.257        0.050       64.246        2.481        0.001      335.343        5.914      865.772
11/22/2014  21:47:00      -62.053       54.628      -11.852       23.358       25.963       21.135      545.617      674.100      446.698        0.432        0.083       82.673       18.378        0.049      335.252        5.763      865.777
11/22/2014  21:48:00      -54.791       31.837       -4.595       23.412       30.726       12.904      548.120      944.099      166.515        0.285        0.083       63.369       11.128        0.031      335.181        5.645      865.799
11/22/2014  21:49:00      -76.962       11.639      -15.370       17.491       19.804       18.551      305.918      392.215      344.137        0.367        0.052       77.837       14.090        0.033      335.218        5.707      865.818
11/22/2014  21:50:00      -81.230      -13.688       -7.603       20.031       26.035       16.523      401.252      677.821      272.995        0.410        0.068       82.375       14.762        0.032      335.165        5.617      865.818
11/22/2014  21:51:00      -54.296        0.889       -6.609       31.060       40.939       20.334      964.739     1675.964      413.486        0.302        0.153       54.303        9.138        0.028      334.904        5.185      865.815
11/22/2014  21:52:00     -108.761      -38.198      -11.613       17.911       14.621       12.985      320.810      213.781      168.615        0.706        0.035      115.274        7.921        0.005      334.827        5.058      865.821
11/22/2014  21:53:00     -133.526      -22.721      -16.409       41.248       27.179       20.830     1701.367      738.698      433.902        1.074        0.144      135.446       17.195        0.016      334.761        4.947      865.836
11/22/2014  21:54:00      -89.945       18.995      -10.220       35.260       29.804       25.246     1243.234      888.252      637.337        0.566        0.138       91.929       18.411        0.040      334.959        5.275      865.856
11/22/2014  21:55:00      -84.561       77.234      -21.250       32.121       39.824       22.793     1031.737     1585.935      519.509        0.835        0.157      114.524       24.907        0.047      335.039        5.408      865.853
11/22/2014  21:56:00      -54.765        3.261        1.852       26.451       25.899       18.026      699.681      670.763      324.926        0.235        0.085       54.862       10.426        0.036      335.126        5.551      865.847
11/22/2014  21:57:00      -77.297      -36.498       -8.338       27.518       21.610       15.055      757.240      467.009      226.658        0.441        0.073       85.481        9.388        0.012      334.675        4.804      865.851
11/22/2014  21:58:00      -72.224        0.839      -11.647       23.801       19.662       17.403      566.465      386.597      302.873        0.330        0.063       72.229       10.108        0.020      334.912        5.198      865.882
11/22/2014  21:59:00      -68.452      -14.082      -13.698       26.564       27.626       15.461      705.661      763.181      239.039        0.339        0.085       69.885       15.953        0.052      334.779        4.975      865.913
11/22/2014  22:00:00      -51.694       -5.065       -1.220       34.760       35.445       17.979     1208.224     1256.335      323.228        0.274        0.139       51.942       15.191        0.086      334.827        5.057      865.945
11/22/2014  22:01:00      -85.363       25.052      -16.716       39.248       29.040       17.042     1540.404      843.328      290.421        0.543        0.134       88.963       14.804        0.028      334.923        5.216      865.967
11/22/2014  22:02:00      -77.979       51.460       -9.218       30.489       35.926       21.677      929.570     1290.664      469.907        0.575        0.135       93.428       16.625        0.032      334.925        5.219      865.983
11/22/2014  22:03:00      -91.647       25.187      -10.442       38.274       39.571       24.557     1464.865     1565.833      603.034        0.639        0.182       95.045       22.379        0.055      334.853        5.099      866.002
11/22/2014  22:04:00     -116.889        8.627      -10.672       36.471       33.472       22.011     1330.107     1120.388      484.489        0.839        0.147      117.207       18.598        0.025      334.842        5.081      866.019
11/22/2014  22:05:00     -116.658      -48.160      -15.008       32.714       33.147       19.902     1070.205     1098.697      396.087        0.936        0.128      126.208       17.568        0.019      334.545        4.591      866.029
11/22/2014  22:06:00     -133.617       -2.211      -15.953       38.452       24.416       26.435     1478.549      596.137      698.828        1.044        0.139      133.635       26.219        0.038      334.616        4.707      866.070
11/22/2014  22:07:00     -124.342      -20.346      -24.560       22.739       36.909       15.527      517.048     1362.244      241.094        0.930        0.106      125.996        8.499        0.005      334.591        4.665      866.102
11/22/2014  22:08:00     -100.833      -13.271      -11.141       29.428       49.525       21.534      866.008     2452.731      463.718        0.712        0.189      101.702       17.537        0.030      334.603        4.683      866.143
11/22/2014  22:09:00      -84.552      -27.265      -13.576       34.538       29.572       25.132     1192.855      874.528      631.599        0.539        0.135       88.839       19.622        0.049      334.476        4.473      866.180
11/22/2014  22:10:00      -87.121      -14.080       -6.539       24.950       40.114       21.030      622.521     1609.097      442.253        0.525        0.134       88.251        7.944        0.008      334.566        4.623      866.229
11/22/2014  22:11:00      -75.617       -9.368        3.323       24.241       37.686       27.409      587.639     1420.224      751.240        0.429        0.138       76.195       18.554        0.059      334.495        4.506      866.293
11/22/2014  22:12:00      -89.595      -10.741      -15.471       36.014       33.912       25.123     1297.037     1150.007      631.177        0.573        0.154       90.236       10.860        0.014      334.559        4.611      866.351
11/22/2014  22:13:00      -69.740      -27.789       -2.794       55.866       29.704       25.748     3121.000      882.332      662.974        0.515        0.233       75.073       26.068        0.121      334.412        4.368      866.395
11/22/2014  22:14:00      -50.411       15.821        0.065       34.723       35.197       16.623     1205.697     1238.818      276.321        0.276        0.136       52.835       11.920        0.051      334.524        4.555      866.421
11/22/2014  22:15:00      -85.268       97.672      -22.699       36.956       44.182       23.185     1365.753     1952.054      537.559        1.059        0.193      129.655       24.625        0.036      334.616        4.705      866.425
11/22/2014  22:16:00      -95.915      138.984      -23.246       41.618       56.828       34.821     1732.039     3229.447     1212.518        1.761        0.309      168.867       30.051        0.032      334.453        4.434      866.414
11/22/2014  22:17:00     -103.319      109.082      -28.693       45.003       44.878       27.791     2025.239     2014.056      772.339        1.410        0.241      150.245       21.931        0.021      334.540        4.581      866.416
11/22/2014  22:18:00     -110.362       65.767      -16.793       39.739       37.142       28.502     1579.166     1379.530      812.382        1.028        0.189      128.473       22.218        0.030      334.601        4.682      866.385
11/22/2014  22:19:00      -77.945       85.652      -10.780       49.376       89.222       30.944     2438.006     7960.528      957.550        1.244        0.568      115.809       32.977        0.081      334.569        4.626      866.325
11/22/2014  22:20:00      -80.594       45.017       -9.784       39.201       46.618       24.821     1536.717     2173.234      616.085        0.647        0.216       92.315       23.589        0.065      334.617        4.707      866.290
11/22/2014  22:21:00      -64.770       26.406       -1.234       44.072       29.984       23.874     1942.344      899.027      569.968        0.415        0.171       69.946       19.388        0.077      334.752        4.932      866.282
11/22/2014  22:22:00     -118.063       -2.341      -12.861       37.758       27.467       27.297     1425.688      754.439      745.137        0.852        0.146      118.086       22.655        0.037      334.600        4.679      866.286
11/22/2014  22:23:00     -102.303       37.198       -9.370       64.261       33.257       23.679     4129.482     1106.030      560.707        0.887        0.290      108.856       27.766        0.065      334.763        4.948      866.293
11/22/2014  22:24:00      -61.380      -19.288       -8.789       38.484       40.645       11.500     1481.041     1652.047      132.239        0.374        0.163       64.339       11.147        0.030      334.619        4.712      866.289
11/22/2014  22:25:00      -58.575       44.434      -17.148       24.970       28.158       11.266      623.513      792.847      126.932        0.362        0.077       73.522       10.450        0.020      334.733        4.901      866.300
11/22/2014  22:26:00      -56.685       41.497      -14.957       21.757       29.388       19.655      473.362      863.627      386.304        0.344        0.086       70.251       16.795        0.057      334.738        4.909      866.335
11/22/2014  22:27:00      -58.333       26.836       -4.621       25.905       25.138       20.190      671.053      631.912      407.650        0.293        0.086       64.210       16.261        0.064      334.990        5.328      866.367
11/22/2014  22:28:00      -74.749       13.403       -5.946       36.963       18.954       16.197     1366.265      359.262      262.352        0.389        0.099       75.941       17.491        0.053      334.824        5.052      866.369
11/22/2014  22:29:00      -89.119       21.137       -9.208       28.814       19.273       18.089      830.274      371.451      327.216        0.500        0.076       91.592       15.461        0.028      334.738        4.908      866.361
11/22/2014  22:30:00     -108.021       11.175      -14.863       20.308       26.014       21.401      412.427      676.706      457.993        0.678        0.077      108.597       15.199        0.020      334.772        4.965      866.369
11/22/2014  22:31:00     -116.443      -26.157      -16.957       13.642       23.477       11.575      186.100      551.163      133.979        0.770        0.044      119.345        4.896        0.002      334.570        4.631      866.375
11/22/2014  22:32:00      -80.494      -11.483      -13.831       28.156       32.259       16.320      792.765     1040.617      266.346        0.445        0.105       81.309       15.538        0.037      334.566        4.624      866.366
11/22/2014  22:33:00      -62.043       12.763       -3.683       28.233       25.827       16.952      797.124      667.014      287.376        0.289        0.088       63.342       14.487        0.052      334.756        4.939      866.374
11/22/2014  22:34:00      -76.507       54.774      -15.500       23.841       31.163       14.732      568.411      971.109      217.022        0.542        0.088       94.093        9.708        0.011      334.904        5.184      866.386
11/22/2014  22:35:00      -98.595       62.702      -13.962       31.662       58.640       22.935     1002.462     3438.637      525.991        0.941        0.248      116.844       14.413        0.015      334.639        4.744      866.404
11/22/2014  22:36:00      -91.126       16.669      -11.596       30.330       33.957       23.535      919.910     1153.050      553.887        0.567        0.131       92.638       16.668        0.032      334.594        4.670      866.439
11/22/2014  22:37:00      -94.433       16.844      -15.245       25.524       25.319       16.293      651.479      641.029      265.457        0.550        0.078       95.924        6.737        0.005      334.616        4.708      866.472
11/22/2014  22:38:00      -84.667      -44.485       -6.776       27.320       34.409       15.710      746.364     1183.959      246.812        0.568        0.109       95.643        7.189        0.006      334.578        4.643      866.497
11/22/2014  22:39:00      -94.475       -8.372       -8.722       30.981       27.571       14.710      959.816      760.142      216.376        0.550        0.097       94.845       12.861        0.018      334.700        4.846      866.526
11/22/2014  22:40:00     -108.046      -32.970      -20.943       22.947       29.713       23.968      526.552      882.857      574.486        0.759        0.099      112.965       11.429        0.010      334.594        4.669      866.537
11/22/2014  22:41:00      -90.518      -65.094      -19.012       53.483       28.879       21.994     2860.427      834.006      483.742        0.848        0.209      111.493        8.101        0.005      334.447        4.426      866.538
11/22/2014  22:42:00     -119.371      -34.637      -21.603       41.046       38.488       30.390     1684.802     1481.314      923.558        1.000        0.204      124.295       17.779        0.020      334.400        4.348      866.563
11/22/2014  22:43:00     -117.616      -13.228      -17.634       39.024       39.639       22.957     1522.834     1571.229      527.046        0.897        0.181      118.357       14.170        0.014      334.440        4.416      866.561
11/22/2014  22:44:00      -96.862      -37.709      -14.312       27.041       31.971       21.999      731.204     1022.115      483.940        0.662        0.112      103.944        9.620        0.009      334.406        4.359      866.543
11/22/2014  22:45:00     -111.603      -34.075      -13.664       36.696       32.175       20.753     1346.606     1035.242      430.669        0.831        0.141      116.689       16.302        0.020      334.427        4.392      866.570
11/22/2014  22:46:00      -83.974        2.967      -19.337       32.177       22.932       21.088     1035.364      525.887      444.710        0.472        0.100       84.026       16.359        0.038      334.434        4.404      866.626
11/22/2014  22:47:00     -107.354      -19.192      -19.880       36.086       34.271       26.129     1302.215     1174.504      682.699        0.772        0.158      109.056       12.422        0.013      334.557        4.609      866.675
11/22/2014  22:48:00     -107.102      -46.284      -26.198       43.503       33.953       23.043     1892.507     1152.807      531.001        0.894        0.179      116.675       14.306        0.015      334.348        4.261      866.685
11/22/2014  22:49:00     -182.594      -71.829      -29.839       46.404       44.068       22.732     2153.340     1942.004      516.759        2.200        0.231      196.214        8.439        0.002      334.289        4.161      866.688
11/22/2014  22:50:00     -198.298      -53.095      -28.814       46.788       39.591       23.961     2189.111     1567.477      574.153        2.365        0.217      205.283        8.743        0.002      334.262        4.116      866.710
11/22/2014  22:51:00     -131.364      -29.560      -18.894       56.024       32.116       26.248     3138.653     1031.437      688.956        1.167        0.243      134.649       23.317        0.030      334.261        4.118      866.733
11/22/2014  22:52:00     -129.088      -77.355      -13.889       49.886       40.359       27.640     2488.570     1628.822      763.987        1.386        0.244      150.490       10.698        0.005      334.268        4.128      866.718
11/22/2014  22:53:00     -146.981      -69.786      -13.816       47.695       48.646       31.479     2274.800     2366.413      990.923        1.615        0.282      162.706       18.479        0.013      334.278        4.145      866.691
11/22/2014  22:54:00     -164.814      -59.448      -14.521       57.130       67.762       35.936     3263.890     4591.657     1291.399        2.003        0.457      175.208       24.600        0.020      334.227        4.058      866.669
11/22/2014  22:55:00     -132.532      -37.455      -16.830       40.238       53.611       29.086     1619.064     2874.184      846.021        1.229        0.267      137.723       23.657        0.030      334.202        4.019      866.663
11/22/2014  22:56:00     -132.017       -5.887      -10.997       43.931       35.892       29.310     1929.974     1288.218      859.090        1.083        0.204      132.148       18.844        0.020      334.351        4.266      866.693
11/22/2014  22:57:00     -140.245       18.642      -23.147       47.156       34.731       31.820     2223.674     1206.240     1012.544        1.250        0.222      141.478       29.724        0.044      334.268        4.128      866.763
11/22/2014  22:58:00      -99.181       17.295      -10.272       49.300       33.227       19.465     2430.448     1104.064      378.877        0.708        0.196      100.678       22.140        0.048      334.303        4.188      866.811
11/22/2014  22:59:00      -51.901       45.418      -12.427       45.145       30.756       24.637     2038.071      945.948      606.998        0.425        0.180       68.967       13.987        0.041      334.384        4.322      866.841
11/22/2014  23:00:00        4.904       -2.972       -0.111       27.478       19.696       16.186      755.034      387.924      261.975        0.072        0.070        5.735       14.406        6.311      334.271        4.136      866.855
11/22/2014  23:01:00      -13.882        1.957        9.618       25.638       17.534       16.913      657.331      307.441      286.046        0.077        0.063       14.020       14.470        1.065      334.388        4.330      866.849
11/22/2014  23:02:00      -79.354       78.218      -27.692       27.851       31.873       21.579      775.662     1015.908      465.661        0.772        0.113      111.424       18.869        0.029      334.395        4.339      866.905
11/22/2014  23:03:00      -33.269       36.439       -8.073       23.757       34.610       17.437      564.417     1197.860      304.032        0.228        0.103       49.342       15.709        0.101      334.550        4.596      866.987
11/22/2014  23:04:00      -36.102       -1.593        1.398       23.205       21.649       22.733      538.454      468.678      516.797        0.142        0.076       36.137       16.931        0.219      334.465        4.457      867.017
11/22/2014  23:05:00      -58.249       46.069      -13.205       26.683       29.696       19.248      711.970      881.879      370.470        0.383        0.098       74.265       12.008        0.026      334.735        4.904      867.036
11/22/2014  23:06:00      -35.364       90.451      -18.103       37.344       20.693       14.355     1394.584      428.200      206.077        0.589        0.101       97.118       10.792        0.012      334.718        4.875      867.064
11/22/2014  23:07:00       32.994       32.930        0.584       32.500       18.724       14.994     1056.249      350.591      224.827        0.190        0.082       46.615        9.949        0.046      334.450        4.432      867.056
11/22/2014  23:08:00       65.856       23.428       -5.531       23.935       20.017       13.694      572.882      400.666      187.517        0.304        0.058       69.899        6.677        0.009      334.274        4.139      866.988
11/22/2014  23:09:00       32.132       22.435      -11.173       29.588       19.910       11.663      875.439      396.427      136.022        0.153        0.070       39.190        9.226        0.055      334.223        4.053      866.961
11/22/2014  23:10:00       18.445       61.226       -8.207       23.819       33.739       16.621      567.323     1138.335      276.249        0.307        0.099       63.945       20.064        0.098      334.239        4.082      866.985
11/22/2014  23:11:00      -26.734      116.370      -21.449       28.985       29.774       16.010      840.155      886.477      256.312        0.835        0.099      119.401       12.468        0.011      334.345        4.256      866.997
11/22/2014  23:12:00      -49.693       56.566      -12.738       37.251       35.996       19.954     1387.606     1295.687      398.169        0.446        0.154       75.294       23.565        0.098      334.575        4.639      867.001
11/22/2014  23:13:00      -96.837       34.732      -12.627       30.144       34.309       18.678      908.683     1177.089      348.862        0.659        0.122      102.877       13.543        0.017      334.567        4.624      866.987
11/22/2014  23:14:00     -117.579       -5.701      -10.656       29.736       33.731       20.949      884.202     1137.763      438.852        0.822        0.123      117.717       21.973        0.035      334.551        4.597      866.959
11/22/2014  23:15:00      -96.894      -34.508       -7.901       36.236       32.310       22.173     1313.050     1043.932      491.653        0.674        0.142      102.855       17.787        0.030      334.510        4.530      866.927
11/22/2014  23:16:00      -67.903      -29.809      -10.208       32.540       34.481       19.243     1058.843     1188.946      370.308        0.411        0.131       74.158       10.737        0.021      334.459        4.446      866.912
11/22/2014  23:17:00     -113.705       49.831      -20.023       43.898       42.372       25.352     1927.031     1795.352      642.727        1.009        0.218      124.145       16.768        0.018      334.648        4.759      866.921
11/22/2014  23:18:00      -66.374       19.436      -15.614       40.909       37.797       21.869     1673.531     1428.616      478.235        0.430        0.179       69.161       14.169        0.042      334.569        4.629      866.882
11/22/2014  23:19:00      -14.246       -1.916        5.594       27.602       43.243       21.570      761.869     1869.968      465.269        0.167        0.155       14.375        9.747        0.460      334.556        4.606      866.873
11/22/2014  23:20:00      -71.830      -11.115       -7.551       29.451       26.464       14.719      867.349      700.356      216.657        0.356        0.089       72.685       11.454        0.025      334.600        4.681      866.915
11/22/2014  23:21:00      -37.038        3.696       -2.930       23.576       29.901       13.047      555.824      894.053      170.218        0.151        0.081       37.222       13.457        0.131      334.613        4.702      866.978
11/22/2014  23:22:00      -46.852        5.775       -2.930       39.187       26.157       25.269     1535.593      684.185      638.526        0.255        0.143       47.206       23.121        0.240      334.638        4.743      867.071
11/22/2014  23:23:00      -21.872       79.360      -14.010       24.523       37.142       22.181      601.400     1379.528      492.001        0.472        0.124       82.319       11.540        0.020      334.715        4.871      867.132
11/22/2014  23:24:00      -49.898       92.872      -10.979       32.389       47.466       22.179     1049.034     2253.054      491.916        0.751        0.190      105.428       26.856        0.065      334.686        4.822      867.167
11/22/2014  23:25:00      -12.589       98.079      -11.448       45.804       37.194       17.618     2098.032     1383.374      310.398        0.685        0.190       98.883       17.687        0.032      334.718        4.876      867.213
11/22/2014  23:26:00        3.753      112.144      -23.593       39.424       38.063       17.092     1554.230     1448.781      292.125        0.822        0.165      112.207       11.912        0.011      334.560        4.612      867.230
11/22/2014  23:27:00       15.423       64.861       -3.591       21.072       31.715       20.027      444.011     1005.813      401.095        0.315        0.093       66.669       17.066        0.066      334.437        4.409      867.204
11/22/2014  23:28:00        9.113       78.322       -9.363       22.784       35.530       15.941      519.089     1262.409      254.107        0.417        0.102       78.851        4.580        0.003      334.419        4.381      867.165
11/22/2014  23:29:00       17.257       61.573      -11.229       17.729       21.194       12.399      314.306      449.175      153.725        0.257        0.046       63.946        8.277        0.017      334.416        4.373      867.188
11/22/2014  23:30:00       35.578       34.851       -3.817       20.761       22.107       16.354      431.024      488.710      267.446        0.184        0.059       49.804       13.945        0.078      334.433        4.403      867.208
11/22/2014  23:31:00       54.978       30.132       -7.571       23.953       22.541       18.540      573.744      508.088      343.741        0.271        0.071       62.694        5.421        0.007      334.440        4.415      867.200
11/22/2014  23:32:00       56.720       40.456       -7.694       21.909       16.780       18.395      480.007      281.579      338.382        0.301        0.055       69.669        8.007        0.013      334.334        4.239      867.188
11/22/2014  23:33:00       27.039        8.624       17.091       35.706       22.736       15.270     1274.893      516.929      233.186        0.156        0.101       28.381       14.335        0.255      334.280        4.148      867.183
11/22/2014  23:34:00       28.380       50.280       45.680       28.754       21.265       15.148      826.821      452.180      229.465        0.346        0.075       57.737        6.454        0.012      334.200        4.015      867.174
11/22/2014  23:35:00       33.233       45.140       33.700       16.069       19.151       18.751      258.212      366.770      351.601        0.263        0.049       56.054        5.236        0.009      334.146        3.926      867.166
11/22/2014  23:36:00       53.709       47.060       15.187       13.890       14.365       18.333      192.926      206.358      336.087        0.303        0.037       71.410        9.165        0.016      334.119        3.881      867.159
11/22/2014  23:37:00        9.121       50.631       -3.639       26.076       25.178       16.664      679.963      633.932      277.679        0.213        0.080       51.446       17.893        0.121      334.154        3.937      867.187
11/22/2014  23:38:00      -21.020      112.824      -20.616       15.896       16.998        8.569      252.690      288.928       73.428        0.711        0.031      114.766        9.264        0.007      334.254        4.106      867.231
11/22/2014  23:39:00      -47.390       92.479      -15.123       36.335       25.928       17.422     1320.261      672.253      303.540        0.666        0.115      103.914       14.949        0.021      334.440        4.413      867.281
11/22/2014  23:40:00      -60.752       82.582      -23.656       18.708       27.074       15.645      349.980      732.989      244.756        0.620        0.066      102.522       10.525        0.011      334.351        4.265      867.339
11/22/2014  23:41:00      -69.607      101.517      -28.264       19.905       21.555       12.029      396.198      464.610      144.708        0.848        0.050      123.088        9.032        0.005      334.442        4.418      867.355
11/22/2014  23:42:00      -87.970       70.051      -18.817       34.811       39.484       19.564     1211.778     1559.008      382.761        0.808        0.158      112.454       19.963        0.032      334.455        4.438      867.352
11/22/2014  23:43:00      -74.392       49.495      -14.120       33.910       28.773       22.907     1149.894      827.891      524.716        0.534        0.125       89.353       19.454        0.047      334.536        4.573      867.365
11/22/2014  23:44:00      -76.200       49.412      -10.243       37.305       40.568       23.865     1391.680     1645.791      569.523        0.598        0.180       90.818       24.863        0.075      334.485        4.488      867.423
11/22/2014  23:45:00      -93.822       12.578       -9.241       40.319       21.495       18.351     1625.628      462.025      336.768        0.573        0.121       94.662       19.485        0.042      334.522        4.550      867.492
11/22/2014  23:46:00      -56.366       11.979       -1.125       29.925       44.782       18.178      895.532     2005.392      330.449        0.328        0.162       57.625       15.783        0.075      334.483        4.486      867.484
11/22/2014  23:47:00      -33.424       19.368       -8.006       34.588       37.945       16.065     1196.322     1439.816      258.095        0.222        0.145       38.630       15.940        0.170      334.452        4.434      867.427
11/22/2014  23:48:00      -50.804       24.909       -5.160       37.134       31.712       26.329     1378.911     1005.647      693.193        0.315        0.154       56.582       28.736        0.258      334.512        4.533      867.405
11/22/2014  23:49:00      -67.049       65.615      -12.257       34.095       31.509       23.140     1162.455      992.814      535.477        0.582        0.135       93.813       20.488        0.048      334.528        4.559      867.441
11/22/2014  23:50:00      -78.952       85.844      -19.260       25.149       44.851       20.837      632.475     2011.608      434.198        0.853        0.154      116.630       16.090        0.019      334.471        4.465      867.462
11/22/2014  23:51:00      -74.255       41.758      -13.841       30.218       24.787       21.314      913.114      614.417      454.295        0.472        0.099       85.191       16.987        0.040      334.615        4.704      867.435
11/22/2014  23:52:00      -74.818      128.960      -26.067       33.206       48.023       19.731     1102.661     2306.230      389.318        1.335        0.190      149.092       12.485        0.007      334.420        4.379      867.443
11/22/2014  23:53:00      -66.223       88.545      -18.630       18.041       40.959       14.325      325.492     1677.644      205.194        0.739        0.110      110.571       14.510        0.017      334.416        4.376      867.447
11/22/2014  23:54:00      -57.880       75.390      -15.301       25.034       28.326       17.380      626.678      802.367      302.061        0.550        0.087       95.046       14.401        0.023      334.424        4.389      867.438
11/22/2014  23:55:00      -33.955       50.948        0.163       20.784       21.596       14.709      431.976      466.384      216.367        0.243        0.056       61.226        9.420        0.024      334.580        4.648      867.470
11/22/2014  23:56:00      -28.192       26.828       -5.233       16.345       21.445       12.959      267.167      459.870      167.945        0.122        0.045       38.917        9.836        0.064      334.601        4.681      867.481
11/22/2014  23:57:00        9.321       16.864       12.770       13.345       13.046       13.636      178.081      170.196      185.941        0.053        0.027       19.268        7.766        0.162      334.390        4.333      867.469
11/22/2014  23:58:00        3.152       36.130        7.179       22.842       33.781       15.092      521.747     1141.185      227.777        0.163        0.095       36.267       18.015        0.247      334.414        4.372      867.489
11/22/2014  23:59:00        6.030      102.906      -11.882       17.733       30.436       20.149      314.449      926.356      405.994        0.621        0.082      103.082       12.319        0.014      334.450        4.431      867.519
